Wetterdaten: Dienstag, 09.08.2016
Datum Zeit Temp. A. Temp. A. max Feuchte A. Luftdruck Regen Wind Richtung Richtung Sonnenschein ET UV Solar Taupunkt Windben
09.08.2016 00:00 16,3 C 16,5 C 80 % 1018,3 hPa 0,0 mm 0,0 km/h (0 Bft) O-SO 123 0 min 0,000 mm 0,0 UV-I 0 W/m 12,8 C 0,0 km/h (0 Bft)
09.08.2016 00:01 16,3 C 16,3 C 80 % 1018,3 hPa 0,0 mm 0,0 km/h (0 Bft) O-SO 123 0 min 0,000 mm 0,0 UV-I 0 W/m 12,8 C 0,0 km/h (0 Bft)
09.08.2016 00:02 16,2 C 16,3 C 80 % 1018,3 hPa 0,0 mm 0,0 km/h (0 Bft) O-SO 123 0 min 0,000 mm 0,0 UV-I 0 W/m 12,7 C 0,0 km/h (0 Bft)
09.08.2016 00:03 16,1 C 16,2 C 81 % 1018,3 hPa 0,0 mm 0,3 km/h (0 Bft) O-SO 123 0 min 0,000 mm 0,0 UV-I 0 W/m 12,8 C 1,6 km/h (1 Bft)
09.08.2016 00:04 16,0 C 16,1 C 81 % 1018,3 hPa 0,0 mm 1,9 km/h (1 Bft) O-SO 123 0 min 0,000 mm 0,0 UV-I 0 W/m 12,7 C 3,2 km/h (1 Bft)
09.08.2016 00:05 15,9 C 16,0 C 81 % 1018,3 hPa 0,0 mm 1,5 km/h (1 Bft) O-SO 123 0 min 0,000 mm 0,0 UV-I 0 W/m 12,6 C 3,2 km/h (1 Bft)
09.08.2016 00:06 15,9 C 15,9 C 81 % 1018,3 hPa 0,0 mm 1,3 km/h (1 Bft) O-SO 123 0 min 0,000 mm 0,0 UV-I 0 W/m 12,6 C 3,2 km/h (1 Bft)
09.08.2016 00:07 16,0 C 16,0 C 81 % 1018,3 hPa 0,0 mm 2,3 km/h (1 Bft) S-SO 150 0 min 0,000 mm 0,0 UV-I 0 W/m 12,7 C 4,8 km/h (1 Bft)
09.08.2016 00:08 16,0 C 16,0 C 80 % 1018,3 hPa 0,0 mm 2,5 km/h (1 Bft) S-SO 150 0 min 0,000 mm 0,0 UV-I 0 W/m 12,5 C 3,2 km/h (1 Bft)
09.08.2016 00:09 15,9 C 16,0 C 80 % 1018,4 hPa 0,0 mm 1,2 km/h (1 Bft) S-SO 150 0 min 0,000 mm 0,0 UV-I 0 W/m 12,5 C 3,2 km/h (1 Bft)
09.08.2016 00:10 15,9 C 15,9 C 80 % 1018,4 hPa 0,0 mm 0,5 km/h (0 Bft) S-SO 150 0 min 0,000 mm 0,0 UV-I 0 W/m 12,5 C 1,6 km/h (1 Bft)
09.08.2016 00:11 15,8 C 15,9 C 81 % 1018,3 hPa 0,0 mm 0,0 km/h (0 Bft) S-SO 150 0 min 0,000 mm 0,0 UV-I 0 W/m 12,5 C 0,0 km/h (0 Bft)
09.08.2016 00:12 15,7 C 15,8 C 81 % 1018,4 hPa 0,0 mm 0,0 km/h (0 Bft) S-SO 150 0 min 0,000 mm 0,0 UV-I 0 W/m 12,4 C 0,0 km/h (0 Bft)
09.08.2016 00:13 15,6 C 15,7 C 81 % 1018,4 hPa 0,0 mm 0,0 km/h (0 Bft) S-SO 150 0 min 0,000 mm 0,0 UV-I 0 W/m 12,3 C 0,0 km/h (0 Bft)
09.08.2016 00:14 15,5 C 15,6 C 82 % 1018,3 hPa 0,0 mm 0,0 km/h (0 Bft) S-SO 150 0 min 0,000 mm 0,0 UV-I 0 W/m 12,4 C 0,0 km/h (0 Bft)
09.08.2016 00:15 15,3 C 15,5 C 82 % 1018,4 hPa 0,0 mm 0,0 km/h (0 Bft) S-SO 150 0 min 0,000 mm 0,0 UV-I 0 W/m 12,2 C 0,0 km/h (0 Bft)
09.08.2016 00:16 15,2 C 15,3 C 84 % 1018,4 hPa 0,0 mm 0,0 km/h (0 Bft) S-SO 150 0 min 0,000 mm 0,0 UV-I 0 W/m 12,5 C 0,0 km/h (0 Bft)
09.08.2016 00:17 15,1 C 15,2 C 85 % 1018,4 hPa 0,0 mm 0,0 km/h (0 Bft) S-SO 150 0 min 0,000 mm 0,0 UV-I 0 W/m 12,6 C 0,0 km/h (0 Bft)
09.08.2016 00:18 15,0 C 15,1 C 85 % 1018,4 hPa 0,0 mm 0,6 km/h (0 Bft) S-SO 150 0 min 0,000 mm 0,0 UV-I 0 W/m 12,5 C 1,6 km/h (1 Bft)
09.08.2016 00:19 14,9 C 15,0 C 85 % 1018,4 hPa 0,0 mm 1,1 km/h (1 Bft) S-SO 150 0 min 0,000 mm 0,0 UV-I 0 W/m 12,4 C 1,6 km/h (1 Bft)
09.08.2016 00:20 14,9 C 14,9 C 85 % 1018,4 hPa 0,0 mm 0,6 km/h (0 Bft) S-SO 150 0 min 0,000 mm 0,0 UV-I 0 W/m 12,4 C 1,6 km/h (1 Bft)
09.08.2016 00:21 14,9 C 14,9 C 84 % 1018,4 hPa 0,0 mm 0,0 km/h (0 Bft) S-SO 150 0 min 0,000 mm 0,0 UV-I 0 W/m 12,2 C 0,0 km/h (0 Bft)
09.08.2016 00:22 14,9 C 14,9 C 85 % 1018,4 hPa 0,0 mm 0,0 km/h (0 Bft) S-SO 150 0 min 0,000 mm 0,0 UV-I 0 W/m 12,4 C 0,0 km/h (0 Bft)
09.08.2016 00:23 14,8 C 14,9 C 86 % 1018,4 hPa 0,0 mm 0,2 km/h (0 Bft) S-SO 150 0 min 0,000 mm 0,0 UV-I 0 W/m 12,5 C 1,6 km/h (1 Bft)
09.08.2016 00:24 14,8 C 14,8 C 86 % 1018,4 hPa 0,0 mm 0,0 km/h (0 Bft) S-SO 150 0 min 0,000 mm 0,0 UV-I 0 W/m 12,5 C 0,0 km/h (0 Bft)
09.08.2016 00:25 14,8 C 14,8 C 85 % 1018,4 hPa 0,0 mm 0,0 km/h (0 Bft) S-SO 150 0 min 0,000 mm 0,0 UV-I 0 W/m 12,3 C 0,0 km/h (0 Bft)
09.08.2016 00:26 14,8 C 14,8 C 85 % 1018,4 hPa 0,0 mm 0,1 km/h (0 Bft) S-SO 150 0 min 0,000 mm 0,0 UV-I 0 W/m 12,3 C 1,6 km/h (1 Bft)
09.08.2016 00:27 14,9 C 14,9 C 85 % 1018,4 hPa 0,0 mm 0,0 km/h (0 Bft) S-SO 150 0 min 0,000 mm 0,0 UV-I 0 W/m 12,4 C 0,0 km/h (0 Bft)
09.08.2016 00:28 14,9 C 14,9 C 86 % 1018,4 hPa 0,0 mm 0,1 km/h (0 Bft) S-SO 150 0 min 0,000 mm 0,0 UV-I 0 W/m 12,6 C 1,6 km/h (1 Bft)
09.08.2016 00:29 14,9 C 14,9 C 86 % 1018,4 hPa 0,0 mm 0,0 km/h (0 Bft) S-SO 150 0 min 0,000 mm 0,0 UV-I 0 W/m 12,6 C 0,0 km/h (0 Bft)
09.08.2016 00:30 14,9 C 14,9 C 85 % 1018,4 hPa 0,0 mm 0,0 km/h (0 Bft) S-SO 150 0 min 0,000 mm 0,0 UV-I 0 W/m 12,4 C 0,0 km/h (0 Bft)
09.08.2016 00:31 14,9 C 14,9 C 85 % 1018,4 hPa 0,0 mm 0,1 km/h (0 Bft) S-SO 150 0 min 0,000 mm 0,0 UV-I 0 W/m 12,4 C 1,6 km/h (1 Bft)
09.08.2016 00:32 14,9 C 14,9 C 85 % 1018,5 hPa 0,0 mm 0,9 km/h (0 Bft) S-SO 150 0 min 0,000 mm 0,0 UV-I 0 W/m 12,4 C 1,6 km/h (1 Bft)
09.08.2016 00:33 14,8 C 14,9 C 84 % 1018,5 hPa 0,0 mm 2,2 km/h (1 Bft) S-SO 157 0 min 0,000 mm 0,0 UV-I 0 W/m 12,1 C 4,8 km/h (1 Bft)
09.08.2016 00:34 14,8 C 14,8 C 85 % 1018,5 hPa 0,0 mm 0,7 km/h (0 Bft) S-SO 157 0 min 0,000 mm 0,0 UV-I 0 W/m 12,3 C 3,2 km/h (1 Bft)
09.08.2016 00:35 14,8 C 14,8 C 84 % 1018,5 hPa 0,0 mm 0,1 km/h (0 Bft) S-SO 157 0 min 0,000 mm 0,0 UV-I 0 W/m 12,1 C 1,6 km/h (1 Bft)
09.08.2016 00:36 14,7 C 14,8 C 85 % 1018,5 hPa 0,0 mm 2,7 km/h (1 Bft) NW 307 0 min 0,000 mm 0,0 UV-I 0 W/m 12,2 C 4,8 km/h (1 Bft)
09.08.2016 00:37 14,6 C 14,7 C 85 % 1018,5 hPa 0,0 mm 0,9 km/h (0 Bft) NW 307 0 min 0,000 mm 0,0 UV-I 0 W/m 12,1 C 1,6 km/h (1 Bft)
09.08.2016 00:38 14,6 C 14,6 C 85 % 1018,5 hPa 0,0 mm 1,9 km/h (1 Bft) S-SW 198 0 min 0,000 mm 0,0 UV-I 0 W/m 12,1 C 3,2 km/h (1 Bft)
09.08.2016 00:39 14,6 C 14,6 C 86 % 1018,5 hPa 0,0 mm 1,7 km/h (1 Bft) S-SW 198 0 min 0,000 mm 0,0 UV-I 0 W/m 12,3 C 3,2 km/h (1 Bft)
09.08.2016 00:40 14,6 C 14,6 C 85 % 1018,5 hPa 0,0 mm 0,8 km/h (0 Bft) S-SW 198 0 min 0,000 mm 0,0 UV-I 0 W/m 12,1 C 1,6 km/h (1 Bft)
09.08.2016 00:41 14,7 C 14,7 C 85 % 1018,5 hPa 0,0 mm 0,0 km/h (0 Bft) S-SW 198 0 min 0,000 mm 0,0 UV-I 0 W/m 12,2 C 0,0 km/h (0 Bft)
09.08.2016 00:42 14,7 C 14,7 C 86 % 1018,6 hPa 0,0 mm 0,0 km/h (0 Bft) S-SW 198 0 min 0,000 mm 0,0 UV-I 0 W/m 12,4 C 0,0 km/h (0 Bft)
09.08.2016 00:43 14,7 C 14,7 C 85 % 1018,5 hPa 0,0 mm 0,0 km/h (0 Bft) S-SW 198 0 min 0,000 mm 0,0 UV-I 0 W/m 12,2 C 0,0 km/h (0 Bft)
09.08.2016 00:44 14,7 C 14,7 C 86 % 1018,6 hPa 0,0 mm 0,0 km/h (0 Bft) S-SW 198 0 min 0,000 mm 0,0 UV-I 0 W/m 12,4 C 0,0 km/h (0 Bft)
09.08.2016 00:45 14,7 C 14,7 C 86 % 1018,5 hPa 0,0 mm 0,0 km/h (0 Bft) S-SW 198 0 min 0,000 mm 0,0 UV-I 0 W/m 12,4 C 0,0 km/h (0 Bft)
09.08.2016 00:46 14,7 C 14,7 C 86 % 1018,5 hPa 0,0 mm 1,0 km/h (0 Bft) S 183 0 min 0,000 mm 0,0 UV-I 0 W/m 12,4 C 3,2 km/h (1 Bft)
09.08.2016 00:47 14,8 C 14,8 C 85 % 1018,5 hPa 0,0 mm 0,8 km/h (0 Bft) S 183 0 min 0,000 mm 0,0 UV-I 0 W/m 12,3 C 1,6 km/h (1 Bft)
09.08.2016 00:48 14,8 C 14,8 C 85 % 1018,5 hPa 0,0 mm 2,5 km/h (1 Bft) S 183 0 min 0,000 mm 0,0 UV-I 0 W/m 12,3 C 3,2 km/h (1 Bft)
09.08.2016 00:49 14,8 C 14,8 C 85 % 1018,5 hPa 0,0 mm 1,9 km/h (1 Bft) S 183 0 min 0,000 mm 0,0 UV-I 0 W/m 12,3 C 3,2 km/h (1 Bft)
09.08.2016 00:50 14,8 C 14,8 C 85 % 1018,6 hPa 0,0 mm 0,0 km/h (0 Bft) S 183 0 min 0,000 mm 0,0 UV-I 0 W/m 12,3 C 0,0 km/h (0 Bft)
09.08.2016 00:51 14,7 C 14,8 C 86 % 1018,6 hPa 0,0 mm 0,1 km/h (0 Bft) S 183 0 min 0,000 mm 0,0 UV-I 0 W/m 12,4 C 1,6 km/h (1 Bft)
09.08.2016 00:52 14,7 C 14,7 C 85 % 1018,6 hPa 0,0 mm 1,3 km/h (1 Bft) S 183 0 min 0,000 mm 0,0 UV-I 0 W/m 12,2 C 1,6 km/h (1 Bft)
09.08.2016 00:53 14,6 C 14,7 C 86 % 1018,6 hPa 0,0 mm 0,3 km/h (0 Bft) S 183 0 min 0,000 mm 0,0 UV-I 0 W/m 12,3 C 1,6 km/h (1 Bft)
09.08.2016 00:54 14,4 C 14,6 C 86 % 1018,6 hPa 0,0 mm 0,5 km/h (0 Bft) S 183 0 min 0,000 mm 0,0 UV-I 0 W/m 12,1 C 1,6 km/h (1 Bft)
09.08.2016 00:55 14,4 C 14,4 C 87 % 1018,6 hPa 0,0 mm 0,2 km/h (0 Bft) S 183 0 min 0,000 mm 0,0 UV-I 0 W/m 12,3 C 1,6 km/h (1 Bft)
09.08.2016 00:56 14,4 C 14,4 C 87 % 1018,6 hPa 0,0 mm 0,0 km/h (0 Bft) S 183 0 min 0,000 mm 0,0 UV-I 0 W/m 12,3 C 0,0 km/h (0 Bft)
09.08.2016 00:57 14,4 C 14,4 C 87 % 1018,6 hPa 0,0 mm 0,0 km/h (0 Bft) S 183 0 min 0,000 mm 0,0 UV-I 0 W/m 12,3 C 0,0 km/h (0 Bft)
09.08.2016 00:58 14,4 C 14,4 C 87 % 1018,6 hPa 0,0 mm 0,0 km/h (0 Bft) S 184 0 min 0,000 mm 0,0 UV-I 0 W/m 12,3 C 0,0 km/h (0 Bft)
09.08.2016 00:59 14,4 C 14,4 C 87 % 1018,6 hPa 0,0 mm 0,0 km/h (0 Bft) S 183 0 min 0,000 mm 0,0 UV-I 0 W/m 12,3 C 0,0 km/h (0 Bft)
09.08.2016 01:00 14,3 C 14,4 C 88 % 1018,7 hPa 0,0 mm 0,0 km/h (0 Bft) S 183 0 min 0,000 mm 0,0 UV-I 0 W/m 12,3 C 0,0 km/h (0 Bft)
09.08.2016 01:01 14,3 C 14,3 C 88 % 1018,7 hPa 0,0 mm 0,0 km/h (0 Bft) S 183 0 min 0,025 mm 0,0 UV-I 0 W/m 12,3 C 0,0 km/h (0 Bft)
09.08.2016 01:02 14,3 C 14,3 C 88 % 1018,6 hPa 0,0 mm 0,0 km/h (0 Bft) S 183 0 min 0,000 mm 0,0 UV-I 0 W/m 12,3 C 0,0 km/h (0 Bft)
09.08.2016 01:03 14,3 C 14,3 C 88 % 1018,6 hPa 0,0 mm 0,0 km/h (0 Bft) S 183 0 min 0,000 mm 0,0 UV-I 0 W/m 12,3 C 0,0 km/h (0 Bft)
09.08.2016 01:04 14,3 C 14,3 C 88 % 1018,6 hPa 0,0 mm 0,0 km/h (0 Bft) S 183 0 min 0,000 mm 0,0 UV-I 0 W/m 12,3 C 0,0 km/h (0 Bft)
09.08.2016 01:05 14,3 C 14,3 C 88 % 1018,6 hPa 0,0 mm 0,0 km/h (0 Bft) S 183 0 min 0,000 mm 0,0 UV-I 0 W/m 12,3 C 0,0 km/h (0 Bft)
09.08.2016 01:06 14,3 C 14,3 C 88 % 1018,6 hPa 0,0 mm 0,0 km/h (0 Bft) S 183 0 min 0,000 mm 0,0 UV-I 0 W/m 12,3 C 0,0 km/h (0 Bft)
09.08.2016 01:07 14,3 C 14,3 C 88 % 1018,5 hPa 0,0 mm 0,0 km/h (0 Bft) S 183 0 min 0,000 mm 0,0 UV-I 0 W/m 12,3 C 0,0 km/h (0 Bft)
09.08.2016 01:08 14,4 C 14,4 C 88 % 1018,5 hPa 0,0 mm 0,0 km/h (0 Bft) S 183 0 min 0,000 mm 0,0 UV-I 0 W/m 12,4 C 0,0 km/h (0 Bft)
09.08.2016 01:09 14,4 C 14,5 C 88 % 1018,5 hPa 0,0 mm 0,0 km/h (0 Bft) S 183 0 min 0,000 mm 0,0 UV-I 0 W/m 12,4 C 0,0 km/h (0 Bft)
09.08.2016 01:10 14,4 C 14,5 C 88 % 1018,5 hPa 0,0 mm 0,0 km/h (0 Bft) S 183 0 min 0,000 mm 0,0 UV-I 0 W/m 12,4 C 0,0 km/h (0 Bft)
09.08.2016 01:11 14,5 C 14,5 C 88 % 1018,5 hPa 0,0 mm 0,0 km/h (0 Bft) S 183 0 min 0,000 mm 0,0 UV-I 0 W/m 12,5 C 0,0 km/h (0 Bft)
09.08.2016 01:12 14,6 C 14,6 C 88 % 1018,5 hPa 0,0 mm 0,3 km/h (0 Bft) S 183 0 min 0,000 mm 0,0 UV-I 0 W/m 12,6 C 1,6 km/h (1 Bft)
09.08.2016 01:13 14,7 C 14,7 C 88 % 1018,5 hPa 0,0 mm 0,1 km/h (0 Bft) S 183 0 min 0,000 mm 0,0 UV-I 0 W/m 12,7 C 1,6 km/h (1 Bft)
09.08.2016 01:14 14,8 C 14,8 C 88 % 1018,5 hPa 0,0 mm 0,0 km/h (0 Bft) S 183 0 min 0,000 mm 0,0 UV-I 0 W/m 12,8 C 0,0 km/h (0 Bft)
09.08.2016 01:15 14,8 C 14,8 C 88 % 1018,5 hPa 0,0 mm 0,0 km/h (0 Bft) S 183 0 min 0,000 mm 0,0 UV-I 0 W/m 12,8 C 0,0 km/h (0 Bft)
09.08.2016 01:16 14,9 C 14,9 C 88 % 1018,5 hPa 0,0 mm 0,4 km/h (0 Bft) S 183 0 min 0,000 mm 0,0 UV-I 0 W/m 12,9 C 1,6 km/h (1 Bft)
09.08.2016 01:17 14,9 C 14,9 C 87 % 1018,5 hPa 0,0 mm 2,3 km/h (1 Bft) S 183 0 min 0,000 mm 0,0 UV-I 0 W/m 12,8 C 3,2 km/h (1 Bft)
09.08.2016 01:18 15,1 C 15,1 C 86 % 1018,5 hPa 0,0 mm 3,6 km/h (1 Bft) S 183 0 min 0,000 mm 0,0 UV-I 0 W/m 12,8 C 4,8 km/h (1 Bft)
09.08.2016 01:19 15,2 C 15,2 C 87 % 1018,5 hPa 0,0 mm 3,1 km/h (1 Bft) S 183 0 min 0,000 mm 0,0 UV-I 0 W/m 13,0 C 4,8 km/h (1 Bft)
09.08.2016 01:20 15,2 C 15,2 C 86 % 1018,5 hPa 0,0 mm 2,3 km/h (1 Bft) S 183 0 min 0,000 mm 0,0 UV-I 0 W/m 12,9 C 4,8 km/h (1 Bft)
09.08.2016 01:21 15,3 C 15,3 C 86 % 1018,5 hPa 0,0 mm 1,2 km/h (1 Bft) S 183 0 min 0,000 mm 0,0 UV-I 0 W/m 13,0 C 3,2 km/h (1 Bft)
09.08.2016 01:22 15,3 C 15,3 C 86 % 1018,5 hPa 0,0 mm 0,7 km/h (0 Bft) S 183 0 min 0,000 mm 0,0 UV-I 0 W/m 13,0 C 1,6 km/h (1 Bft)
09.08.2016 01:23 15,3 C 15,4 C 87 % 1018,5 hPa 0,0 mm 1,7 km/h (1 Bft) S-SW 207 0 min 0,000 mm 0,0 UV-I 0 W/m 13,1 C 3,2 km/h (1 Bft)
09.08.2016 01:24 15,3 C 15,3 C 86 % 1018,5 hPa 0,0 mm 1,8 km/h (1 Bft) S-SW 207 0 min 0,000 mm 0,0 UV-I 0 W/m 13,0 C 3,2 km/h (1 Bft)
09.08.2016 01:25 15,2 C 15,3 C 86 % 1018,5 hPa 0,0 mm 0,0 km/h (0 Bft) S-SW 207 0 min 0,000 mm 0,0 UV-I 0 W/m 12,9 C 0,0 km/h (0 Bft)
09.08.2016 01:26 15,1 C 15,2 C 86 % 1018,5 hPa 0,0 mm 0,0 km/h (0 Bft) S-SW 207 0 min 0,000 mm 0,0 UV-I 0 W/m 12,8 C 0,0 km/h (0 Bft)
09.08.2016 01:27 15,1 C 15,1 C 86 % 1018,5 hPa 0,0 mm 0,0 km/h (0 Bft) S-SW 207 0 min 0,000 mm 0,0 UV-I 0 W/m 12,8 C 0,0 km/h (0 Bft)
09.08.2016 01:28 15,1 C 15,1 C 87 % 1018,5 hPa 0,0 mm 0,0 km/h (0 Bft) S-SW 207 0 min 0,000 mm 0,0 UV-I 0 W/m 13,0 C 0,0 km/h (0 Bft)
09.08.2016 01:29 15,1 C 15,1 C 87 % 1018,5 hPa 0,0 mm 0,0 km/h (0 Bft) S-SW 207 0 min 0,000 mm 0,0 UV-I 0 W/m 13,0 C 0,0 km/h (0 Bft)
09.08.2016 01:30 15,1 C 15,1 C 87 % 1018,5 hPa 0,0 mm 0,0 km/h (0 Bft) S-SW 207 0 min 0,000 mm 0,0 UV-I 0 W/m 13,0 C 0,0 km/h (0 Bft)
09.08.2016 01:31 15,2 C 15,2 C 88 % 1018,5 hPa 0,0 mm 0,5 km/h (0 Bft) S-SW 207 0 min 0,000 mm 0,0 UV-I 0 W/m 13,2 C 1,6 km/h (1 Bft)
09.08.2016 01:32 15,2 C 15,2 C 87 % 1018,6 hPa 0,0 mm 1,1 km/h (1 Bft) S-SW 207 0 min 0,000 mm 0,0 UV-I 0 W/m 13,0 C 1,6 km/h (1 Bft)
09.08.2016 01:33 15,1 C 15,2 C 87 % 1018,6 hPa 0,0 mm 1,4 km/h (1 Bft) S-SW 207 0 min 0,000 mm 0,0 UV-I 0 W/m 13,0 C 3,2 km/h (1 Bft)
09.08.2016 01:34 15,0 C 15,1 C 87 % 1018,6 hPa 0,0 mm 1,4 km/h (1 Bft) S-SW 207 0 min 0,000 mm 0,0 UV-I 0 W/m 12,9 C 3,2 km/h (1 Bft)
09.08.2016 01:35 14,9 C 15,0 C 87 % 1018,6 hPa 0,0 mm 0,0 km/h (0 Bft) S-SW 207 0 min 0,000 mm 0,0 UV-I 0 W/m 12,8 C 0,0 km/h (0 Bft)
09.08.2016 01:36 14,8 C 14,9 C 88 % 1018,6 hPa 0,0 mm 0,0 km/h (0 Bft) S-SW 207 0 min 0,000 mm 0,0 UV-I 0 W/m 12,8 C 0,0 km/h (0 Bft)
09.08.2016 01:37 14,8 C 14,8 C 88 % 1018,6 hPa 0,0 mm 0,2 km/h (0 Bft) S-SW 207 0 min 0,000 mm 0,0 UV-I 0 W/m 12,8 C 1,6 km/h (1 Bft)
09.08.2016 01:38 14,7 C 14,8 C 88 % 1018,6 hPa 0,0 mm 0,0 km/h (0 Bft) S-SW 207 0 min 0,000 mm 0,0 UV-I 0 W/m 12,7 C 0,0 km/h (0 Bft)
09.08.2016 01:39 14,7 C 14,7 C 88 % 1018,6 hPa 0,0 mm 0,8 km/h (0 Bft) S-SW 207 0 min 0,000 mm 0,0 UV-I 0 W/m 12,7 C 1,6 km/h (1 Bft)
09.08.2016 01:40 14,7 C 14,7 C 89 % 1018,6 hPa 0,0 mm 0,7 km/h (0 Bft) S-SW 207 0 min 0,000 mm 0,0 UV-I 0 W/m 12,9 C 1,6 km/h (1 Bft)
09.08.2016 01:41 14,7 C 14,7 C 89 % 1018,6 hPa 0,0 mm 0,9 km/h (0 Bft) S-SW 207 0 min 0,000 mm 0,0 UV-I 0 W/m 12,9 C 1,6 km/h (1 Bft)
09.08.2016 01:42 14,7 C 14,7 C 89 % 1018,6 hPa 0,0 mm 0,1 km/h (0 Bft) S-SW 207 0 min 0,000 mm 0,0 UV-I 0 W/m 12,9 C 1,6 km/h (1 Bft)
09.08.2016 01:43 14,7 C 14,7 C 89 % 1018,5 hPa 0,0 mm 0,0 km/h (0 Bft) S-SW 207 0 min 0,000 mm 0,0 UV-I 0 W/m 12,9 C 0,0 km/h (0 Bft)
09.08.2016 01:44 14,7 C 14,7 C 89 % 1018,5 hPa 0,0 mm 0,0 km/h (0 Bft) S-SW 207 0 min 0,000 mm 0,0 UV-I 0 W/m 12,9 C 0,0 km/h (0 Bft)
09.08.2016 01:45 14,8 C 14,8 C 89 % 1018,5 hPa 0,0 mm 0,0 km/h (0 Bft) S-SW 207 0 min 0,000 mm 0,0 UV-I 0 W/m 13,0 C 0,0 km/h (0 Bft)
09.08.2016 01:46 14,8 C 14,8 C 89 % 1018,5 hPa 0,0 mm 0,0 km/h (0 Bft) S-SW 207 0 min 0,000 mm 0,0 UV-I 0 W/m 13,0 C 0,0 km/h (0 Bft)
09.08.2016 01:47 14,8 C 14,8 C 90 % 1018,5 hPa 0,0 mm 0,0 km/h (0 Bft) S-SW 207 0 min 0,000 mm 0,0 UV-I 0 W/m 13,2 C 0,0 km/h (0 Bft)
09.08.2016 01:48 14,8 C 14,8 C 89 % 1018,5 hPa 0,0 mm 0,0 km/h (0 Bft) S-SW 207 0 min 0,000 mm 0,0 UV-I 0 W/m 13,0 C 0,0 km/h (0 Bft)
09.08.2016 01:49 14,9 C 14,9 C 89 % 1018,5 hPa 0,0 mm 0,0 km/h (0 Bft) S-SW 207 0 min 0,000 mm 0,0 UV-I 0 W/m 13,1 C 0,0 km/h (0 Bft)
09.08.2016 01:50 14,9 C 14,9 C 89 % 1018,5 hPa 0,0 mm 0,0 km/h (0 Bft) S-SW 207 0 min 0,000 mm 0,0 UV-I 0 W/m 13,1 C 0,0 km/h (0 Bft)
09.08.2016 01:51 14,9 C 14,9 C 89 % 1018,5 hPa 0,0 mm 0,0 km/h (0 Bft) S-SW 207 0 min 0,000 mm 0,0 UV-I 0 W/m 13,1 C 0,0 km/h (0 Bft)
09.08.2016 01:52 14,9 C 14,9 C 90 % 1018,5 hPa 0,0 mm 0,0 km/h (0 Bft) S-SW 207 0 min 0,000 mm 0,0 UV-I 0 W/m 13,3 C 0,0 km/h (0 Bft)
09.08.2016 01:53 14,9 C 15,0 C 90 % 1018,5 hPa 0,0 mm 0,0 km/h (0 Bft) S-SW 207 0 min 0,000 mm 0,0 UV-I 0 W/m 13,3 C 0,0 km/h (0 Bft)
09.08.2016 01:54 15,0 C 15,0 C 90 % 1018,5 hPa 0,0 mm 0,0 km/h (0 Bft) S-SW 207 0 min 0,000 mm 0,0 UV-I 0 W/m 13,4 C 0,0 km/h (0 Bft)
09.08.2016 01:55 15,0 C 15,0 C 90 % 1018,5 hPa 0,0 mm 0,0 km/h (0 Bft) S-SW 207 0 min 0,000 mm 0,0 UV-I 0 W/m 13,4 C 0,0 km/h (0 Bft)
09.08.2016 01:56 15,1 C 15,1 C 89 % 1018,6 hPa 0,0 mm 0,0 km/h (0 Bft) S-SW 207 0 min 0,000 mm 0,0 UV-I 0 W/m 13,3 C 0,0 km/h (0 Bft)
09.08.2016 01:57 15,1 C 15,1 C 89 % 1018,5 hPa 0,0 mm 0,0 km/h (0 Bft) S-SW 207 0 min 0,000 mm 0,0 UV-I 0 W/m 13,3 C 0,0 km/h (0 Bft)
09.08.2016 01:58 15,1 C 15,1 C 89 % 1018,5 hPa 0,0 mm 0,0 km/h (0 Bft) S-SW 207 0 min 0,000 mm 0,0 UV-I 0 W/m 13,3 C 0,0 km/h (0 Bft)
09.08.2016 01:59 15,1 C 15,1 C 89 % 1018,5 hPa 0,0 mm 0,8 km/h (0 Bft) S-SW 207 0 min 0,000 mm 0,0 UV-I 0 W/m 13,3 C 1,6 km/h (1 Bft)
09.08.2016 02:00 15,2 C 15,2 C 89 % 1018,5 hPa 0,0 mm 0,4 km/h (0 Bft) S-SW 207 0 min 0,000 mm 0,0 UV-I 0 W/m 13,4 C 3,2 km/h (1 Bft)
09.08.2016 02:01 15,3 C 15,3 C 88 % 1018,5 hPa 0,0 mm 0,3 km/h (0 Bft) S-SW 207 0 min 0,000 mm 0,0 UV-I 0 W/m 13,3 C 3,2 km/h (1 Bft)
09.08.2016 02:02 15,4 C 15,4 C 88 % 1018,5 hPa 0,0 mm 0,1 km/h (0 Bft) S-SW 207 0 min 0,000 mm 0,0 UV-I 0 W/m 13,4 C 1,6 km/h (1 Bft)
09.08.2016 02:03 15,5 C 15,5 C 88 % 1018,5 hPa 0,0 mm 0,1 km/h (0 Bft) S-SW 207 0 min 0,000 mm 0,0 UV-I 0 W/m 13,5 C 1,6 km/h (1 Bft)
09.08.2016 02:04 15,4 C 15,5 C 88 % 1018,5 hPa 0,0 mm 0,7 km/h (0 Bft) S-SW 207 0 min 0,000 mm 0,0 UV-I 0 W/m 13,4 C 1,6 km/h (1 Bft)
09.08.2016 02:05 15,4 C 15,4 C 88 % 1018,5 hPa 0,0 mm 0,0 km/h (0 Bft) S-SW 207 0 min 0,000 mm 0,0 UV-I 0 W/m 13,4 C 0,0 km/h (0 Bft)
09.08.2016 02:06 15,4 C 15,4 C 88 % 1018,5 hPa 0,0 mm 0,0 km/h (0 Bft) S-SW 207 0 min 0,000 mm 0,0 UV-I 0 W/m 13,4 C 0,0 km/h (0 Bft)
09.08.2016 02:07 15,4 C 15,4 C 87 % 1018,5 hPa 0,0 mm 0,0 km/h (0 Bft) S-SW 207 0 min 0,000 mm 0,0 UV-I 0 W/m 13,2 C 0,0 km/h (0 Bft)
09.08.2016 02:08 15,4 C 15,4 C 89 % 1018,4 hPa 0,0 mm 1,1 km/h (1 Bft) S-SW 209 0 min 0,000 mm 0,0 UV-I 0 W/m 13,6 C 3,2 km/h (1 Bft)
09.08.2016 02:09 15,3 C 15,4 C 89 % 1018,4 hPa 0,0 mm 1,5 km/h (1 Bft) S-SW 209 0 min 0,000 mm 0,0 UV-I 0 W/m 13,5 C 3,2 km/h (1 Bft)
09.08.2016 02:10 15,3 C 15,3 C 89 % 1018,4 hPa 0,0 mm 0,7 km/h (0 Bft) S-SW 209 0 min 0,000 mm 0,0 UV-I 0 W/m 13,5 C 1,6 km/h (1 Bft)
09.08.2016 02:11 15,2 C 15,3 C 89 % 1018,4 hPa 0,0 mm 1,0 km/h (0 Bft) S-SW 209 0 min 0,000 mm 0,0 UV-I 0 W/m 13,4 C 1,6 km/h (1 Bft)
09.08.2016 02:12 15,2 C 15,2 C 89 % 1018,4 hPa 0,0 mm 0,0 km/h (0 Bft) S-SW 209 0 min 0,000 mm 0,0 UV-I 0 W/m 13,4 C 0,0 km/h (0 Bft)
09.08.2016 02:13 15,1 C 15,2 C 88 % 1018,4 hPa 0,0 mm 0,0 km/h (0 Bft) S-SW 209 0 min 0,000 mm 0,0 UV-I 0 W/m 13,1 C 0,0 km/h (0 Bft)
09.08.2016 02:14 15,1 C 15,1 C 89 % 1018,5 hPa 0,0 mm 0,6 km/h (0 Bft) S-SW 209 0 min 0,000 mm 0,0 UV-I 0 W/m 13,3 C 1,6 km/h (1 Bft)
09.08.2016 02:15 15,1 C 15,1 C 89 % 1018,3 hPa 0,0 mm 1,1 km/h (1 Bft) S-SW 209 0 min 0,000 mm 0,0 UV-I 0 W/m 13,3 C 1,6 km/h (1 Bft)
09.08.2016 02:16 15,1 C 15,1 C 89 % 1018,3 hPa 0,0 mm 0,7 km/h (0 Bft) S-SW 209 0 min 0,000 mm 0,0 UV-I 0 W/m 13,3 C 1,6 km/h (1 Bft)
09.08.2016 02:17 15,1 C 15,1 C 90 % 1018,4 hPa 0,0 mm 0,2 km/h (0 Bft) S-SW 209 0 min 0,000 mm 0,0 UV-I 0 W/m 13,5 C 1,6 km/h (1 Bft)
09.08.2016 02:18 15,1 C 15,1 C 90 % 1018,3 hPa 0,0 mm 0,0 km/h (0 Bft) S-SW 209 0 min 0,000 mm 0,0 UV-I 0 W/m 13,5 C 0,0 km/h (0 Bft)
09.08.2016 02:19 15,1 C 15,1 C 90 % 1018,3 hPa 0,0 mm 0,0 km/h (0 Bft) S-SW 209 0 min 0,000 mm 0,0 UV-I 0 W/m 13,5 C 0,0 km/h (0 Bft)
09.08.2016 02:20 15,2 C 15,2 C 89 % 1018,3 hPa 0,0 mm 0,0 km/h (0 Bft) S-SW 209 0 min 0,000 mm 0,0 UV-I 0 W/m 13,4 C 0,0 km/h (0 Bft)
09.08.2016 02:21 15,3 C 15,3 C 89 % 1018,3 hPa 0,0 mm 1,1 km/h (1 Bft) S-SW 209 0 min 0,000 mm 0,0 UV-I 0 W/m 13,5 C 3,2 km/h (1 Bft)
09.08.2016 02:22 15,4 C 15,4 C 89 % 1018,3 hPa 0,0 mm 1,5 km/h (1 Bft) S-SW 208 0 min 0,000 mm 0,0 UV-I 0 W/m 13,6 C 3,2 km/h (1 Bft)
09.08.2016 02:23 15,5 C 15,5 C 89 % 1018,3 hPa 0,0 mm 0,7 km/h (0 Bft) S-SW 208 0 min 0,000 mm 0,0 UV-I 0 W/m 13,7 C 1,6 km/h (1 Bft)
09.08.2016 02:24 15,6 C 15,6 C 88 % 1018,3 hPa 0,0 mm 0,2 km/h (0 Bft) S-SW 208 0 min 0,000 mm 0,0 UV-I 0 W/m 13,6 C 1,6 km/h (1 Bft)
09.08.2016 02:25 15,7 C 15,7 C 88 % 1018,3 hPa 0,0 mm 0,7 km/h (0 Bft) S-SW 208 0 min 0,000 mm 0,0 UV-I 0 W/m 13,7 C 1,6 km/h (1 Bft)
09.08.2016 02:26 15,8 C 15,8 C 87 % 1018,2 hPa 0,0 mm 1,2 km/h (1 Bft) S-SW 208 0 min 0,000 mm 0,0 UV-I 0 W/m 13,6 C 1,6 km/h (1 Bft)
09.08.2016 02:27 15,8 C 15,8 C 87 % 1018,2 hPa 0,0 mm 1,5 km/h (1 Bft) S-SW 208 0 min 0,000 mm 0,0 UV-I 0 W/m 13,6 C 3,2 km/h (1 Bft)
09.08.2016 02:28 15,9 C 15,9 C 87 % 1018,3 hPa 0,0 mm 2,2 km/h (1 Bft) S-SW 206 0 min 0,000 mm 0,0 UV-I 0 W/m 13,7 C 3,2 km/h (1 Bft)
09.08.2016 02:29 16,1 C 16,1 C 86 % 1018,2 hPa 0,0 mm 1,7 km/h (1 Bft) S-SW 206 0 min 0,000 mm 0,0 UV-I 0 W/m 13,8 C 3,2 km/h (1 Bft)
09.08.2016 02:30 16,1 C 16,1 C 86 % 1018,2 hPa 0,0 mm 1,8 km/h (1 Bft) S-SW 206 0 min 0,000 mm 0,0 UV-I 0 W/m 13,8 C 3,2 km/h (1 Bft)
09.08.2016 02:31 16,2 C 16,2 C 86 % 1018,2 hPa 0,0 mm 2,3 km/h (1 Bft) S-SW 198 0 min 0,000 mm 0,0 UV-I 0 W/m 13,9 C 3,2 km/h (1 Bft)
09.08.2016 02:32 16,3 C 16,3 C 85 % 1018,2 hPa 0,0 mm 1,9 km/h (1 Bft) SW 236 0 min 0,000 mm 0,0 UV-I 0 W/m 13,8 C 3,2 km/h (1 Bft)
09.08.2016 02:33 16,4 C 16,4 C 85 % 1018,2 hPa 0,0 mm 1,9 km/h (1 Bft) SW 236 0 min 0,000 mm 0,0 UV-I 0 W/m 13,9 C 3,2 km/h (1 Bft)
09.08.2016 02:34 16,4 C 16,4 C 85 % 1018,1 hPa 0,0 mm 0,9 km/h (0 Bft) SW 236 0 min 0,000 mm 0,0 UV-I 0 W/m 13,9 C 1,6 km/h (1 Bft)
09.08.2016 02:35 16,4 C 16,4 C 85 % 1018,0 hPa 0,0 mm 0,4 km/h (0 Bft) SW 236 0 min 0,000 mm 0,0 UV-I 0 W/m 13,9 C 1,6 km/h (1 Bft)
09.08.2016 02:36 16,6 C 16,6 C 84 % 1018,0 hPa 0,0 mm 0,0 km/h (0 Bft) SW 236 0 min 0,000 mm 0,0 UV-I 0 W/m 13,9 C 0,0 km/h (0 Bft)
09.08.2016 02:37 16,6 C 16,6 C 85 % 1018,0 hPa 0,0 mm 0,0 km/h (0 Bft) SW 236 0 min 0,000 mm 0,0 UV-I 0 W/m 14,1 C 0,0 km/h (0 Bft)
09.08.2016 02:38 16,5 C 16,6 C 85 % 1018,0 hPa 0,0 mm 0,0 km/h (0 Bft) SW 236 0 min 0,000 mm 0,0 UV-I 0 W/m 14,0 C 0,0 km/h (0 Bft)
09.08.2016 02:39 16,4 C 16,5 C 85 % 1018,0 hPa 0,0 mm 0,0 km/h (0 Bft) SW 236 0 min 0,000 mm 0,0 UV-I 0 W/m 13,9 C 0,0 km/h (0 Bft)
09.08.2016 02:40 16,3 C 16,4 C 86 % 1018,0 hPa 0,0 mm 0,0 km/h (0 Bft) SW 236 0 min 0,000 mm 0,0 UV-I 0 W/m 14,0 C 0,0 km/h (0 Bft)
09.08.2016 02:41 16,3 C 16,4 C 87 % 1018,0 hPa 0,0 mm 0,0 km/h (0 Bft) SW 236 0 min 0,000 mm 0,0 UV-I 0 W/m 14,1 C 0,0 km/h (0 Bft)
09.08.2016 02:42 16,2 C 16,3 C 87 % 1018,0 hPa 0,0 mm 0,0 km/h (0 Bft) SW 236 0 min 0,000 mm 0,0 UV-I 0 W/m 14,0 C 0,0 km/h (0 Bft)
09.08.2016 02:43 16,1 C 16,2 C 87 % 1018,0 hPa 0,0 mm 0,0 km/h (0 Bft) SW 236 0 min 0,000 mm 0,0 UV-I 0 W/m 13,9 C 0,0 km/h (0 Bft)
09.08.2016 02:44 15,9 C 16,1 C 88 % 1017,9 hPa 0,0 mm 0,0 km/h (0 Bft) SW 236 0 min 0,000 mm 0,0 UV-I 0 W/m 13,9 C 0,0 km/h (0 Bft)
09.08.2016 02:45 15,9 C 15,9 C 88 % 1018,0 hPa 0,0 mm 0,0 km/h (0 Bft) SW 236 0 min 0,000 mm 0,0 UV-I 0 W/m 13,9 C 0,0 km/h (0 Bft)
09.08.2016 02:46 15,8 C 15,9 C 88 % 1017,9 hPa 0,0 mm 0,0 km/h (0 Bft) SW 236 0 min 0,000 mm 0,0 UV-I 0 W/m 13,8 C 0,0 km/h (0 Bft)
09.08.2016 02:47 15,8 C 15,8 C 88 % 1018,0 hPa 0,0 mm 0,0 km/h (0 Bft) SW 236 0 min 0,000 mm 0,0 UV-I 0 W/m 13,8 C 0,0 km/h (0 Bft)
09.08.2016 02:48 15,8 C 15,8 C 88 % 1018,0 hPa 0,0 mm 0,0 km/h (0 Bft) SW 236 0 min 0,000 mm 0,0 UV-I 0 W/m 13,8 C 0,0 km/h (0 Bft)
09.08.2016 02:49 15,8 C 15,8 C 88 % 1017,9 hPa 0,0 mm 0,0 km/h (0 Bft) SW 236 0 min 0,000 mm 0,0 UV-I 0 W/m 13,8 C 0,0 km/h (0 Bft)
09.08.2016 02:50 15,8 C 15,8 C 88 % 1017,9 hPa 0,0 mm 0,0 km/h (0 Bft) SW 236 0 min 0,000 mm 0,0 UV-I 0 W/m 13,8 C 0,0 km/h (0 Bft)
09.08.2016 02:51 15,9 C 15,9 C 88 % 1017,9 hPa 0,0 mm 0,0 km/h (0 Bft) SW 236 0 min 0,000 mm 0,0 UV-I 0 W/m 13,9 C 0,0 km/h (0 Bft)
09.08.2016 02:52 15,9 C 15,9 C 88 % 1017,8 hPa 0,0 mm 0,0 km/h (0 Bft) SW 236 0 min 0,000 mm 0,0 UV-I 0 W/m 13,9 C 0,0 km/h (0 Bft)
09.08.2016 02:53 16,0 C 16,0 C 87 % 1017,8 hPa 0,0 mm 0,0 km/h (0 Bft) SW 236 0 min 0,000 mm 0,0 UV-I 0 W/m 13,8 C 0,0 km/h (0 Bft)
09.08.2016 02:54 16,1 C 16,1 C 87 % 1017,8 hPa 0,0 mm 0,0 km/h (0 Bft) SW 236 0 min 0,000 mm 0,0 UV-I 0 W/m 13,9 C 0,0 km/h (0 Bft)
09.08.2016 02:55 16,1 C 16,1 C 86 % 1017,8 hPa 0,0 mm 0,0 km/h (0 Bft) SW 236 0 min 0,000 mm 0,0 UV-I 0 W/m 13,8 C 0,0 km/h (0 Bft)
09.08.2016 02:56 16,1 C 16,1 C 86 % 1017,7 hPa 0,0 mm 0,0 km/h (0 Bft) SW 236 0 min 0,000 mm 0,0 UV-I 0 W/m 13,8 C 0,0 km/h (0 Bft)
09.08.2016 02:57 16,1 C 16,2 C 86 % 1017,7 hPa 0,0 mm 0,0 km/h (0 Bft) SW 236 0 min 0,000 mm 0,0 UV-I 0 W/m 13,8 C 0,0 km/h (0 Bft)
09.08.2016 02:58 16,2 C 16,2 C 86 % 1017,8 hPa 0,0 mm 0,0 km/h (0 Bft) SW 236 0 min 0,000 mm 0,0 UV-I 0 W/m 13,9 C 0,0 km/h (0 Bft)
09.08.2016 02:59 16,3 C 16,3 C 85 % 1017,8 hPa 0,0 mm 0,0 km/h (0 Bft) SW 236 0 min 0,000 mm 0,0 UV-I 0 W/m 13,8 C 0,0 km/h (0 Bft)
09.08.2016 03:00 16,2 C 16,3 C 86 % 1017,8 hPa 0,0 mm 0,0 km/h (0 Bft) SW 236 0 min 0,000 mm 0,0 UV-I 0 W/m 13,9 C 0,0 km/h (0 Bft)
09.08.2016 03:01 16,2 C 16,2 C 86 % 1017,8 hPa 0,0 mm 0,0 km/h (0 Bft) SW 236 0 min 0,000 mm 0,0 UV-I 0 W/m 13,9 C 0,0 km/h (0 Bft)
09.08.2016 03:02 16,1 C 16,2 C 86 % 1017,8 hPa 0,0 mm 0,0 km/h (0 Bft) SW 236 0 min 0,000 mm 0,0 UV-I 0 W/m 13,8 C 0,0 km/h (0 Bft)
09.08.2016 03:03 16,1 C 16,1 C 86 % 1017,8 hPa 0,0 mm 0,0 km/h (0 Bft) SW 236 0 min 0,000 mm 0,0 UV-I 0 W/m 13,8 C 0,0 km/h (0 Bft)
09.08.2016 03:04 16,1 C 16,1 C 86 % 1017,8 hPa 0,0 mm 0,0 km/h (0 Bft) SW 236 0 min 0,000 mm 0,0 UV-I 0 W/m 13,8 C 0,0 km/h (0 Bft)
09.08.2016 03:05 16,1 C 16,1 C 86 % 1017,8 hPa 0,0 mm 0,0 km/h (0 Bft) SW 236 0 min 0,000 mm 0,0 UV-I 0 W/m 13,8 C 0,0 km/h (0 Bft)
09.08.2016 03:06 16,1 C 16,1 C 86 % 1017,8 hPa 0,0 mm 0,0 km/h (0 Bft) SW 236 0 min 0,000 mm 0,0 UV-I 0 W/m 13,8 C 0,0 km/h (0 Bft)
09.08.2016 03:07 15,9 C 16,1 C 86 % 1017,8 hPa 0,0 mm 0,0 km/h (0 Bft) SW 236 0 min 0,000 mm 0,0 UV-I 0 W/m 13,6 C 0,0 km/h (0 Bft)
09.08.2016 03:08 15,9 C 16,0 C 87 % 1017,8 hPa 0,0 mm 0,0 km/h (0 Bft) SW 236 0 min 0,000 mm 0,0 UV-I 0 W/m 13,7 C 0,0 km/h (0 Bft)
09.08.2016 03:09 15,8 C 15,9 C 88 % 1017,7 hPa 0,0 mm 0,0 km/h (0 Bft) SW 236 0 min 0,000 mm 0,0 UV-I 0 W/m 13,8 C 0,0 km/h (0 Bft)
09.08.2016 03:10 15,7 C 15,8 C 88 % 1017,7 hPa 0,0 mm 0,0 km/h (0 Bft) SW 236 0 min 0,000 mm 0,0 UV-I 0 W/m 13,7 C 0,0 km/h (0 Bft)
09.08.2016 03:11 15,6 C 15,7 C 88 % 1017,7 hPa 0,0 mm 0,0 km/h (0 Bft) SW 236 0 min 0,000 mm 0,0 UV-I 0 W/m 13,6 C 0,0 km/h (0 Bft)
09.08.2016 03:12 15,5 C 15,6 C 89 % 1017,7 hPa 0,0 mm 0,0 km/h (0 Bft) SW 236 0 min 0,000 mm 0,0 UV-I 0 W/m 13,7 C 0,0 km/h (0 Bft)
09.08.2016 03:13 15,4 C 15,5 C 89 % 1017,7 hPa 0,0 mm 0,0 km/h (0 Bft) SW 236 0 min 0,000 mm 0,0 UV-I 0 W/m 13,6 C 0,0 km/h (0 Bft)
09.08.2016 03:14 15,4 C 15,4 C 89 % 1017,7 hPa 0,0 mm 0,0 km/h (0 Bft) SW 236 0 min 0,000 mm 0,0 UV-I 0 W/m 13,6 C 0,0 km/h (0 Bft)
09.08.2016 03:15 15,3 C 15,4 C 89 % 1017,7 hPa 0,0 mm 0,0 km/h (0 Bft) SW 236 0 min 0,000 mm 0,0 UV-I 0 W/m 13,5 C 0,0 km/h (0 Bft)
09.08.2016 03:16 15,3 C 15,3 C 89 % 1017,6 hPa 0,0 mm 0,0 km/h (0 Bft) SW 236 0 min 0,000 mm 0,0 UV-I 0 W/m 13,5 C 0,0 km/h (0 Bft)
09.08.2016 03:17 15,2 C 15,3 C 89 % 1017,6 hPa 0,0 mm 0,0 km/h (0 Bft) SW 236 0 min 0,000 mm 0,0 UV-I 0 W/m 13,4 C 0,0 km/h (0 Bft)
09.08.2016 03:18 15,2 C 15,2 C 88 % 1017,6 hPa 0,0 mm 0,0 km/h (0 Bft) SW 236 0 min 0,000 mm 0,0 UV-I 0 W/m 13,2 C 0,0 km/h (0 Bft)
09.08.2016 03:19 15,1 C 15,2 C 88 % 1017,7 hPa 0,0 mm 0,0 km/h (0 Bft) SW 236 0 min 0,000 mm 0,0 UV-I 0 W/m 13,1 C 0,0 km/h (0 Bft)
09.08.2016 03:20 15,1 C 15,1 C 89 % 1017,7 hPa 0,0 mm 0,0 km/h (0 Bft) SW 236 0 min 0,000 mm 0,0 UV-I 0 W/m 13,3 C 0,0 km/h (0 Bft)
09.08.2016 03:21 15,1 C 15,1 C 89 % 1017,7 hPa 0,0 mm 0,0 km/h (0 Bft) SW 236 0 min 0,000 mm 0,0 UV-I 0 W/m 13,3 C 0,0 km/h (0 Bft)
09.08.2016 03:22 15,1 C 15,1 C 89 % 1017,6 hPa 0,0 mm 0,0 km/h (0 Bft) SW 236 0 min 0,000 mm 0,0 UV-I 0 W/m 13,3 C 0,0 km/h (0 Bft)
09.08.2016 03:23 14,9 C 15,1 C 89 % 1017,6 hPa 0,0 mm 0,0 km/h (0 Bft) SW 236 0 min 0,000 mm 0,0 UV-I 0 W/m 13,1 C 0,0 km/h (0 Bft)
09.08.2016 03:24 14,9 C 14,9 C 90 % 1017,6 hPa 0,0 mm 0,0 km/h (0 Bft) SW 236 0 min 0,000 mm 0,0 UV-I 0 W/m 13,3 C 0,0 km/h (0 Bft)
09.08.2016 03:25 14,9 C 14,9 C 90 % 1017,7 hPa 0,0 mm 0,0 km/h (0 Bft) SW 236 0 min 0,000 mm 0,0 UV-I 0 W/m 13,3 C 0,0 km/h (0 Bft)
09.08.2016 03:26 14,9 C 14,9 C 90 % 1017,6 hPa 0,0 mm 0,0 km/h (0 Bft) SW 236 0 min 0,000 mm 0,0 UV-I 0 W/m 13,3 C 0,0 km/h (0 Bft)
09.08.2016 03:27 15,0 C 15,0 C 90 % 1017,7 hPa 0,0 mm 0,0 km/h (0 Bft) SW 236 0 min 0,000 mm 0,0 UV-I 0 W/m 13,4 C 0,0 km/h (0 Bft)
09.08.2016 03:28 15,0 C 15,0 C 90 % 1017,7 hPa 0,0 mm 0,0 km/h (0 Bft) SW 236 0 min 0,000 mm 0,0 UV-I 0 W/m 13,4 C 0,0 km/h (0 Bft)
09.08.2016 03:29 15,1 C 15,1 C 90 % 1017,6 hPa 0,0 mm 0,0 km/h (0 Bft) SW 236 0 min 0,000 mm 0,0 UV-I 0 W/m 13,5 C 0,0 km/h (0 Bft)
09.08.2016 03:30 15,1 C 15,1 C 90 % 1017,6 hPa 0,0 mm 0,0 km/h (0 Bft) SW 236 0 min 0,000 mm 0,0 UV-I 0 W/m 13,5 C 0,0 km/h (0 Bft)
09.08.2016 03:31 15,1 C 15,2 C 90 % 1017,6 hPa 0,0 mm 0,0 km/h (0 Bft) SW 236 0 min 0,000 mm 0,0 UV-I 0 W/m 13,5 C 0,0 km/h (0 Bft)
09.08.2016 03:32 15,1 C 15,1 C 90 % 1017,6 hPa 0,0 mm 0,0 km/h (0 Bft) SW 236 0 min 0,000 mm 0,0 UV-I 0 W/m 13,5 C 0,0 km/h (0 Bft)
09.08.2016 03:33 15,1 C 15,1 C 90 % 1017,6 hPa 0,0 mm 0,0 km/h (0 Bft) SW 236 0 min 0,000 mm 0,0 UV-I 0 W/m 13,5 C 0,0 km/h (0 Bft)
09.08.2016 03:34 15,1 C 15,1 C 90 % 1017,5 hPa 0,0 mm 0,0 km/h (0 Bft) SW 236 0 min 0,000 mm 0,0 UV-I 0 W/m 13,5 C 0,0 km/h (0 Bft)
09.08.2016 03:35 15,1 C 15,1 C 90 % 1017,5 hPa 0,0 mm 0,0 km/h (0 Bft) SW 236 0 min 0,000 mm 0,0 UV-I 0 W/m 13,5 C 0,0 km/h (0 Bft)
09.08.2016 03:36 15,1 C 15,1 C 91 % 1017,4 hPa 0,0 mm 0,0 km/h (0 Bft) SW 236 0 min 0,000 mm 0,0 UV-I 0 W/m 13,6 C 0,0 km/h (0 Bft)
09.08.2016 03:37 15,1 C 15,1 C 91 % 1017,4 hPa 0,0 mm 0,0 km/h (0 Bft) SW 236 0 min 0,000 mm 0,0 UV-I 0 W/m 13,6 C 0,0 km/h (0 Bft)
09.08.2016 03:38 15,1 C 15,1 C 91 % 1017,4 hPa 0,0 mm 0,0 km/h (0 Bft) S-SO 166 0 min 0,000 mm 0,0 UV-I 0 W/m 13,6 C 0,0 km/h (0 Bft)
09.08.2016 03:39 15,1 C 15,1 C 91 % 1017,4 hPa 0,0 mm 0,0 km/h (0 Bft) S-SO 166 0 min 0,000 mm 0,0 UV-I 0 W/m 13,6 C 0,0 km/h (0 Bft)
09.08.2016 03:40 15,3 C 15,3 C 90 % 1017,2 hPa 0,0 mm 0,0 km/h (0 Bft) S-SO 166 0 min 0,000 mm 0,0 UV-I 0 W/m 13,7 C 0,0 km/h (0 Bft)
09.08.2016 03:41 15,4 C 15,4 C 89 % 1017,2 hPa 0,0 mm 0,0 km/h (0 Bft) S-SO 166 0 min 0,000 mm 0,0 UV-I 0 W/m 13,6 C 0,0 km/h (0 Bft)
09.08.2016 03:42 15,6 C 15,6 C 88 % 1017,2 hPa 0,0 mm 0,0 km/h (0 Bft) S-SO 166 0 min 0,000 mm 0,0 UV-I 0 W/m 13,6 C 0,0 km/h (0 Bft)
09.08.2016 03:43 15,7 C 15,7 C 87 % 1017,2 hPa 0,0 mm 0,0 km/h (0 Bft) S-SO 166 0 min 0,000 mm 0,0 UV-I 0 W/m 13,5 C 0,0 km/h (0 Bft)
09.08.2016 03:44 15,8 C 15,8 C 87 % 1017,2 hPa 0,0 mm 0,0 km/h (0 Bft) S-SO 166 0 min 0,000 mm 0,0 UV-I 0 W/m 13,6 C 0,0 km/h (0 Bft)
09.08.2016 03:45 15,9 C 15,9 C 87 % 1017,2 hPa 0,0 mm 0,0 km/h (0 Bft) S-SO 166 0 min 0,000 mm 0,0 UV-I 0 W/m 13,7 C 0,0 km/h (0 Bft)
09.08.2016 03:46 15,8 C 15,9 C 87 % 1017,2 hPa 0,0 mm 0,0 km/h (0 Bft) S-SO 166 0 min 0,000 mm 0,0 UV-I 0 W/m 13,6 C 0,0 km/h (0 Bft)
09.08.2016 03:47 15,8 C 15,8 C 87 % 1017,2 hPa 0,0 mm 0,0 km/h (0 Bft) S-SO 166 0 min 0,000 mm 0,0 UV-I 0 W/m 13,6 C 0,0 km/h (0 Bft)
09.08.2016 03:48 15,8 C 15,8 C 87 % 1017,2 hPa 0,0 mm 0,0 km/h (0 Bft) W-NW 289 0 min 0,000 mm 0,0 UV-I 0 W/m 13,6 C 0,0 km/h (0 Bft)
09.08.2016 03:49 15,7 C 15,8 C 87 % 1017,2 hPa 0,0 mm 0,0 km/h (0 Bft) W-NW 289 0 min 0,000 mm 0,0 UV-I 0 W/m 13,5 C 0,0 km/h (0 Bft)
09.08.2016 03:50 15,6 C 15,7 C 87 % 1017,2 hPa 0,0 mm 1,3 km/h (1 Bft) W-NW 289 0 min 0,000 mm 0,0 UV-I 0 W/m 13,4 C 3,2 km/h (1 Bft)
09.08.2016 03:51 15,4 C 15,6 C 87 % 1017,2 hPa 0,0 mm 1,2 km/h (1 Bft) W-NW 289 0 min 0,000 mm 0,0 UV-I 0 W/m 13,2 C 3,2 km/h (1 Bft)
09.08.2016 03:52 15,2 C 15,4 C 88 % 1017,2 hPa 0,0 mm 0,2 km/h (0 Bft) W-NW 289 0 min 0,000 mm 0,0 UV-I 0 W/m 13,2 C 1,6 km/h (1 Bft)
09.08.2016 03:53 15,1 C 15,2 C 89 % 1017,2 hPa 0,0 mm 0,3 km/h (0 Bft) W-NW 289 0 min 0,000 mm 0,0 UV-I 0 W/m 13,3 C 1,6 km/h (1 Bft)
09.08.2016 03:54 14,9 C 15,1 C 90 % 1017,2 hPa 0,0 mm 1,1 km/h (1 Bft) W-NW 289 0 min 0,000 mm 0,0 UV-I 0 W/m 13,3 C 1,6 km/h (1 Bft)
09.08.2016 03:55 14,9 C 14,9 C 90 % 1017,2 hPa 0,0 mm 1,9 km/h (1 Bft) W-NW 289 0 min 0,000 mm 0,0 UV-I 0 W/m 13,3 C 3,2 km/h (1 Bft)
09.08.2016 03:56 14,9 C 14,9 C 90 % 1017,1 hPa 0,0 mm 1,3 km/h (1 Bft) W-NW 289 0 min 0,000 mm 0,0 UV-I 0 W/m 13,3 C 3,2 km/h (1 Bft)
09.08.2016 03:57 14,9 C 14,9 C 90 % 1017,1 hPa 0,0 mm 0,2 km/h (0 Bft) W-NW 289 0 min 0,000 mm 0,0 UV-I 0 W/m 13,3 C 1,6 km/h (1 Bft)
09.08.2016 03:58 14,9 C 14,9 C 90 % 1017,2 hPa 0,0 mm 0,0 km/h (0 Bft) W-NW 289 0 min 0,000 mm 0,0 UV-I 0 W/m 13,3 C 0,0 km/h (0 Bft)
09.08.2016 03:59 14,9 C 14,9 C 90 % 1017,2 hPa 0,0 mm 0,0 km/h (0 Bft) W-NW 289 0 min 0,000 mm 0,0 UV-I 0 W/m 13,3 C 0,0 km/h (0 Bft)
09.08.2016 04:00 14,9 C 14,9 C 90 % 1017,2 hPa 0,0 mm 0,0 km/h (0 Bft) W-NW 289 0 min 0,000 mm 0,0 UV-I 0 W/m 13,3 C 0,0 km/h (0 Bft)
09.08.2016 04:02 14,9 C 14,9 C 90 % 1017,2 hPa 0,0 mm 0,5 km/h (0 Bft) W-NW 289 0 min 0,000 mm 0,0 UV-I 0 W/m 13,3 C 1,6 km/h (1 Bft)
09.08.2016 04:03 14,8 C 14,9 C 90 % 1017,2 hPa 0,0 mm 0,1 km/h (0 Bft) W-NW 289 0 min 0,000 mm 0,0 UV-I 0 W/m 13,2 C 1,6 km/h (1 Bft)
09.08.2016 04:04 14,7 C 14,8 C 90 % 1017,2 hPa 0,0 mm 0,0 km/h (0 Bft) W-NW 289 0 min 0,000 mm 0,0 UV-I 0 W/m 13,1 C 0,0 km/h (0 Bft)
09.08.2016 04:05 14,7 C 14,7 C 90 % 1017,2 hPa 0,0 mm 0,0 km/h (0 Bft) W-NW 289 0 min 0,000 mm 0,0 UV-I 0 W/m 13,1 C 0,0 km/h (0 Bft)
09.08.2016 04:06 14,7 C 14,7 C 91 % 1017,2 hPa 0,0 mm 0,0 km/h (0 Bft) W-NW 289 0 min 0,000 mm 0,0 UV-I 0 W/m 13,2 C 0,0 km/h (0 Bft)
09.08.2016 04:07 14,7 C 14,7 C 91 % 1017,1 hPa 0,0 mm 0,0 km/h (0 Bft) W-NW 289 0 min 0,000 mm 0,0 UV-I 0 W/m 13,2 C 0,0 km/h (0 Bft)
09.08.2016 04:08 14,6 C 14,7 C 91 % 1017,1 hPa 0,0 mm 0,5 km/h (0 Bft) W-NW 289 0 min 0,000 mm 0,0 UV-I 0 W/m 13,1 C 1,6 km/h (1 Bft)
09.08.2016 04:09 14,6 C 14,6 C 91 % 1017,1 hPa 0,0 mm 0,3 km/h (0 Bft) W-NW 289 0 min 0,000 mm 0,0 UV-I 0 W/m 13,1 C 1,6 km/h (1 Bft)
09.08.2016 04:10 14,6 C 14,6 C 91 % 1017,1 hPa 0,0 mm 0,1 km/h (0 Bft) W-NW 289 0 min 0,000 mm 0,0 UV-I 0 W/m 13,1 C 1,6 km/h (1 Bft)
09.08.2016 04:11 14,6 C 14,6 C 91 % 1017,2 hPa 0,0 mm 0,0 km/h (0 Bft) W-NW 289 0 min 0,000 mm 0,0 UV-I 0 W/m 13,1 C 0,0 km/h (0 Bft)
09.08.2016 04:12 14,6 C 14,6 C 91 % 1017,1 hPa 0,0 mm 0,0 km/h (0 Bft) W-NW 289 0 min 0,000 mm 0,0 UV-I 0 W/m 13,1 C 0,0 km/h (0 Bft)
09.08.2016 04:13 14,6 C 14,6 C 91 % 1017,1 hPa 0,0 mm 0,0 km/h (0 Bft) W-NW 289 0 min 0,000 mm 0,0 UV-I 0 W/m 13,1 C 0,0 km/h (0 Bft)
09.08.2016 04:14 14,7 C 14,7 C 91 % 1017,2 hPa 0,0 mm 0,0 km/h (0 Bft) W-NW 289 0 min 0,000 mm 0,0 UV-I 0 W/m 13,2 C 0,0 km/h (0 Bft)
09.08.2016 04:15 14,6 C 14,7 C 91 % 1017,1 hPa 0,0 mm 0,0 km/h (0 Bft) W-NW 289 0 min 0,000 mm 0,0 UV-I 0 W/m 13,1 C 0,0 km/h (0 Bft)
09.08.2016 04:16 14,6 C 14,6 C 91 % 1017,1 hPa 0,0 mm 0,0 km/h (0 Bft) W-NW 289 0 min 0,000 mm 0,0 UV-I 0 W/m 13,1 C 0,0 km/h (0 Bft)
09.08.2016 04:17 14,6 C 14,6 C 90 % 1017,1 hPa 0,0 mm 0,1 km/h (0 Bft) W-NW 289 0 min 0,000 mm 0,0 UV-I 0 W/m 13,0 C 1,6 km/h (1 Bft)
09.08.2016 04:18 14,7 C 14,7 C 91 % 1017,2 hPa 0,0 mm 0,0 km/h (0 Bft) W-NW 289 0 min 0,000 mm 0,0 UV-I 0 W/m 13,2 C 0,0 km/h (0 Bft)
09.08.2016 04:19 14,6 C 14,7 C 91 % 1017,1 hPa 0,0 mm 0,5 km/h (0 Bft) W-NW 289 0 min 0,000 mm 0,0 UV-I 0 W/m 13,1 C 1,6 km/h (1 Bft)
09.08.2016 04:20 14,6 C 14,6 C 91 % 1017,1 hPa 0,0 mm 0,5 km/h (0 Bft) W-NW 289 0 min 0,000 mm 0,0 UV-I 0 W/m 13,1 C 1,6 km/h (1 Bft)
09.08.2016 04:21 14,6 C 14,6 C 91 % 1017,1 hPa 0,0 mm 0,0 km/h (0 Bft) W-NW 289 0 min 0,000 mm 0,0 UV-I 0 W/m 13,1 C 0,0 km/h (0 Bft)
09.08.2016 04:22 14,5 C 14,6 C 91 % 1017,1 hPa 0,0 mm 0,0 km/h (0 Bft) W-NW 289 0 min 0,000 mm 0,0 UV-I 0 W/m 13,0 C 0,0 km/h (0 Bft)
09.08.2016 04:23 14,4 C 14,5 C 91 % 1017,1 hPa 0,0 mm 0,0 km/h (0 Bft) W-NW 289 0 min 0,000 mm 0,0 UV-I 0 W/m 12,9 C 0,0 km/h (0 Bft)
09.08.2016 04:24 14,4 C 14,4 C 91 % 1017,1 hPa 0,0 mm 0,0 km/h (0 Bft) W-NW 289 0 min 0,000 mm 0,0 UV-I 0 W/m 12,9 C 0,0 km/h (0 Bft)
09.08.2016 04:25 14,4 C 14,4 C 91 % 1017,1 hPa 0,0 mm 0,0 km/h (0 Bft) W-NW 289 0 min 0,000 mm 0,0 UV-I 0 W/m 12,9 C 0,0 km/h (0 Bft)
09.08.2016 04:26 14,4 C 14,4 C 91 % 1017,0 hPa 0,0 mm 0,0 km/h (0 Bft) W-NW 289 0 min 0,000 mm 0,0 UV-I 0 W/m 12,9 C 0,0 km/h (0 Bft)
09.08.2016 04:27 14,4 C 14,4 C 92 % 1017,1 hPa 0,0 mm 0,0 km/h (0 Bft) W-NW 289 0 min 0,000 mm 0,0 UV-I 0 W/m 13,1 C 0,0 km/h (0 Bft)
09.08.2016 04:28 14,4 C 14,4 C 92 % 1017,1 hPa 0,0 mm 0,7 km/h (0 Bft) W-NW 289 0 min 0,000 mm 0,0 UV-I 0 W/m 13,1 C 1,6 km/h (1 Bft)
09.08.2016 04:29 14,4 C 14,4 C 92 % 1017,1 hPa 0,0 mm 2,0 km/h (1 Bft) W-NW 289 0 min 0,000 mm 0,0 UV-I 0 W/m 13,1 C 3,2 km/h (1 Bft)
09.08.2016 04:30 14,6 C 14,6 C 92 % 1017,1 hPa 0,0 mm 0,9 km/h (0 Bft) W-NW 288 0 min 0,000 mm 0,0 UV-I 0 W/m 13,3 C 3,2 km/h (1 Bft)
09.08.2016 04:31 14,6 C 14,6 C 92 % 1017,1 hPa 0,0 mm 0,1 km/h (0 Bft) W-NW 288 0 min 0,000 mm 0,0 UV-I 0 W/m 13,3 C 1,6 km/h (1 Bft)
09.08.2016 04:32 14,7 C 14,7 C 92 % 1017,1 hPa 0,0 mm 0,0 km/h (0 Bft) W-NW 288 0 min 0,000 mm 0,0 UV-I 0 W/m 13,4 C 0,0 km/h (0 Bft)
09.08.2016 04:33 14,8 C 14,8 C 91 % 1017,1 hPa 0,0 mm 0,0 km/h (0 Bft) W-NW 288 0 min 0,000 mm 0,0 UV-I 0 W/m 13,3 C 0,0 km/h (0 Bft)
09.08.2016 04:34 14,8 C 14,8 C 91 % 1017,1 hPa 0,0 mm 0,0 km/h (0 Bft) W-NW 288 0 min 0,000 mm 0,0 UV-I 0 W/m 13,3 C 0,0 km/h (0 Bft)
09.08.2016 04:35 14,9 C 14,9 C 91 % 1017,1 hPa 0,0 mm 0,7 km/h (0 Bft) W-NW 288 0 min 0,000 mm 0,0 UV-I 0 W/m 13,4 C 1,6 km/h (1 Bft)
09.08.2016 04:36 14,9 C 14,9 C 90 % 1017,1 hPa 0,0 mm 0,7 km/h (0 Bft) W-NW 288 0 min 0,000 mm 0,0 UV-I 0 W/m 13,3 C 1,6 km/h (1 Bft)
09.08.2016 04:37 15,0 C 15,0 C 90 % 1017,0 hPa 0,0 mm 0,0 km/h (0 Bft) W-NW 288 0 min 0,000 mm 0,0 UV-I 0 W/m 13,4 C 0,0 km/h (0 Bft)
09.08.2016 04:38 15,1 C 15,1 C 90 % 1017,0 hPa 0,0 mm 0,0 km/h (0 Bft) W-NW 288 0 min 0,000 mm 0,0 UV-I 0 W/m 13,5 C 0,0 km/h (0 Bft)
09.08.2016 04:39 15,0 C 15,1 C 90 % 1017,0 hPa 0,0 mm 0,0 km/h (0 Bft) W-NW 288 0 min 0,000 mm 0,0 UV-I 0 W/m 13,4 C 0,0 km/h (0 Bft)
09.08.2016 04:40 14,9 C 15,0 C 90 % 1017,0 hPa 0,0 mm 0,0 km/h (0 Bft) W-NW 288 0 min 0,000 mm 0,0 UV-I 0 W/m 13,3 C 0,0 km/h (0 Bft)
09.08.2016 04:41 14,9 C 14,9 C 90 % 1017,1 hPa 0,0 mm 0,0 km/h (0 Bft) W-NW 288 0 min 0,000 mm 0,0 UV-I 0 W/m 13,3 C 0,0 km/h (0 Bft)
09.08.2016 04:42 14,9 C 14,9 C 90 % 1017,1 hPa 0,0 mm 0,0 km/h (0 Bft) W-NW 288 0 min 0,000 mm 0,0 UV-I 0 W/m 13,3 C 0,0 km/h (0 Bft)
09.08.2016 04:43 14,8 C 14,9 C 90 % 1017,1 hPa 0,0 mm 0,0 km/h (0 Bft) W-NW 288 0 min 0,000 mm 0,0 UV-I 0 W/m 13,2 C 0,0 km/h (0 Bft)
09.08.2016 04:44 14,8 C 14,8 C 91 % 1017,1 hPa 0,0 mm 0,0 km/h (0 Bft) W-NW 288 0 min 0,000 mm 0,0 UV-I 0 W/m 13,3 C 0,0 km/h (0 Bft)
09.08.2016 04:45 14,7 C 14,8 C 91 % 1017,1 hPa 0,0 mm 0,0 km/h (0 Bft) W-NW 288 0 min 0,000 mm 0,0 UV-I 0 W/m 13,2 C 0,0 km/h (0 Bft)
09.08.2016 04:46 14,7 C 14,7 C 91 % 1017,0 hPa 0,0 mm 0,0 km/h (0 Bft) W-NW 288 0 min 0,000 mm 0,0 UV-I 0 W/m 13,2 C 0,0 km/h (0 Bft)
09.08.2016 04:47 14,6 C 14,7 C 91 % 1016,9 hPa 0,0 mm 0,0 km/h (0 Bft) W-NW 288 0 min 0,000 mm 0,0 UV-I 0 W/m 13,1 C 0,0 km/h (0 Bft)
09.08.2016 04:48 14,6 C 14,6 C 91 % 1017,0 hPa 0,0 mm 0,0 km/h (0 Bft) W-NW 288 0 min 0,000 mm 0,0 UV-I 0 W/m 13,1 C 0,0 km/h (0 Bft)
09.08.2016 04:49 14,6 C 14,6 C 91 % 1017,0 hPa 0,0 mm 0,0 km/h (0 Bft) W-NW 288 0 min 0,000 mm 0,0 UV-I 0 W/m 13,1 C 0,0 km/h (0 Bft)
09.08.2016 04:50 14,6 C 14,6 C 92 % 1017,0 hPa 0,0 mm 0,0 km/h (0 Bft) W-NW 288 0 min 0,000 mm 0,0 UV-I 0 W/m 13,3 C 0,0 km/h (0 Bft)
09.08.2016 04:51 14,7 C 14,7 C 92 % 1017,0 hPa 0,0 mm 0,0 km/h (0 Bft) W-NW 288 0 min 0,000 mm 0,0 UV-I 0 W/m 13,4 C 0,0 km/h (0 Bft)
09.08.2016 04:52 14,7 C 14,7 C 91 % 1017,0 hPa 0,0 mm 0,0 km/h (0 Bft) W-NW 288 0 min 0,000 mm 0,0 UV-I 0 W/m 13,2 C 0,0 km/h (0 Bft)
09.08.2016 04:53 14,7 C 14,7 C 91 % 1017,0 hPa 0,0 mm 0,0 km/h (0 Bft) W-NW 288 0 min 0,000 mm 0,0 UV-I 0 W/m 13,2 C 0,0 km/h (0 Bft)
09.08.2016 04:54 14,6 C 14,7 C 91 % 1017,0 hPa 0,0 mm 0,0 km/h (0 Bft) W-NW 288 0 min 0,000 mm 0,0 UV-I 0 W/m 13,1 C 0,0 km/h (0 Bft)
09.08.2016 04:55 14,6 C 14,6 C 91 % 1016,9 hPa 0,0 mm 0,0 km/h (0 Bft) W-NW 288 0 min 0,000 mm 0,0 UV-I 0 W/m 13,1 C 0,0 km/h (0 Bft)
09.08.2016 04:56 14,6 C 14,6 C 91 % 1017,0 hPa 0,0 mm 0,0 km/h (0 Bft) W-NW 288 0 min 0,000 mm 0,0 UV-I 0 W/m 13,1 C 0,0 km/h (0 Bft)
09.08.2016 04:57 14,6 C 14,6 C 91 % 1016,9 hPa 0,0 mm 0,0 km/h (0 Bft) W-NW 288 0 min 0,000 mm 0,0 UV-I 0 W/m 13,1 C 0,0 km/h (0 Bft)
09.08.2016 04:58 14,6 C 14,6 C 92 % 1016,9 hPa 0,0 mm 0,0 km/h (0 Bft) W-NW 288 0 min 0,000 mm 0,0 UV-I 0 W/m 13,3 C 0,0 km/h (0 Bft)
09.08.2016 04:59 14,5 C 14,6 C 92 % 1016,9 hPa 0,0 mm 0,0 km/h (0 Bft) W-NW 288 0 min 0,000 mm 0,0 UV-I 0 W/m 13,2 C 0,0 km/h (0 Bft)
09.08.2016 05:00 14,4 C 14,5 C 92 % 1016,9 hPa 0,0 mm 0,0 km/h (0 Bft) W-NW 288 0 min 0,000 mm 0,0 UV-I 0 W/m 13,1 C 0,0 km/h (0 Bft)
09.08.2016 05:01 14,4 C 14,4 C 92 % 1016,9 hPa 0,0 mm 0,0 km/h (0 Bft) W-NW 288 0 min 0,000 mm 0,0 UV-I 0 W/m 13,1 C 0,0 km/h (0 Bft)
09.08.2016 05:02 14,4 C 14,4 C 92 % 1016,9 hPa 0,0 mm 0,0 km/h (0 Bft) W-NW 288 0 min 0,000 mm 0,0 UV-I 0 W/m 13,1 C 0,0 km/h (0 Bft)
09.08.2016 05:03 14,4 C 14,4 C 92 % 1016,9 hPa 0,0 mm 0,0 km/h (0 Bft) W-NW 288 0 min 0,000 mm 0,0 UV-I 0 W/m 13,1 C 0,0 km/h (0 Bft)
09.08.2016 05:04 14,4 C 14,4 C 91 % 1016,9 hPa 0,0 mm 0,0 km/h (0 Bft) W-NW 288 0 min 0,000 mm 0,0 UV-I 0 W/m 12,9 C 0,0 km/h (0 Bft)
09.08.2016 05:05 14,3 C 14,4 C 91 % 1016,9 hPa 0,0 mm 0,0 km/h (0 Bft) W-NW 288 0 min 0,000 mm 0,0 UV-I 0 W/m 12,8 C 0,0 km/h (0 Bft)
09.08.2016 05:06 14,3 C 14,3 C 91 % 1017,0 hPa 0,0 mm 0,0 km/h (0 Bft) W-NW 288 0 min 0,000 mm 0,0 UV-I 0 W/m 12,8 C 0,0 km/h (0 Bft)
09.08.2016 05:07 14,3 C 14,3 C 91 % 1016,9 hPa 0,0 mm 0,0 km/h (0 Bft) W-NW 288 0 min 0,000 mm 0,0 UV-I 0 W/m 12,8 C 0,0 km/h (0 Bft)
09.08.2016 05:08 14,3 C 14,3 C 91 % 1017,0 hPa 0,0 mm 0,0 km/h (0 Bft) W-NW 288 0 min 0,000 mm 0,0 UV-I 0 W/m 12,8 C 0,0 km/h (0 Bft)
09.08.2016 05:09 14,3 C 14,3 C 91 % 1017,0 hPa 0,0 mm 0,0 km/h (0 Bft) W-NW 288 0 min 0,000 mm 0,0 UV-I 0 W/m 12,8 C 0,0 km/h (0 Bft)
09.08.2016 05:10 14,3 C 14,3 C 91 % 1017,0 hPa 0,0 mm 0,0 km/h (0 Bft) W-NW 288 0 min 0,000 mm 0,0 UV-I 0 W/m 12,8 C 0,0 km/h (0 Bft)
09.08.2016 05:11 14,3 C 14,3 C 91 % 1017,0 hPa 0,0 mm 0,0 km/h (0 Bft) W-NW 288 0 min 0,000 mm 0,0 UV-I 0 W/m 12,8 C 0,0 km/h (0 Bft)
09.08.2016 05:12 14,3 C 14,3 C 92 % 1017,0 hPa 0,0 mm 0,0 km/h (0 Bft) W-NW 288 0 min 0,000 mm 0,0 UV-I 0 W/m 13,0 C 0,0 km/h (0 Bft)
09.08.2016 05:13 14,3 C 14,3 C 91 % 1017,0 hPa 0,0 mm 0,0 km/h (0 Bft) W-NW 288 0 min 0,000 mm 0,0 UV-I 0 W/m 12,8 C 0,0 km/h (0 Bft)
09.08.2016 05:14 14,3 C 14,3 C 91 % 1017,0 hPa 0,0 mm 0,0 km/h (0 Bft) W-NW 288 0 min 0,000 mm 0,0 UV-I 0 W/m 12,8 C 0,0 km/h (0 Bft)
09.08.2016 05:15 14,4 C 14,4 C 91 % 1017,0 hPa 0,0 mm 0,0 km/h (0 Bft) W-NW 288 0 min 0,000 mm 0,0 UV-I 0 W/m 12,9 C 0,0 km/h (0 Bft)
09.08.2016 05:16 14,5 C 14,5 C 91 % 1017,0 hPa 0,0 mm 0,0 km/h (0 Bft) W-NW 288 0 min 0,000 mm 0,0 UV-I 0 W/m 13,0 C 0,0 km/h (0 Bft)
09.08.2016 05:17 14,6 C 14,6 C 91 % 1017,0 hPa 0,0 mm 0,0 km/h (0 Bft) W-NW 288 0 min 0,000 mm 0,0 UV-I 0 W/m 13,1 C 0,0 km/h (0 Bft)
09.08.2016 05:18 14,6 C 14,6 C 91 % 1017,0 hPa 0,0 mm 0,0 km/h (0 Bft) W-NW 288 0 min 0,000 mm 0,0 UV-I 0 W/m 13,1 C 0,0 km/h (0 Bft)
09.08.2016 05:19 14,6 C 14,6 C 91 % 1017,0 hPa 0,0 mm 0,0 km/h (0 Bft) W-NW 288 0 min 0,000 mm 0,0 UV-I 0 W/m 13,1 C 0,0 km/h (0 Bft)
09.08.2016 05:20 14,6 C 14,6 C 91 % 1017,0 hPa 0,0 mm 0,0 km/h (0 Bft) W-NW 288 0 min 0,000 mm 0,0 UV-I 0 W/m 13,1 C 0,0 km/h (0 Bft)
09.08.2016 05:21 14,7 C 14,7 C 91 % 1017,1 hPa 0,0 mm 0,0 km/h (0 Bft) W-NW 288 0 min 0,000 mm 0,0 UV-I 0 W/m 13,2 C 0,0 km/h (0 Bft)
09.08.2016 05:22 14,7 C 14,7 C 91 % 1017,2 hPa 0,0 mm 0,0 km/h (0 Bft) W 279 0 min 0,000 mm 0,0 UV-I 0 W/m 13,2 C 0,0 km/h (0 Bft)
09.08.2016 05:23 14,8 C 14,8 C 91 % 1017,2 hPa 0,0 mm 4,2 km/h (1 Bft) W-SW 254 0 min 0,000 mm 0,0 UV-I 0 W/m 13,3 C 6,4 km/h (2 Bft)
09.08.2016 05:24 14,8 C 14,8 C 91 % 1017,4 hPa 0,0 mm 7,0 km/h (2 Bft) W-SW 245 0 min 0,000 mm 0,0 UV-I 0 W/m 13,3 C 11,3 km/h (2 Bft)
09.08.2016 05:25 14,8 C 14,8 C 91 % 1017,5 hPa 0,0 mm 5,6 km/h (1 Bft) W-SW 248 0 min 0,000 mm 0,0 UV-I 0 W/m 13,3 C 8,0 km/h (2 Bft)
09.08.2016 05:26 14,9 C 14,9 C 91 % 1017,5 hPa 0,0 mm 7,0 km/h (2 Bft) W-SW 258 0 min 0,000 mm 0,0 UV-I 0 W/m 13,4 C 11,3 km/h (2 Bft)
09.08.2016 05:27 14,9 C 14,9 C 91 % 1017,6 hPa 0,0 mm 10,2 km/h (2 Bft) W-SW 257 0 min 0,000 mm 0,0 UV-I 0 W/m 13,4 C 14,5 km/h (3 Bft)
09.08.2016 05:28 14,9 C 14,9 C 91 % 1017,7 hPa 0,0 mm 10,0 km/h (2 Bft) W 266 0 min 0,000 mm 0,0 UV-I 0 W/m 13,4 C 12,9 km/h (3 Bft)
09.08.2016 05:29 15,0 C 15,0 C 91 % 1017,8 hPa 0,2 mm 12,0 km/h (2 Bft) W-NW 296 0 min 0,000 mm 0,0 UV-I 0 W/m 13,5 C 17,7 km/h (3 Bft)
09.08.2016 05:30 15,1 C 15,1 C 90 % 1017,9 hPa 0,2 mm 9,2 km/h (2 Bft) W-NW 287 0 min 0,000 mm 0,0 UV-I 0 W/m 13,5 C 14,5 km/h (3 Bft)
09.08.2016 05:31 15,1 C 15,1 C 90 % 1018,0 hPa 0,4 mm 12,3 km/h (3 Bft) NW 305 0 min 0,000 mm 0,0 UV-I 0 W/m 13,5 C 22,5 km/h (4 Bft)
09.08.2016 05:32 15,1 C 15,1 C 90 % 1018,1 hPa 0,8 mm 8,6 km/h (2 Bft) W-NW 290 0 min 0,000 mm 0,0 UV-I 0 W/m 13,5 C 17,7 km/h (3 Bft)
09.08.2016 05:33 15,0 C 15,1 C 90 % 1017,9 hPa 0,4 mm 7,7 km/h (2 Bft) W 277 0 min 0,000 mm 0,0 UV-I 0 W/m 13,4 C 12,9 km/h (3 Bft)
09.08.2016 05:34 14,9 C 15,0 C 90 % 1017,8 hPa 0,8 mm 6,4 km/h (2 Bft) W-SW 257 0 min 0,000 mm 0,0 UV-I 0 W/m 13,3 C 12,9 km/h (3 Bft)
09.08.2016 05:35 14,9 C 15,0 C 90 % 1017,8 hPa 1,8 mm 8,2 km/h (2 Bft) W-NW 296 0 min 0,000 mm 0,0 UV-I 0 W/m 13,3 C 14,5 km/h (3 Bft)
09.08.2016 05:36 14,8 C 14,9 C 90 % 1017,7 hPa 1,8 mm 4,1 km/h (1 Bft) W 275 0 min 0,000 mm 0,0 UV-I 0 W/m 13,2 C 6,4 km/h (2 Bft)
09.08.2016 05:37 14,8 C 14,8 C 90 % 1017,4 hPa 0,4 mm 1,2 km/h (1 Bft) W 275 0 min 0,000 mm 0,0 UV-I 0 W/m 13,2 C 3,2 km/h (1 Bft)
09.08.2016 05:38 14,7 C 14,8 C 91 % 1017,3 hPa 0,2 mm 0,1 km/h (0 Bft) W 275 0 min 0,000 mm 0,0 UV-I 0 W/m 13,2 C 1,6 km/h (1 Bft)
09.08.2016 05:39 14,6 C 14,7 C 91 % 1017,5 hPa 0,2 mm 0,1 km/h (0 Bft) W 275 0 min 0,000 mm 0,0 UV-I 0 W/m 13,1 C 1,6 km/h (1 Bft)
09.08.2016 05:40 14,4 C 14,6 C 92 % 1017,5 hPa 0,2 mm 0,6 km/h (0 Bft) W 275 0 min 0,000 mm 0,0 UV-I 0 W/m 13,1 C 1,6 km/h (1 Bft)
09.08.2016 05:41 14,4 C 14,4 C 92 % 1017,4 hPa 0,0 mm 2,6 km/h (1 Bft) S 171 0 min 0,000 mm 0,0 UV-I 0 W/m 13,1 C 3,2 km/h (1 Bft)
09.08.2016 05:42 14,3 C 14,4 C 92 % 1017,5 hPa 0,2 mm 3,4 km/h (1 Bft) S-SO 149 0 min 0,000 mm 0,0 UV-I 0 W/m 13,0 C 6,4 km/h (2 Bft)
09.08.2016 05:43 14,3 C 14,3 C 93 % 1017,5 hPa 0,0 mm 2,7 km/h (1 Bft) S-SO 161 0 min 0,000 mm 0,0 UV-I 0 W/m 13,2 C 3,2 km/h (1 Bft)
09.08.2016 05:44 14,2 C 14,3 C 93 % 1017,6 hPa 0,2 mm 1,3 km/h (1 Bft) S-SO 163 0 min 0,000 mm 0,0 UV-I 0 W/m 13,1 C 1,6 km/h (1 Bft)
09.08.2016 05:45 14,2 C 14,2 C 92 % 1017,5 hPa 0,0 mm 1,4 km/h (1 Bft) S-SO 163 0 min 0,000 mm 0,0 UV-I 0 W/m 12,9 C 3,2 km/h (1 Bft)
09.08.2016 05:46 14,3 C 14,3 C 93 % 1017,5 hPa 0,0 mm 2,5 km/h (1 Bft) S-SO 163 0 min 0,000 mm 0,0 UV-I 0 W/m 13,2 C 3,2 km/h (1 Bft)
09.08.2016 05:47 14,2 C 14,3 C 93 % 1017,4 hPa 0,0 mm 3,4 km/h (1 Bft) SO 133 0 min 0,000 mm 0,0 UV-I 0 W/m 13,1 C 4,8 km/h (1 Bft)
09.08.2016 05:48 14,2 C 14,2 C 93 % 1017,4 hPa 0,2 mm 3,2 km/h (1 Bft) SO 130 0 min 0,000 mm 0,0 UV-I 0 W/m 13,1 C 4,8 km/h (1 Bft)
09.08.2016 05:49 14,1 C 14,2 C 93 % 1017,2 hPa 0,2 mm 2,8 km/h (1 Bft) SO 136 0 min 0,000 mm 0,0 UV-I 0 W/m 13,0 C 3,2 km/h (1 Bft)
09.08.2016 05:50 14,1 C 14,1 C 93 % 1017,2 hPa 0,2 mm 3,0 km/h (1 Bft) SO 128 0 min 0,000 mm 0,0 UV-I 0 W/m 13,0 C 3,2 km/h (1 Bft)
09.08.2016 05:51 14,1 C 14,1 C 93 % 1017,3 hPa 0,2 mm 1,9 km/h (1 Bft) SO 128 0 min 0,000 mm 0,0 UV-I 0 W/m 13,0 C 3,2 km/h (1 Bft)
09.08.2016 05:52 14,1 C 14,1 C 93 % 1017,3 hPa 0,0 mm 0,6 km/h (0 Bft) SO 128 0 min 0,000 mm 0,0 UV-I 0 W/m 13,0 C 1,6 km/h (1 Bft)
09.08.2016 05:53 14,1 C 14,1 C 93 % 1017,3 hPa 0,0 mm 0,8 km/h (0 Bft) SO 128 0 min 0,000 mm 0,0 UV-I 0 W/m 13,0 C 1,6 km/h (1 Bft)
09.08.2016 05:54 14,1 C 14,1 C 93 % 1017,3 hPa 0,0 mm 0,1 km/h (0 Bft) SO 128 0 min 0,000 mm 0,0 UV-I 0 W/m 13,0 C 1,6 km/h (1 Bft)
09.08.2016 05:55 14,1 C 14,1 C 93 % 1017,3 hPa 0,0 mm 1,1 km/h (1 Bft) SO 128 0 min 0,000 mm 0,0 UV-I 0 W/m 13,0 C 1,6 km/h (1 Bft)
09.08.2016 05:56 14,0 C 14,1 C 93 % 1017,3 hPa 0,0 mm 2,3 km/h (1 Bft) SO 140 0 min 0,000 mm 0,0 UV-I 0 W/m 12,9 C 3,2 km/h (1 Bft)
09.08.2016 05:57 14,0 C 14,0 C 93 % 1017,3 hPa 0,0 mm 2,2 km/h (1 Bft) SO 140 0 min 0,000 mm 0,0 UV-I 0 W/m 12,9 C 3,2 km/h (1 Bft)
09.08.2016 05:58 14,0 C 14,0 C 93 % 1017,3 hPa 0,0 mm 3,2 km/h (1 Bft) SO 140 0 min 0,000 mm 0,0 UV-I 0 W/m 12,9 C 3,2 km/h (1 Bft)
09.08.2016 05:59 13,9 C 14,0 C 93 % 1017,3 hPa 0,0 mm 1,7 km/h (1 Bft) SO 140 0 min 0,000 mm 0,0 UV-I 0 W/m 12,8 C 3,2 km/h (1 Bft)
09.08.2016 06:00 13,9 C 13,9 C 93 % 1017,3 hPa 0,0 mm 0,9 km/h (0 Bft) SO 140 0 min 0,000 mm 0,0 UV-I 0 W/m 12,8 C 1,6 km/h (1 Bft)
09.08.2016 06:01 13,9 C 13,9 C 93 % 1017,3 hPa 0,0 mm 2,7 km/h (1 Bft) SO 140 0 min 0,000 mm 0,0 UV-I 0 W/m 12,8 C 4,8 km/h (1 Bft)
09.08.2016 06:02 13,8 C 13,9 C 93 % 1017,3 hPa 0,0 mm 0,8 km/h (0 Bft) SO 140 0 min 0,000 mm 0,0 UV-I 0 W/m 12,7 C 1,6 km/h (1 Bft)
09.08.2016 06:03 13,8 C 13,8 C 93 % 1017,3 hPa 0,0 mm 0,1 km/h (0 Bft) SO 140 0 min 0,000 mm 0,0 UV-I 0 W/m 12,7 C 1,6 km/h (1 Bft)
09.08.2016 06:04 13,8 C 13,8 C 93 % 1017,3 hPa 0,0 mm 0,0 km/h (0 Bft) SO 140 0 min 0,000 mm 0,0 UV-I 0 W/m 12,7 C 0,0 km/h (0 Bft)
09.08.2016 06:05 13,8 C 13,8 C 93 % 1017,3 hPa 0,0 mm 0,0 km/h (0 Bft) SO 140 0 min 0,000 mm 0,0 UV-I 0 W/m 12,7 C 0,0 km/h (0 Bft)
09.08.2016 06:06 13,8 C 13,8 C 94 % 1017,3 hPa 0,0 mm 0,0 km/h (0 Bft) SO 140 0 min 0,000 mm 0,0 UV-I 0 W/m 12,9 C 0,0 km/h (0 Bft)
09.08.2016 06:07 13,7 C 13,8 C 94 % 1017,4 hPa 0,0 mm 0,2 km/h (0 Bft) SO 140 0 min 0,000 mm 0,0 UV-I 0 W/m 12,8 C 1,6 km/h (1 Bft)
09.08.2016 06:08 13,7 C 13,7 C 94 % 1017,4 hPa 0,0 mm 0,4 km/h (0 Bft) SO 140 0 min 0,000 mm 0,0 UV-I 0 W/m 12,8 C 1,6 km/h (1 Bft)
09.08.2016 06:09 13,7 C 13,7 C 94 % 1017,4 hPa 0,0 mm 0,0 km/h (0 Bft) SO 140 0 min 0,000 mm 0,0 UV-I 0 W/m 12,8 C 0,0 km/h (0 Bft)
09.08.2016 06:10 13,7 C 13,7 C 94 % 1017,4 hPa 0,0 mm 0,0 km/h (0 Bft) SO 140 0 min 0,000 mm 0,0 UV-I 0 W/m 12,8 C 0,0 km/h (0 Bft)
09.08.2016 06:11 13,7 C 13,7 C 94 % 1017,5 hPa 0,0 mm 0,0 km/h (0 Bft) SO 140 0 min 0,000 mm 0,0 UV-I 0 W/m 12,8 C 0,0 km/h (0 Bft)
09.08.2016 06:12 13,7 C 13,7 C 94 % 1017,4 hPa 0,0 mm 0,5 km/h (0 Bft) SO 140 0 min 0,000 mm 0,0 UV-I 0 W/m 12,8 C 1,6 km/h (1 Bft)
09.08.2016 06:13 13,6 C 13,7 C 94 % 1017,5 hPa 0,0 mm 1,5 km/h (1 Bft) SO 140 0 min 0,000 mm 0,0 UV-I 0 W/m 12,7 C 1,6 km/h (1 Bft)
09.08.2016 06:14 13,6 C 13,7 C 94 % 1017,5 hPa 0,0 mm 0,9 km/h (0 Bft) SO 140 0 min 0,000 mm 0,0 UV-I 0 W/m 12,7 C 1,6 km/h (1 Bft)
09.08.2016 06:15 13,6 C 13,7 C 94 % 1017,4 hPa 0,0 mm 1,1 km/h (1 Bft) SO 140 0 min 0,000 mm 0,0 UV-I 0 W/m 12,7 C 1,6 km/h (1 Bft)
09.08.2016 06:16 13,6 C 13,6 C 94 % 1017,4 hPa 0,0 mm 0,1 km/h (0 Bft) SO 140 0 min 0,000 mm 0,0 UV-I 5 W/m 12,7 C 1,6 km/h (1 Bft)
09.08.2016 06:17 13,6 C 13,6 C 94 % 1017,4 hPa 0,0 mm 0,0 km/h (0 Bft) SO 140 0 min 0,000 mm 0,0 UV-I 5 W/m 12,7 C 0,0 km/h (0 Bft)
09.08.2016 06:18 13,5 C 13,6 C 94 % 1017,3 hPa 0,0 mm 0,0 km/h (0 Bft) SO 140 0 min 0,000 mm 0,0 UV-I 5 W/m 12,6 C 0,0 km/h (0 Bft)
09.08.2016 06:19 13,5 C 13,6 C 95 % 1017,3 hPa 0,0 mm 0,0 km/h (0 Bft) SO 140 0 min 0,000 mm 0,0 UV-I 5 W/m 12,7 C 0,0 km/h (0 Bft)
09.08.2016 06:20 13,5 C 13,6 C 95 % 1017,3 hPa 0,0 mm 0,0 km/h (0 Bft) SO 140 0 min 0,000 mm 0,0 UV-I 5 W/m 12,7 C 0,0 km/h (0 Bft)
09.08.2016 06:21 13,5 C 13,5 C 95 % 1017,3 hPa 0,0 mm 0,0 km/h (0 Bft) SO 140 0 min 0,000 mm 0,0 UV-I 5 W/m 12,7 C 0,0 km/h (0 Bft)
09.08.2016 06:22 13,5 C 13,5 C 95 % 1017,3 hPa 0,0 mm 0,3 km/h (0 Bft) SO 140 0 min 0,000 mm 0,0 UV-I 5 W/m 12,7 C 1,6 km/h (1 Bft)
09.08.2016 06:23 13,5 C 13,5 C 95 % 1017,3 hPa 0,0 mm 1,3 km/h (1 Bft) SO 140 0 min 0,000 mm 0,0 UV-I 5 W/m 12,7 C 1,6 km/h (1 Bft)
09.08.2016 06:24 13,5 C 13,5 C 95 % 1017,3 hPa 0,0 mm 0,5 km/h (0 Bft) SO 140 0 min 0,000 mm 0,0 UV-I 5 W/m 12,7 C 1,6 km/h (1 Bft)
09.08.2016 06:25 13,4 C 13,5 C 95 % 1017,3 hPa 0,0 mm 0,0 km/h (0 Bft) SO 140 0 min 0,000 mm 0,0 UV-I 7 W/m 12,6 C 0,0 km/h (0 Bft)
09.08.2016 06:26 13,4 C 13,4 C 94 % 1017,2 hPa 0,0 mm 0,0 km/h (0 Bft) SO 140 0 min 0,000 mm 0,0 UV-I 7 W/m 12,5 C 0,0 km/h (0 Bft)
09.08.2016 06:27 13,4 C 13,4 C 95 % 1017,2 hPa 0,0 mm 0,0 km/h (0 Bft) SO 140 0 min 0,000 mm 0,0 UV-I 7 W/m 12,6 C 0,0 km/h (0 Bft)
09.08.2016 06:28 13,4 C 13,4 C 95 % 1017,2 hPa 0,0 mm 0,0 km/h (0 Bft) SO 140 0 min 0,000 mm 0,0 UV-I 7 W/m 12,6 C 0,0 km/h (0 Bft)
09.08.2016 06:29 13,4 C 13,4 C 95 % 1017,1 hPa 0,0 mm 0,0 km/h (0 Bft) SO 140 0 min 0,000 mm 0,0 UV-I 7 W/m 12,6 C 0,0 km/h (0 Bft)
09.08.2016 06:30 13,5 C 13,5 C 95 % 1017,1 hPa 0,0 mm 0,0 km/h (0 Bft) SO 140 0 min 0,000 mm 0,0 UV-I 7 W/m 12,7 C 0,0 km/h (0 Bft)
09.08.2016 06:31 13,5 C 13,5 C 95 % 1017,1 hPa 0,0 mm 0,0 km/h (0 Bft) SO 140 0 min 0,000 mm 0,0 UV-I 9 W/m 12,7 C 0,0 km/h (0 Bft)
09.08.2016 06:32 13,6 C 13,6 C 95 % 1017,2 hPa 0,0 mm 1,3 km/h (1 Bft) SO 140 0 min 0,000 mm 0,0 UV-I 9 W/m 12,8 C 3,2 km/h (1 Bft)
09.08.2016 06:33 13,6 C 13,6 C 95 % 1017,2 hPa 0,0 mm 1,5 km/h (1 Bft) SO 140 0 min 0,000 mm 0,0 UV-I 9 W/m 12,8 C 3,2 km/h (1 Bft)
09.08.2016 06:34 13,6 C 13,6 C 95 % 1017,3 hPa 0,0 mm 1,6 km/h (1 Bft) SO 140 0 min 0,000 mm 0,0 UV-I 12 W/m 12,8 C 1,6 km/h (1 Bft)
09.08.2016 06:35 13,6 C 13,6 C 95 % 1017,2 hPa 0,0 mm 1,9 km/h (1 Bft) SO 140 0 min 0,000 mm 0,0 UV-I 12 W/m 12,8 C 3,2 km/h (1 Bft)
09.08.2016 06:36 13,6 C 13,6 C 95 % 1017,2 hPa 0,0 mm 1,7 km/h (1 Bft) SO 140 0 min 0,000 mm 0,0 UV-I 14 W/m 12,8 C 3,2 km/h (1 Bft)
09.08.2016 06:37 13,6 C 13,7 C 95 % 1017,2 hPa 0,0 mm 1,8 km/h (1 Bft) SO 140 0 min 0,000 mm 0,0 UV-I 14 W/m 12,8 C 3,2 km/h (1 Bft)
09.08.2016 06:38 13,6 C 13,7 C 95 % 1017,2 hPa 0,0 mm 2,2 km/h (1 Bft) SO 140 0 min 0,000 mm 0,0 UV-I 14 W/m 12,8 C 3,2 km/h (1 Bft)
09.08.2016 06:39 13,7 C 13,7 C 95 % 1017,2 hPa 0,0 mm 1,5 km/h (1 Bft) SO 140 0 min 0,000 mm 0,0 UV-I 14 W/m 12,9 C 3,2 km/h (1 Bft)
09.08.2016 06:40 13,7 C 13,7 C 95 % 1017,2 hPa 0,0 mm 0,2 km/h (0 Bft) SO 140 0 min 0,000 mm 0,0 UV-I 14 W/m 12,9 C 1,6 km/h (1 Bft)
09.08.2016 06:41 13,6 C 13,7 C 95 % 1017,2 hPa 0,0 mm 0,0 km/h (0 Bft) SO 140 0 min 0,000 mm 0,0 UV-I 14 W/m 12,8 C 0,0 km/h (0 Bft)
09.08.2016 06:42 13,7 C 13,7 C 95 % 1017,3 hPa 0,0 mm 0,0 km/h (0 Bft) SO 140 0 min 0,000 mm 0,0 UV-I 12 W/m 12,9 C 0,0 km/h (0 Bft)
09.08.2016 06:43 13,7 C 13,7 C 95 % 1017,3 hPa 0,0 mm 0,0 km/h (0 Bft) SO 140 0 min 0,000 mm 0,0 UV-I 11 W/m 12,9 C 0,0 km/h (0 Bft)
09.08.2016 06:44 13,7 C 13,7 C 95 % 1017,3 hPa 0,0 mm 0,0 km/h (0 Bft) SO 140 0 min 0,000 mm 0,0 UV-I 11 W/m 12,9 C 0,0 km/h (0 Bft)
09.08.2016 06:45 13,7 C 13,7 C 95 % 1017,3 hPa 0,0 mm 0,0 km/h (0 Bft) SO 140 0 min 0,000 mm 0,0 UV-I 9 W/m 12,9 C 0,0 km/h (0 Bft)
09.08.2016 06:46 13,7 C 13,7 C 95 % 1017,3 hPa 0,0 mm 0,0 km/h (0 Bft) SO 140 0 min 0,000 mm 0,0 UV-I 9 W/m 12,9 C 0,0 km/h (0 Bft)
09.08.2016 06:47 13,7 C 13,7 C 95 % 1017,3 hPa 0,0 mm 0,0 km/h (0 Bft) SO 140 0 min 0,000 mm 0,0 UV-I 9 W/m 12,9 C 0,0 km/h (0 Bft)
09.08.2016 06:48 13,7 C 13,7 C 95 % 1017,3 hPa 0,0 mm 0,0 km/h (0 Bft) SO 140 0 min 0,000 mm 0,0 UV-I 9 W/m 12,9 C 0,0 km/h (0 Bft)
09.08.2016 06:49 13,7 C 13,7 C 95 % 1017,3 hPa 0,0 mm 0,0 km/h (0 Bft) SO 140 0 min 0,000 mm 0,0 UV-I 11 W/m 12,9 C 0,0 km/h (0 Bft)
09.08.2016 06:50 13,7 C 13,7 C 95 % 1017,4 hPa 0,0 mm 0,0 km/h (0 Bft) SO 140 0 min 0,000 mm 0,0 UV-I 11 W/m 12,9 C 0,0 km/h (0 Bft)
09.08.2016 06:51 13,7 C 13,7 C 95 % 1017,3 hPa 0,0 mm 0,0 km/h (0 Bft) SO 140 0 min 0,000 mm 0,0 UV-I 11 W/m 12,9 C 0,0 km/h (0 Bft)
09.08.2016 06:52 13,7 C 13,8 C 95 % 1017,4 hPa 0,0 mm 0,0 km/h (0 Bft) SO 140 0 min 0,000 mm 0,0 UV-I 11 W/m 12,9 C 0,0 km/h (0 Bft)
09.08.2016 06:53 13,8 C 13,8 C 95 % 1017,3 hPa 0,0 mm 0,0 km/h (0 Bft) SO 140 0 min 0,000 mm 0,0 UV-I 11 W/m 13,0 C 0,0 km/h (0 Bft)
09.08.2016 06:54 13,8 C 13,8 C 95 % 1017,4 hPa 0,0 mm 0,0 km/h (0 Bft) SO 140 0 min 0,000 mm 0,0 UV-I 11 W/m 13,0 C 0,0 km/h (0 Bft)
09.08.2016 06:55 13,8 C 13,8 C 95 % 1017,4 hPa 0,0 mm 0,0 km/h (0 Bft) SO 140 0 min 0,000 mm 0,0 UV-I 11 W/m 13,0 C 0,0 km/h (0 Bft)
09.08.2016 06:56 13,8 C 13,8 C 95 % 1017,4 hPa 0,0 mm 0,0 km/h (0 Bft) SO 140 0 min 0,000 mm 0,0 UV-I 9 W/m 13,0 C 0,0 km/h (0 Bft)
09.08.2016 06:57 13,8 C 13,8 C 95 % 1017,4 hPa 0,0 mm 0,0 km/h (0 Bft) SO 140 0 min 0,000 mm 0,0 UV-I 9 W/m 13,0 C 0,0 km/h (0 Bft)
09.08.2016 06:58 13,8 C 13,8 C 95 % 1017,3 hPa 0,0 mm 0,0 km/h (0 Bft) SO 140 0 min 0,000 mm 0,0 UV-I 9 W/m 13,0 C 0,0 km/h (0 Bft)
09.08.2016 06:59 13,8 C 13,8 C 95 % 1017,3 hPa 0,0 mm 0,0 km/h (0 Bft) SO 140 0 min 0,000 mm 0,0 UV-I 9 W/m 13,0 C 0,0 km/h (0 Bft)
09.08.2016 07:00 13,8 C 13,8 C 95 % 1017,3 hPa 0,0 mm 0,0 km/h (0 Bft) SO 140 0 min 0,000 mm 0,0 UV-I 9 W/m 13,0 C 0,0 km/h (0 Bft)
09.08.2016 07:01 13,8 C 13,8 C 95 % 1017,3 hPa 0,0 mm 0,0 km/h (0 Bft) SO 140 0 min 0,000 mm 0,0 UV-I 11 W/m 13,0 C 0,0 km/h (0 Bft)
09.08.2016 07:02 13,8 C 13,8 C 95 % 1017,2 hPa 0,0 mm 0,0 km/h (0 Bft) SO 140 0 min 0,000 mm 0,0 UV-I 11 W/m 13,0 C 0,0 km/h (0 Bft)
09.08.2016 07:03 13,8 C 13,8 C 95 % 1017,2 hPa 0,0 mm 0,0 km/h (0 Bft) SO 140 0 min 0,000 mm 0,0 UV-I 11 W/m 13,0 C 0,0 km/h (0 Bft)
09.08.2016 07:04 13,8 C 13,8 C 95 % 1017,2 hPa 0,0 mm 0,0 km/h (0 Bft) SO 140 0 min 0,000 mm 0,0 UV-I 11 W/m 13,0 C 0,0 km/h (0 Bft)
09.08.2016 07:05 13,8 C 13,8 C 95 % 1017,2 hPa 0,0 mm 0,0 km/h (0 Bft) SO 140 0 min 0,000 mm 0,0 UV-I 11 W/m 13,0 C 0,0 km/h (0 Bft)
09.08.2016 07:06 13,8 C 13,8 C 95 % 1017,3 hPa 0,0 mm 0,0 km/h (0 Bft) SO 140 0 min 0,000 mm 0,0 UV-I 11 W/m 13,0 C 0,0 km/h (0 Bft)
09.08.2016 07:07 13,8 C 13,8 C 95 % 1017,2 hPa 0,0 mm 0,0 km/h (0 Bft) SO 140 0 min 0,000 mm 0,0 UV-I 11 W/m 13,0 C 0,0 km/h (0 Bft)
09.08.2016 07:08 13,8 C 13,8 C 95 % 1017,3 hPa 0,0 mm 0,0 km/h (0 Bft) SO 140 0 min 0,000 mm 0,0 UV-I 12 W/m 13,0 C 0,0 km/h (0 Bft)
09.08.2016 07:09 13,8 C 13,8 C 95 % 1017,3 hPa 0,0 mm 0,0 km/h (0 Bft) SO 140 0 min 0,000 mm 0,0 UV-I 12 W/m 13,0 C 0,0 km/h (0 Bft)
09.08.2016 07:10 13,8 C 13,8 C 95 % 1017,3 hPa 0,0 mm 0,0 km/h (0 Bft) SO 140 0 min 0,000 mm 0,0 UV-I 12 W/m 13,0 C 0,0 km/h (0 Bft)
09.08.2016 07:11 13,8 C 13,8 C 95 % 1017,3 hPa 0,0 mm 0,0 km/h (0 Bft) SO 140 0 min 0,000 mm 0,0 UV-I 12 W/m 13,0 C 0,0 km/h (0 Bft)
09.08.2016 07:12 13,8 C 13,8 C 95 % 1017,3 hPa 0,0 mm 0,0 km/h (0 Bft) SO 140 0 min 0,000 mm 0,0 UV-I 12 W/m 13,0 C 0,0 km/h (0 Bft)
09.08.2016 07:13 13,8 C 13,8 C 95 % 1017,3 hPa 0,2 mm 0,0 km/h (0 Bft) SO 140 0 min 0,000 mm 0,0 UV-I 12 W/m 13,0 C 0,0 km/h (0 Bft)
09.08.2016 07:14 13,8 C 13,8 C 95 % 1017,3 hPa 0,0 mm 0,0 km/h (0 Bft) SO 140 0 min 0,000 mm 0,0 UV-I 12 W/m 13,0 C 0,0 km/h (0 Bft)
09.08.2016 07:15 13,8 C 13,8 C 95 % 1017,3 hPa 0,0 mm 0,0 km/h (0 Bft) SO 140 0 min 0,000 mm 0,0 UV-I 12 W/m 13,0 C 0,0 km/h (0 Bft)
09.08.2016 07:16 13,8 C 13,8 C 95 % 1017,2 hPa 0,0 mm 0,0 km/h (0 Bft) SO 140 0 min 0,000 mm 0,0 UV-I 14 W/m 13,0 C 0,0 km/h (0 Bft)
09.08.2016 07:17 13,8 C 13,8 C 95 % 1017,2 hPa 0,0 mm 0,0 km/h (0 Bft) SO 140 0 min 0,000 mm 0,0 UV-I 12 W/m 13,0 C 0,0 km/h (0 Bft)
09.08.2016 07:18 13,8 C 13,8 C 95 % 1017,2 hPa 0,0 mm 0,0 km/h (0 Bft) SO 140 0 min 0,000 mm 0,0 UV-I 12 W/m 13,0 C 0,0 km/h (0 Bft)
09.08.2016 07:19 13,8 C 13,8 C 95 % 1017,2 hPa 0,0 mm 0,0 km/h (0 Bft) SO 140 0 min 0,000 mm 0,0 UV-I 12 W/m 13,0 C 0,0 km/h (0 Bft)
09.08.2016 07:20 13,8 C 13,8 C 95 % 1017,2 hPa 0,0 mm 0,0 km/h (0 Bft) SO 140 0 min 0,000 mm 0,0 UV-I 11 W/m 13,0 C 0,0 km/h (0 Bft)
09.08.2016 07:21 13,8 C 13,8 C 95 % 1017,3 hPa 0,0 mm 0,4 km/h (0 Bft) SO 140 0 min 0,000 mm 0,0 UV-I 9 W/m 13,0 C 1,6 km/h (1 Bft)
09.08.2016 07:22 13,8 C 13,8 C 95 % 1017,3 hPa 0,0 mm 0,5 km/h (0 Bft) SO 140 0 min 0,000 mm 0,0 UV-I 9 W/m 13,0 C 1,6 km/h (1 Bft)
09.08.2016 07:23 13,8 C 13,8 C 95 % 1017,2 hPa 0,0 mm 1,1 km/h (1 Bft) S 182 0 min 0,000 mm 0,0 UV-I 9 W/m 13,0 C 3,2 km/h (1 Bft)
09.08.2016 07:24 13,8 C 13,8 C 95 % 1017,3 hPa 0,0 mm 2,0 km/h (1 Bft) S 182 0 min 0,000 mm 0,0 UV-I 7 W/m 13,0 C 3,2 km/h (1 Bft)
09.08.2016 07:25 13,8 C 13,8 C 95 % 1017,3 hPa 0,2 mm 2,6 km/h (1 Bft) W-SW 257 0 min 0,000 mm 0,0 UV-I 7 W/m 13,0 C 3,2 km/h (1 Bft)
09.08.2016 07:26 13,8 C 13,8 C 95 % 1017,3 hPa 0,0 mm 1,5 km/h (1 Bft) W-SW 257 0 min 0,000 mm 0,0 UV-I 7 W/m 13,0 C 1,6 km/h (1 Bft)
09.08.2016 07:27 13,8 C 13,8 C 95 % 1017,2 hPa 0,0 mm 0,3 km/h (0 Bft) W-SW 257 0 min 0,000 mm 0,0 UV-I 7 W/m 13,0 C 1,6 km/h (1 Bft)
09.08.2016 07:28 13,8 C 13,8 C 95 % 1017,2 hPa 0,2 mm 0,0 km/h (0 Bft) W-SW 257 0 min 0,000 mm 0,0 UV-I 7 W/m 13,0 C 0,0 km/h (0 Bft)
09.08.2016 07:29 13,8 C 13,8 C 95 % 1017,2 hPa 0,0 mm 0,0 km/h (0 Bft) W-SW 257 0 min 0,000 mm 0,0 UV-I 9 W/m 13,0 C 0,0 km/h (0 Bft)
09.08.2016 07:30 13,8 C 13,8 C 95 % 1017,2 hPa 0,0 mm 0,6 km/h (0 Bft) W-SW 257 0 min 0,000 mm 0,0 UV-I 9 W/m 13,0 C 1,6 km/h (1 Bft)
09.08.2016 07:31 13,8 C 13,8 C 95 % 1017,3 hPa 0,2 mm 1,9 km/h (1 Bft) W-SW 257 0 min 0,000 mm 0,0 UV-I 9 W/m 13,0 C 3,2 km/h (1 Bft)
09.08.2016 07:32 13,8 C 13,8 C 95 % 1017,3 hPa 0,0 mm 0,5 km/h (0 Bft) W-SW 257 0 min 0,000 mm 0,0 UV-I 11 W/m 13,0 C 1,6 km/h (1 Bft)
09.08.2016 07:33 13,8 C 13,8 C 95 % 1017,3 hPa 0,0 mm 0,1 km/h (0 Bft) W-SW 257 0 min 0,000 mm 0,0 UV-I 11 W/m 13,0 C 1,6 km/h (1 Bft)
09.08.2016 07:34 13,8 C 13,8 C 95 % 1017,3 hPa 0,0 mm 0,0 km/h (0 Bft) W-SW 257 0 min 0,000 mm 0,0 UV-I 11 W/m 13,0 C 0,0 km/h (0 Bft)
09.08.2016 07:35 13,8 C 13,8 C 95 % 1017,3 hPa 0,0 mm 0,4 km/h (0 Bft) W-SW 257 0 min 0,000 mm 0,0 UV-I 11 W/m 13,0 C 3,2 km/h (1 Bft)
09.08.2016 07:36 13,8 C 13,8 C 95 % 1017,3 hPa 0,0 mm 1,0 km/h (0 Bft) W-SW 257 0 min 0,000 mm 0,0 UV-I 9 W/m 13,0 C 1,6 km/h (1 Bft)
09.08.2016 07:37 13,8 C 13,8 C 95 % 1017,3 hPa 0,0 mm 1,5 km/h (1 Bft) W-SW 256 0 min 0,000 mm 0,0 UV-I 9 W/m 13,0 C 3,2 km/h (1 Bft)
09.08.2016 07:38 13,8 C 13,8 C 95 % 1017,4 hPa 0,0 mm 0,4 km/h (0 Bft) W-SW 256 0 min 0,000 mm 0,0 UV-I 7 W/m 13,0 C 1,6 km/h (1 Bft)
09.08.2016 07:39 13,8 C 13,8 C 95 % 1017,4 hPa 0,0 mm 0,1 km/h (0 Bft) W-SW 256 0 min 0,000 mm 0,0 UV-I 7 W/m 13,0 C 1,6 km/h (1 Bft)
09.08.2016 07:40 13,8 C 13,8 C 95 % 1017,4 hPa 0,0 mm 0,1 km/h (0 Bft) W-SW 256 0 min 0,000 mm 0,0 UV-I 5 W/m 13,0 C 1,6 km/h (1 Bft)
09.08.2016 07:41 13,8 C 13,8 C 95 % 1017,4 hPa 0,0 mm 0,3 km/h (0 Bft) W-SW 256 0 min 0,000 mm 0,0 UV-I 5 W/m 13,0 C 1,6 km/h (1 Bft)
09.08.2016 07:42 13,8 C 13,8 C 95 % 1017,4 hPa 0,2 mm 0,1 km/h (0 Bft) W-SW 256 0 min 0,000 mm 0,0 UV-I 5 W/m 13,0 C 1,6 km/h (1 Bft)
09.08.2016 07:43 13,8 C 13,8 C 95 % 1017,5 hPa 0,0 mm 0,1 km/h (0 Bft) W-SW 256 0 min 0,000 mm 0,0 UV-I 7 W/m 13,0 C 1,6 km/h (1 Bft)
09.08.2016 07:44 13,8 C 13,8 C 95 % 1017,4 hPa 0,0 mm 0,2 km/h (0 Bft) W-SW 256 0 min 0,000 mm 0,0 UV-I 9 W/m 13,0 C 1,6 km/h (1 Bft)
09.08.2016 07:45 13,8 C 13,8 C 95 % 1017,4 hPa 0,0 mm 1,8 km/h (1 Bft) W-SW 256 0 min 0,000 mm 0,0 UV-I 9 W/m 13,0 C 3,2 km/h (1 Bft)
09.08.2016 07:46 13,9 C 13,9 C 95 % 1017,4 hPa 0,0 mm 0,4 km/h (0 Bft) W-SW 256 0 min 0,000 mm 0,0 UV-I 11 W/m 13,1 C 1,6 km/h (1 Bft)
09.08.2016 07:47 13,9 C 13,9 C 95 % 1017,5 hPa 0,0 mm 0,3 km/h (0 Bft) W-SW 256 0 min 0,000 mm 0,0 UV-I 12 W/m 13,1 C 1,6 km/h (1 Bft)
09.08.2016 07:48 13,9 C 13,9 C 95 % 1017,4 hPa 0,2 mm 1,3 km/h (1 Bft) W-SW 256 0 min 0,000 mm 0,0 UV-I 14 W/m 13,1 C 3,2 km/h (1 Bft)
09.08.2016 07:49 13,9 C 13,9 C 95 % 1017,5 hPa 0,0 mm 1,3 km/h (1 Bft) W-SW 256 0 min 0,000 mm 0,0 UV-I 16 W/m 13,1 C 3,2 km/h (1 Bft)
09.08.2016 07:50 13,9 C 13,9 C 95 % 1017,5 hPa 0,0 mm 1,5 km/h (1 Bft) W-SW 256 0 min 0,000 mm 0,0 UV-I 18 W/m 13,1 C 1,6 km/h (1 Bft)
09.08.2016 07:51 13,9 C 13,9 C 95 % 1017,6 hPa 0,0 mm 1,8 km/h (1 Bft) W-SW 256 0 min 0,000 mm 0,0 UV-I 16 W/m 13,1 C 3,2 km/h (1 Bft)
09.08.2016 07:52 13,9 C 13,9 C 95 % 1017,6 hPa 0,2 mm 1,3 km/h (1 Bft) W-SW 256 0 min 0,000 mm 0,0 UV-I 16 W/m 13,1 C 3,2 km/h (1 Bft)
09.08.2016 07:53 13,9 C 13,9 C 95 % 1017,6 hPa 0,0 mm 0,0 km/h (0 Bft) W-SW 256 0 min 0,000 mm 0,0 UV-I 16 W/m 13,1 C 0,0 km/h (0 Bft)
09.08.2016 07:54 13,8 C 13,9 C 95 % 1017,6 hPa 0,0 mm 0,0 km/h (0 Bft) W-SW 256 0 min 0,000 mm 0,0 UV-I 18 W/m 13,0 C 0,0 km/h (0 Bft)
09.08.2016 07:55 13,9 C 13,9 C 95 % 1017,6 hPa 0,0 mm 0,7 km/h (0 Bft) W-SW 256 0 min 0,000 mm 0,0 UV-I 19 W/m 13,1 C 3,2 km/h (1 Bft)
09.08.2016 07:56 13,9 C 13,9 C 95 % 1017,6 hPa 0,0 mm 1,8 km/h (1 Bft) W-SW 256 0 min 0,000 mm 0,0 UV-I 25 W/m 13,1 C 3,2 km/h (1 Bft)
09.08.2016 07:57 13,9 C 13,9 C 95 % 1017,5 hPa 0,0 mm 0,1 km/h (0 Bft) W-SW 256 0 min 0,000 mm 0,0 UV-I 26 W/m 13,1 C 1,6 km/h (1 Bft)
09.08.2016 07:58 13,9 C 13,9 C 95 % 1017,5 hPa 0,0 mm 0,2 km/h (0 Bft) W-SW 256 0 min 0,000 mm 0,0 UV-I 28 W/m 13,1 C 1,6 km/h (1 Bft)
09.08.2016 07:59 13,8 C 13,9 C 95 % 1017,5 hPa 0,0 mm 0,3 km/h (0 Bft) W-SW 256 0 min 0,000 mm 0,0 UV-I 26 W/m 13,0 C 1,6 km/h (1 Bft)
09.08.2016 08:00 13,8 C 13,8 C 95 % 1017,6 hPa 0,0 mm 0,0 km/h (0 Bft) W-SW 256 0 min 0,000 mm 0,0 UV-I 25 W/m 13,0 C 0,0 km/h (0 Bft)
09.08.2016 08:01 13,8 C 13,9 C 95 % 1017,5 hPa 0,2 mm 0,0 km/h (0 Bft) W-SW 256 0 min 0,000 mm 0,0 UV-I 23 W/m 13,0 C 0,0 km/h (0 Bft)
09.08.2016 08:02 13,8 C 13,8 C 95 % 1017,5 hPa 0,0 mm 0,0 km/h (0 Bft) W-SW 256 0 min 0,000 mm 0,0 UV-I 21 W/m 13,0 C 0,0 km/h (0 Bft)
09.08.2016 08:03 13,8 C 13,8 C 95 % 1017,6 hPa 0,2 mm 1,7 km/h (1 Bft) W-SW 256 0 min 0,000 mm 0,0 UV-I 18 W/m 13,0 C 3,2 km/h (1 Bft)
09.08.2016 08:04 13,8 C 13,8 C 95 % 1017,7 hPa 0,0 mm 1,3 km/h (1 Bft) W-SW 256 0 min 0,000 mm 0,0 UV-I 12 W/m 13,0 C 1,6 km/h (1 Bft)
09.08.2016 08:05 13,8 C 13,8 C 95 % 1017,8 hPa 0,0 mm 0,6 km/h (0 Bft) W-SW 256 0 min 0,000 mm 0,0 UV-I 12 W/m 13,0 C 1,6 km/h (1 Bft)
09.08.2016 08:06 13,8 C 13,8 C 95 % 1017,7 hPa 0,2 mm 0,9 km/h (0 Bft) W-SW 256 0 min 0,000 mm 0,0 UV-I 14 W/m 13,0 C 1,6 km/h (1 Bft)
09.08.2016 08:07 13,8 C 13,8 C 95 % 1017,7 hPa 0,0 mm 0,7 km/h (0 Bft) W-SW 256 0 min 0,000 mm 0,0 UV-I 14 W/m 13,0 C 1,6 km/h (1 Bft)
09.08.2016 08:08 13,9 C 13,9 C 95 % 1017,7 hPa 0,0 mm 1,5 km/h (1 Bft) W-SW 256 0 min 0,000 mm 0,0 UV-I 18 W/m 13,1 C 3,2 km/h (1 Bft)
09.08.2016 08:09 13,8 C 13,9 C 95 % 1017,8 hPa 0,2 mm 1,4 km/h (1 Bft) W-SW 256 0 min 0,000 mm 0,0 UV-I 19 W/m 13,0 C 3,2 km/h (1 Bft)
09.08.2016 08:10 13,8 C 13,8 C 95 % 1017,7 hPa 0,0 mm 1,5 km/h (1 Bft) SW 231 0 min 0,000 mm 0,0 UV-I 21 W/m 13,0 C 3,2 km/h (1 Bft)
09.08.2016 08:11 13,8 C 13,8 C 95 % 1017,7 hPa 0,0 mm 2,5 km/h (1 Bft) S-SW 192 0 min 0,000 mm 0,0 UV-I 19 W/m 13,0 C 3,2 km/h (1 Bft)
09.08.2016 08:12 13,8 C 13,9 C 95 % 1017,8 hPa 0,0 mm 0,8 km/h (0 Bft) S-SW 192 0 min 0,000 mm 0,0 UV-I 19 W/m 13,0 C 1,6 km/h (1 Bft)
09.08.2016 08:13 13,8 C 13,8 C 95 % 1017,8 hPa 0,2 mm 0,7 km/h (0 Bft) S-SW 192 0 min 0,000 mm 0,0 UV-I 19 W/m 13,0 C 1,6 km/h (1 Bft)
09.08.2016 08:14 13,8 C 13,9 C 95 % 1017,7 hPa 0,0 mm 1,2 km/h (1 Bft) S-SW 192 0 min 0,000 mm 0,0 UV-I 19 W/m 13,0 C 1,6 km/h (1 Bft)
09.08.2016 08:15 13,9 C 13,9 C 95 % 1017,6 hPa 0,0 mm 0,5 km/h (0 Bft) S-SW 192 0 min 0,000 mm 0,0 UV-I 18 W/m 13,1 C 1,6 km/h (1 Bft)
09.08.2016 08:16 13,9 C 13,9 C 95 % 1017,6 hPa 0,2 mm 0,1 km/h (0 Bft) S-SW 192 0 min 0,000 mm 0,0 UV-I 16 W/m 13,1 C 1,6 km/h (1 Bft)
09.08.2016 08:17 13,9 C 13,9 C 95 % 1017,5 hPa 0,0 mm 0,0 km/h (0 Bft) S-SW 192 0 min 0,000 mm 0,0 UV-I 14 W/m 13,1 C 0,0 km/h (0 Bft)
09.08.2016 08:18 13,9 C 13,9 C 95 % 1017,5 hPa 0,2 mm 0,0 km/h (0 Bft) S-SW 192 0 min 0,000 mm 0,0 UV-I 14 W/m 13,1 C 0,0 km/h (0 Bft)
09.08.2016 08:19 13,9 C 13,9 C 95 % 1017,5 hPa 0,0 mm 0,0 km/h (0 Bft) S-SW 192 0 min 0,000 mm 0,0 UV-I 12 W/m 13,1 C 0,0 km/h (0 Bft)
09.08.2016 08:20 13,9 C 13,9 C 95 % 1017,4 hPa 0,2 mm 0,2 km/h (0 Bft) S-SW 192 0 min 0,000 mm 0,0 UV-I 12 W/m 13,1 C 1,6 km/h (1 Bft)
09.08.2016 08:21 13,9 C 13,9 C 95 % 1017,4 hPa 0,0 mm 1,9 km/h (1 Bft) S 187 0 min 0,000 mm 0,0 UV-I 12 W/m 13,1 C 3,2 km/h (1 Bft)
09.08.2016 08:22 13,9 C 13,9 C 95 % 1017,3 hPa 0,0 mm 2,3 km/h (1 Bft) S-SO 167 0 min 0,000 mm 0,0 UV-I 12 W/m 13,1 C 4,8 km/h (1 Bft)
09.08.2016 08:23 13,9 C 13,9 C 95 % 1017,3 hPa 0,2 mm 2,7 km/h (1 Bft) SO 136 0 min 0,000 mm 0,0 UV-I 12 W/m 13,1 C 4,8 km/h (1 Bft)
09.08.2016 08:24 13,9 C 13,9 C 95 % 1017,2 hPa 0,0 mm 1,7 km/h (1 Bft) SO 136 0 min 0,000 mm 0,0 UV-I 12 W/m 13,1 C 3,2 km/h (1 Bft)
09.08.2016 08:25 13,9 C 13,9 C 95 % 1017,3 hPa 0,0 mm 0,5 km/h (0 Bft) SO 136 0 min 0,000 mm 0,0 UV-I 12 W/m 13,1 C 1,6 km/h (1 Bft)
09.08.2016 08:26 13,9 C 13,9 C 95 % 1017,3 hPa 0,0 mm 0,0 km/h (0 Bft) SO 136 0 min 0,000 mm 0,0 UV-I 12 W/m 13,1 C 0,0 km/h (0 Bft)
09.08.2016 08:27 13,8 C 13,9 C 95 % 1017,4 hPa 0,0 mm 1,6 km/h (1 Bft) SO 136 0 min 0,000 mm 0,0 UV-I 12 W/m 13,0 C 3,2 km/h (1 Bft)
09.08.2016 08:28 13,8 C 13,9 C 95 % 1017,3 hPa 0,2 mm 0,9 km/h (0 Bft) SO 136 0 min 0,000 mm 0,0 UV-I 12 W/m 13,0 C 1,6 km/h (1 Bft)
09.08.2016 08:29 13,8 C 13,8 C 95 % 1017,4 hPa 0,0 mm 0,4 km/h (0 Bft) SO 136 0 min 0,000 mm 0,0 UV-I 12 W/m 13,0 C 1,6 km/h (1 Bft)
09.08.2016 08:30 13,8 C 13,8 C 95 % 1017,4 hPa 0,0 mm 0,5 km/h (0 Bft) SO 136 0 min 0,000 mm 0,0 UV-I 12 W/m 13,0 C 1,6 km/h (1 Bft)
09.08.2016 08:31 13,8 C 13,8 C 95 % 1017,4 hPa 0,2 mm 0,2 km/h (0 Bft) SO 136 0 min 0,000 mm 0,0 UV-I 14 W/m 13,0 C 1,6 km/h (1 Bft)
09.08.2016 08:32 13,8 C 13,8 C 95 % 1017,5 hPa 0,2 mm 0,2 km/h (0 Bft) SO 136 0 min 0,000 mm 0,0 UV-I 14 W/m 13,0 C 1,6 km/h (1 Bft)
09.08.2016 08:33 13,8 C 13,8 C 95 % 1017,5 hPa 0,0 mm 0,2 km/h (0 Bft) SO 136 0 min 0,000 mm 0,0 UV-I 14 W/m 13,0 C 1,6 km/h (1 Bft)
09.08.2016 08:34 13,8 C 13,8 C 95 % 1017,4 hPa 0,2 mm 0,5 km/h (0 Bft) SO 136 0 min 0,000 mm 0,0 UV-I 14 W/m 13,0 C 1,6 km/h (1 Bft)
09.08.2016 08:35 13,8 C 13,8 C 95 % 1017,5 hPa 0,0 mm 0,1 km/h (0 Bft) SO 136 0 min 0,000 mm 0,0 UV-I 14 W/m 13,0 C 1,6 km/h (1 Bft)
09.08.2016 08:36 13,8 C 13,8 C 95 % 1017,5 hPa 0,2 mm 1,7 km/h (1 Bft) S 169 0 min 0,000 mm 0,0 UV-I 14 W/m 13,0 C 3,2 km/h (1 Bft)
09.08.2016 08:37 13,8 C 13,8 C 95 % 1017,5 hPa 0,2 mm 0,0 km/h (0 Bft) S 169 0 min 0,000 mm 0,0 UV-I 16 W/m 13,0 C 0,0 km/h (0 Bft)
09.08.2016 08:38 13,8 C 13,8 C 95 % 1017,5 hPa 0,0 mm 0,0 km/h (0 Bft) S 169 0 min 0,000 mm 0,0 UV-I 16 W/m 13,0 C 0,0 km/h (0 Bft)
09.08.2016 08:39 13,8 C 13,8 C 95 % 1017,5 hPa 0,0 mm 0,0 km/h (0 Bft) S 169 0 min 0,000 mm 0,0 UV-I 16 W/m 13,0 C 0,0 km/h (0 Bft)
09.08.2016 08:40 13,8 C 13,8 C 95 % 1017,6 hPa 0,2 mm 0,1 km/h (0 Bft) S 169 0 min 0,000 mm 0,0 UV-I 16 W/m 13,0 C 1,6 km/h (1 Bft)
09.08.2016 08:41 13,8 C 13,8 C 95 % 1017,6 hPa 0,2 mm 0,5 km/h (0 Bft) S 169 0 min 0,000 mm 0,0 UV-I 18 W/m 13,0 C 1,6 km/h (1 Bft)
09.08.2016 08:42 13,8 C 13,8 C 95 % 1017,5 hPa 0,0 mm 0,8 km/h (0 Bft) S 169 0 min 0,000 mm 0,0 UV-I 18 W/m 13,0 C 1,6 km/h (1 Bft)
09.08.2016 08:43 13,8 C 13,8 C 95 % 1017,5 hPa 0,2 mm 1,0 km/h (0 Bft) S 169 0 min 0,000 mm 0,0 UV-I 19 W/m 13,0 C 3,2 km/h (1 Bft)
09.08.2016 08:44 13,8 C 13,8 C 95 % 1017,6 hPa 0,0 mm 2,5 km/h (1 Bft) SW 223 0 min 0,000 mm 0,0 UV-I 19 W/m 13,0 C 3,2 km/h (1 Bft)
09.08.2016 08:45 13,8 C 13,8 C 95 % 1017,5 hPa 0,2 mm 2,9 km/h (1 Bft) S-SW 194 0 min 0,000 mm 0,0 UV-I 19 W/m 13,0 C 4,8 km/h (1 Bft)
09.08.2016 08:46 13,8 C 13,8 C 95 % 1017,5 hPa 0,0 mm 3,0 km/h (1 Bft) S 182 0 min 0,000 mm 0,0 UV-I 19 W/m 13,0 C 6,4 km/h (2 Bft)
09.08.2016 08:47 13,8 C 13,8 C 95 % 1017,5 hPa 0,0 mm 1,8 km/h (1 Bft) S 178 0 min 0,000 mm 0,0 UV-I 19 W/m 13,0 C 3,2 km/h (1 Bft)
09.08.2016 08:48 13,8 C 13,8 C 95 % 1017,6 hPa 0,2 mm 1,0 km/h (0 Bft) S 178 0 min 0,000 mm 0,0 UV-I 21 W/m 13,0 C 3,2 km/h (1 Bft)
09.08.2016 08:49 13,8 C 13,8 C 95 % 1017,6 hPa 0,0 mm 0,3 km/h (0 Bft) S 178 0 min 0,000 mm 0,0 UV-I 23 W/m 13,0 C 1,6 km/h (1 Bft)
09.08.2016 08:50 13,8 C 13,8 C 95 % 1017,6 hPa 0,0 mm 0,5 km/h (0 Bft) S 178 0 min 0,000 mm 0,0 UV-I 23 W/m 13,0 C 1,6 km/h (1 Bft)
09.08.2016 08:51 13,9 C 13,9 C 95 % 1017,5 hPa 0,2 mm 0,6 km/h (0 Bft) S 178 0 min 0,000 mm 0,0 UV-I 26 W/m 13,1 C 1,6 km/h (1 Bft)
09.08.2016 08:52 13,9 C 13,9 C 95 % 1017,4 hPa 0,0 mm 1,3 km/h (1 Bft) S 178 0 min 0,000 mm 0,0 UV-I 28 W/m 13,1 C 3,2 km/h (1 Bft)
09.08.2016 08:53 13,9 C 13,9 C 95 % 1017,3 hPa 0,0 mm 1,7 km/h (1 Bft) S 178 0 min 0,000 mm 0,0 UV-I 32 W/m 13,1 C 3,2 km/h (1 Bft)
09.08.2016 08:54 13,9 C 13,9 C 95 % 1017,3 hPa 0,0 mm 0,6 km/h (0 Bft) S 178 0 min 0,000 mm 0,0 UV-I 33 W/m 13,1 C 1,6 km/h (1 Bft)
09.08.2016 08:55 13,9 C 13,9 C 95 % 1017,3 hPa 0,2 mm 0,4 km/h (0 Bft) S 177 0 min 0,000 mm 0,0 UV-I 33 W/m 13,1 C 1,6 km/h (1 Bft)
09.08.2016 08:56 13,9 C 13,9 C 95 % 1017,3 hPa 0,0 mm 0,3 km/h (0 Bft) S 177 0 min 0,000 mm 0,0 UV-I 35 W/m 13,1 C 1,6 km/h (1 Bft)
09.08.2016 08:57 13,9 C 13,9 C 95 % 1017,3 hPa 0,2 mm 0,5 km/h (0 Bft) S 177 0 min 0,000 mm 0,0 UV-I 35 W/m 13,1 C 1,6 km/h (1 Bft)
09.08.2016 08:58 13,9 C 13,9 C 95 % 1017,3 hPa 0,0 mm 0,9 km/h (0 Bft) S 177 0 min 0,000 mm 0,0 UV-I 35 W/m 13,1 C 1,6 km/h (1 Bft)
09.08.2016 08:59 13,9 C 13,9 C 95 % 1017,3 hPa 0,0 mm 0,5 km/h (0 Bft) S 177 0 min 0,000 mm 0,0 UV-I 37 W/m 13,1 C 1,6 km/h (1 Bft)
09.08.2016 09:00 13,9 C 13,9 C 95 % 1017,3 hPa 0,2 mm 0,6 km/h (0 Bft) S 177 0 min 0,000 mm 0,0 UV-I 40 W/m 13,1 C 1,6 km/h (1 Bft)
09.08.2016 09:01 13,9 C 13,9 C 95 % 1017,3 hPa 0,0 mm 0,9 km/h (0 Bft) S 177 0 min 0,000 mm 0,0 UV-I 42 W/m 13,1 C 1,6 km/h (1 Bft)
09.08.2016 09:02 13,9 C 13,9 C 95 % 1017,3 hPa 0,0 mm 2,0 km/h (1 Bft) NW 313 0 min 0,000 mm 0,0 UV-I 46 W/m 13,1 C 3,2 km/h (1 Bft)
09.08.2016 09:03 14,0 C 14,0 C 96 % 1017,3 hPa 0,2 mm 2,5 km/h (1 Bft) NW 317 0 min 0,000 mm 0,0 UV-I 46 W/m 13,4 C 3,2 km/h (1 Bft)
09.08.2016 09:04 14,0 C 14,0 C 96 % 1017,3 hPa 0,0 mm 0,9 km/h (0 Bft) NW 317 0 min 0,000 mm 0,0 UV-I 51 W/m 13,4 C 1,6 km/h (1 Bft)
09.08.2016 09:05 14,1 C 14,1 C 96 % 1017,3 hPa 0,0 mm 0,7 km/h (0 Bft) NW 317 0 min 0,000 mm 0,0 UV-I 53 W/m 13,5 C 1,6 km/h (1 Bft)
09.08.2016 09:06 14,1 C 14,1 C 95 % 1017,2 hPa 0,0 mm 0,4 km/h (0 Bft) NW 317 0 min 0,000 mm 0,0 UV-I 56 W/m 13,3 C 1,6 km/h (1 Bft)
09.08.2016 09:07 14,1 C 14,1 C 95 % 1017,2 hPa 0,0 mm 1,1 km/h (1 Bft) NW 317 0 min 0,000 mm 0,0 UV-I 58 W/m 13,3 C 1,6 km/h (1 Bft)
09.08.2016 09:08 14,1 C 14,1 C 95 % 1017,3 hPa 0,2 mm 1,3 km/h (1 Bft) NW 317 0 min 0,000 mm 0,0 UV-I 58 W/m 13,3 C 3,2 km/h (1 Bft)
09.08.2016 09:09 14,1 C 14,1 C 95 % 1017,3 hPa 0,0 mm 2,4 km/h (1 Bft) NW 321 0 min 0,000 mm 0,0 UV-I 58 W/m 13,3 C 3,2 km/h (1 Bft)
09.08.2016 09:10 14,2 C 14,2 C 95 % 1017,2 hPa 0,0 mm 2,2 km/h (1 Bft) NW 321 0 min 0,000 mm 0,0 UV-I 58 W/m 13,4 C 3,2 km/h (1 Bft)
09.08.2016 09:11 14,2 C 14,2 C 95 % 1017,2 hPa 0,0 mm 2,3 km/h (1 Bft) NW 321 0 min 0,000 mm 0,0 UV-I 56 W/m 13,4 C 3,2 km/h (1 Bft)
09.08.2016 09:12 14,2 C 14,2 C 95 % 1017,3 hPa 0,0 mm 2,7 km/h (1 Bft) N-NW 327 0 min 0,000 mm 0,0 UV-I 54 W/m 13,4 C 3,2 km/h (1 Bft)
09.08.2016 09:13 14,2 C 14,2 C 95 % 1017,3 hPa 0,0 mm 1,5 km/h (1 Bft) N-NW 327 0 min 0,000 mm 0,0 UV-I 56 W/m 13,4 C 3,2 km/h (1 Bft)
09.08.2016 09:14 14,3 C 14,3 C 95 % 1017,3 hPa 0,0 mm 1,2 km/h (1 Bft) N-NW 327 0 min 0,000 mm 0,0 UV-I 58 W/m 13,5 C 1,6 km/h (1 Bft)
09.08.2016 09:15 14,3 C 14,3 C 95 % 1017,3 hPa 0,0 mm 0,2 km/h (0 Bft) N-NW 327 0 min 0,000 mm 0,5 UV-I 62 W/m 13,5 C 1,6 km/h (1 Bft)
09.08.2016 09:16 14,3 C 14,3 C 95 % 1017,2 hPa 0,0 mm 0,0 km/h (0 Bft) N-NW 327 0 min 0,000 mm 0,5 UV-I 63 W/m 13,5 C 0,0 km/h (0 Bft)
09.08.2016 09:17 14,3 C 14,3 C 95 % 1017,2 hPa 0,0 mm 0,0 km/h (0 Bft) N-NW 327 0 min 0,000 mm 0,5 UV-I 65 W/m 13,5 C 0,0 km/h (0 Bft)
09.08.2016 09:18 14,3 C 14,3 C 95 % 1017,2 hPa 0,0 mm 0,2 km/h (0 Bft) N-NW 327 0 min 0,000 mm 0,5 UV-I 67 W/m 13,5 C 1,6 km/h (1 Bft)
09.08.2016 09:19 14,3 C 14,3 C 95 % 1017,2 hPa 0,0 mm 1,0 km/h (0 Bft) N-NW 327 0 min 0,000 mm 0,5 UV-I 67 W/m 13,5 C 3,2 km/h (1 Bft)
09.08.2016 09:20 14,3 C 14,4 C 95 % 1017,2 hPa 0,0 mm 0,8 km/h (0 Bft) N-NW 327 0 min 0,000 mm 0,5 UV-I 67 W/m 13,5 C 1,6 km/h (1 Bft)
09.08.2016 09:21 14,4 C 14,4 C 95 % 1017,2 hPa 0,0 mm 1,8 km/h (1 Bft) N-NW 327 0 min 0,000 mm 0,6 UV-I 69 W/m 13,6 C 3,2 km/h (1 Bft)
09.08.2016 09:22 14,4 C 14,4 C 95 % 1017,3 hPa 0,0 mm 0,4 km/h (0 Bft) N-NW 327 0 min 0,000 mm 0,6 UV-I 70 W/m 13,6 C 1,6 km/h (1 Bft)
09.08.2016 09:23 14,4 C 14,4 C 95 % 1017,2 hPa 0,0 mm 0,6 km/h (0 Bft) N-NW 327 0 min 0,000 mm 0,6 UV-I 72 W/m 13,6 C 1,6 km/h (1 Bft)
09.08.2016 09:24 14,4 C 14,4 C 95 % 1017,2 hPa 0,0 mm 0,6 km/h (0 Bft) N-NW 327 0 min 0,000 mm 0,6 UV-I 76 W/m 13,6 C 3,2 km/h (1 Bft)
09.08.2016 09:25 14,4 C 14,4 C 95 % 1017,1 hPa 0,0 mm 2,1 km/h (1 Bft) N-NW 327 0 min 0,000 mm 0,7 UV-I 77 W/m 13,6 C 3,2 km/h (1 Bft)
09.08.2016 09:26 14,4 C 14,4 C 95 % 1017,1 hPa 0,0 mm 1,5 km/h (1 Bft) N-NW 327 0 min 0,000 mm 0,7 UV-I 81 W/m 13,6 C 1,6 km/h (1 Bft)
09.08.2016 09:27 14,4 C 14,4 C 95 % 1017,1 hPa 0,0 mm 1,4 km/h (1 Bft) N-NW 327 0 min 0,000 mm 0,8 UV-I 84 W/m 13,6 C 1,6 km/h (1 Bft)
09.08.2016 09:28 14,4 C 14,5 C 95 % 1017,0 hPa 0,0 mm 1,3 km/h (1 Bft) N-NW 327 0 min 0,000 mm 0,9 UV-I 95 W/m 13,6 C 1,6 km/h (1 Bft)
09.08.2016 09:29 14,4 C 14,4 C 94 % 1017,0 hPa 0,0 mm 0,6 km/h (0 Bft) N-NW 327 0 min 0,000 mm 0,9 UV-I 95 W/m 13,4 C 1,6 km/h (1 Bft)
09.08.2016 09:30 14,5 C 14,5 C 94 % 1017,1 hPa 0,0 mm 0,0 km/h (0 Bft) N-NW 327 0 min 0,000 mm 1,1 UV-I 111 W/m 13,5 C 0,0 km/h (0 Bft)
09.08.2016 09:31 14,5 C 14,6 C 94 % 1017,1 hPa 0,0 mm 0,0 km/h (0 Bft) N-NW 327 0 min 0,000 mm 1,1 UV-I 118 W/m 13,5 C 0,0 km/h (0 Bft)
09.08.2016 09:32 14,6 C 14,6 C 95 % 1017,1 hPa 0,0 mm 0,8 km/h (0 Bft) N-NW 327 0 min 0,000 mm 1,2 UV-I 125 W/m 13,8 C 1,6 km/h (1 Bft)
09.08.2016 09:33 14,6 C 14,6 C 95 % 1017,2 hPa 0,0 mm 0,8 km/h (0 Bft) N-NW 327 0 min 0,000 mm 1,2 UV-I 128 W/m 13,8 C 1,6 km/h (1 Bft)
09.08.2016 09:34 14,7 C 14,7 C 95 % 1017,2 hPa 0,0 mm 0,7 km/h (0 Bft) N-NW 327 0 min 0,000 mm 1,2 UV-I 134 W/m 13,9 C 1,6 km/h (1 Bft)
09.08.2016 09:35 14,7 C 14,8 C 95 % 1017,3 hPa 0,0 mm 1,6 km/h (1 Bft) N-NW 327 0 min 0,000 mm 1,2 UV-I 144 W/m 13,9 C 3,2 km/h (1 Bft)
09.08.2016 09:36 14,8 C 14,8 C 95 % 1017,3 hPa 0,0 mm 0,9 km/h (0 Bft) NW 312 0 min 0,000 mm 1,2 UV-I 141 W/m 14,0 C 1,6 km/h (1 Bft)
09.08.2016 09:37 14,8 C 14,8 C 95 % 1017,4 hPa 0,0 mm 3,1 km/h (1 Bft) NW 304 0 min 0,000 mm 1,1 UV-I 134 W/m 14,0 C 3,2 km/h (1 Bft)
09.08.2016 09:38 14,7 C 14,8 C 95 % 1017,4 hPa 0,0 mm 2,2 km/h (1 Bft) NW 304 0 min 0,000 mm 1,0 UV-I 125 W/m 13,9 C 3,2 km/h (1 Bft)
09.08.2016 09:39 14,7 C 14,7 C 94 % 1017,4 hPa 0,0 mm 0,8 km/h (0 Bft) NW 304 0 min 0,000 mm 1,0 UV-I 121 W/m 13,7 C 1,6 km/h (1 Bft)
09.08.2016 09:40 14,7 C 14,7 C 94 % 1017,3 hPa 0,0 mm 0,1 km/h (0 Bft) NW 304 0 min 0,000 mm 1,0 UV-I 120 W/m 13,7 C 1,6 km/h (1 Bft)
09.08.2016 09:41 14,7 C 14,7 C 94 % 1017,4 hPa 0,0 mm 0,2 km/h (0 Bft) NW 304 0 min 0,000 mm 0,9 UV-I 116 W/m 13,7 C 3,2 km/h (1 Bft)
09.08.2016 09:42 14,8 C 14,8 C 94 % 1017,4 hPa 0,0 mm 2,7 km/h (1 Bft) W 281 0 min 0,000 mm 0,9 UV-I 111 W/m 13,8 C 3,2 km/h (1 Bft)
09.08.2016 09:43 14,8 C 14,8 C 95 % 1017,5 hPa 0,0 mm 2,6 km/h (1 Bft) W 281 0 min 0,000 mm 0,8 UV-I 102 W/m 14,0 C 3,2 km/h (1 Bft)
09.08.2016 09:44 14,9 C 14,9 C 95 % 1017,5 hPa 0,0 mm 1,8 km/h (1 Bft) W 281 0 min 0,000 mm 0,8 UV-I 95 W/m 14,1 C 3,2 km/h (1 Bft)
09.08.2016 09:45 14,9 C 14,9 C 95 % 1017,5 hPa 0,0 mm 1,5 km/h (1 Bft) W 281 0 min 0,000 mm 0,8 UV-I 91 W/m 14,1 C 1,6 km/h (1 Bft)
09.08.2016 09:46 14,8 C 14,9 C 94 % 1017,4 hPa 0,0 mm 0,3 km/h (0 Bft) W 281 0 min 0,000 mm 0,7 UV-I 86 W/m 13,8 C 1,6 km/h (1 Bft)
09.08.2016 09:47 14,8 C 14,8 C 94 % 1017,5 hPa 0,0 mm 0,0 km/h (0 Bft) W 281 0 min 0,000 mm 0,7 UV-I 86 W/m 13,8 C 0,0 km/h (0 Bft)
09.08.2016 09:48 14,8 C 14,8 C 94 % 1017,5 hPa 0,0 mm 0,0 km/h (0 Bft) W 281 0 min 0,000 mm 0,7 UV-I 88 W/m 13,8 C 0,0 km/h (0 Bft)
09.08.2016 09:49 14,8 C 14,8 C 94 % 1017,4 hPa 0,0 mm 0,0 km/h (0 Bft) W 281 0 min 0,000 mm 0,7 UV-I 90 W/m 13,8 C 0,0 km/h (0 Bft)
09.08.2016 09:50 14,8 C 14,8 C 94 % 1017,5 hPa 0,0 mm 0,0 km/h (0 Bft) W 281 0 min 0,000 mm 0,7 UV-I 88 W/m 13,8 C 0,0 km/h (0 Bft)
09.08.2016 09:51 14,8 C 14,8 C 94 % 1017,5 hPa 0,0 mm 0,0 km/h (0 Bft) W 281 0 min 0,000 mm 0,7 UV-I 86 W/m 13,8 C 0,0 km/h (0 Bft)
09.08.2016 09:52 14,8 C 14,8 C 94 % 1017,5 hPa 0,0 mm 0,0 km/h (0 Bft) W 281 0 min 0,000 mm 0,6 UV-I 86 W/m 13,8 C 0,0 km/h (0 Bft)
09.08.2016 09:53 14,9 C 14,9 C 94 % 1017,4 hPa 0,0 mm 0,0 km/h (0 Bft) W 281 0 min 0,000 mm 0,6 UV-I 76 W/m 13,9 C 0,0 km/h (0 Bft)
09.08.2016 09:54 14,9 C 14,9 C 94 % 1017,4 hPa 0,0 mm 0,0 km/h (0 Bft) W 281 0 min 0,000 mm 0,6 UV-I 69 W/m 13,9 C 0,0 km/h (0 Bft)
09.08.2016 09:55 14,9 C 14,9 C 94 % 1017,5 hPa 0,0 mm 0,0 km/h (0 Bft) W 281 0 min 0,000 mm 0,6 UV-I 70 W/m 13,9 C 0,0 km/h (0 Bft)
09.08.2016 09:56 14,8 C 14,9 C 93 % 1017,4 hPa 0,0 mm 0,0 km/h (0 Bft) W 281 0 min 0,000 mm 0,6 UV-I 76 W/m 13,7 C 0,0 km/h (0 Bft)
09.08.2016 09:57 14,9 C 14,9 C 94 % 1017,4 hPa 0,0 mm 0,0 km/h (0 Bft) W 281 0 min 0,000 mm 0,7 UV-I 79 W/m 13,9 C 0,0 km/h (0 Bft)
09.08.2016 09:58 14,9 C 14,9 C 94 % 1017,4 hPa 0,0 mm 0,0 km/h (0 Bft) W 281 0 min 0,000 mm 0,7 UV-I 83 W/m 13,9 C 0,0 km/h (0 Bft)
09.08.2016 09:59 14,9 C 14,9 C 94 % 1017,4 hPa 0,0 mm 0,0 km/h (0 Bft) W 281 0 min 0,000 mm 0,7 UV-I 90 W/m 13,9 C 0,0 km/h (0 Bft)
09.08.2016 10:00 14,9 C 14,9 C 94 % 1017,4 hPa 0,0 mm 1,1 km/h (1 Bft) W 281 0 min 0,000 mm 0,7 UV-I 91 W/m 13,9 C 3,2 km/h (1 Bft)
09.08.2016 10:01 14,9 C 14,9 C 94 % 1017,5 hPa 0,0 mm 0,9 km/h (0 Bft) W 281 0 min 0,051 mm 0,7 UV-I 84 W/m 13,9 C 1,6 km/h (1 Bft)
09.08.2016 10:02 14,9 C 14,9 C 93 % 1017,4 hPa 0,0 mm 0,1 km/h (0 Bft) W 281 0 min 0,000 mm 0,6 UV-I 79 W/m 13,8 C 1,6 km/h (1 Bft)
09.08.2016 10:03 14,9 C 14,9 C 94 % 1017,5 hPa 0,0 mm 1,4 km/h (1 Bft) W 281 0 min 0,000 mm 0,6 UV-I 77 W/m 13,9 C 3,2 km/h (1 Bft)
09.08.2016 10:04 14,9 C 14,9 C 94 % 1017,5 hPa 0,0 mm 0,9 km/h (0 Bft) W 281 0 min 0,000 mm 0,6 UV-I 76 W/m 13,9 C 1,6 km/h (1 Bft)
09.08.2016 10:05 14,9 C 14,9 C 94 % 1017,5 hPa 0,0 mm 0,6 km/h (0 Bft) W 281 0 min 0,000 mm 0,6 UV-I 74 W/m 13,9 C 1,6 km/h (1 Bft)
09.08.2016 10:06 14,9 C 14,9 C 93 % 1017,5 hPa 0,0 mm 0,6 km/h (0 Bft) W 281 0 min 0,000 mm 0,6 UV-I 69 W/m 13,8 C 1,6 km/h (1 Bft)
09.08.2016 10:07 14,9 C 14,9 C 93 % 1017,5 hPa 0,0 mm 1,1 km/h (1 Bft) W 281 0 min 0,000 mm 0,5 UV-I 63 W/m 13,8 C 1,6 km/h (1 Bft)
09.08.2016 10:08 14,9 C 14,9 C 92 % 1017,5 hPa 0,0 mm 0,6 km/h (0 Bft) W 281 0 min 0,000 mm 0,5 UV-I 60 W/m 13,6 C 1,6 km/h (1 Bft)
09.08.2016 10:09 14,9 C 14,9 C 93 % 1017,5 hPa 0,0 mm 1,4 km/h (1 Bft) W 281 0 min 0,000 mm 0,5 UV-I 56 W/m 13,8 C 3,2 km/h (1 Bft)
09.08.2016 10:10 14,9 C 14,9 C 93 % 1017,5 hPa 0,0 mm 1,4 km/h (1 Bft) W 281 0 min 0,000 mm 0,0 UV-I 47 W/m 13,8 C 3,2 km/h (1 Bft)
09.08.2016 10:11 14,9 C 14,9 C 93 % 1017,5 hPa 0,0 mm 0,3 km/h (0 Bft) W 281 0 min 0,000 mm 0,0 UV-I 51 W/m 13,8 C 1,6 km/h (1 Bft)
09.08.2016 10:12 14,9 C 14,9 C 93 % 1017,5 hPa 0,0 mm 0,8 km/h (0 Bft) W 281 0 min 0,000 mm 0,6 UV-I 60 W/m 13,8 C 1,6 km/h (1 Bft)
09.08.2016 10:13 14,9 C 14,9 C 93 % 1017,5 hPa 0,0 mm 0,4 km/h (0 Bft) W 281 0 min 0,000 mm 0,6 UV-I 65 W/m 13,8 C 1,6 km/h (1 Bft)
09.08.2016 10:14 14,9 C 14,9 C 93 % 1017,5 hPa 0,0 mm 0,6 km/h (0 Bft) W 281 0 min 0,000 mm 0,6 UV-I 65 W/m 13,8 C 1,6 km/h (1 Bft)
09.08.2016 10:15 14,9 C 14,9 C 93 % 1017,5 hPa 0,0 mm 0,1 km/h (0 Bft) W 281 0 min 0,000 mm 0,6 UV-I 65 W/m 13,8 C 1,6 km/h (1 Bft)
09.08.2016 10:16 14,9 C 14,9 C 92 % 1017,6 hPa 0,0 mm 0,0 km/h (0 Bft) W 281 0 min 0,000 mm 0,6 UV-I 58 W/m 13,6 C 0,0 km/h (0 Bft)
09.08.2016 10:17 14,9 C 14,9 C 92 % 1017,6 hPa 0,0 mm 0,0 km/h (0 Bft) W 281 0 min 0,000 mm 0,5 UV-I 60 W/m 13,6 C 0,0 km/h (0 Bft)
09.08.2016 10:18 14,9 C 14,9 C 92 % 1017,6 hPa 0,0 mm 0,0 km/h (0 Bft) W 281 0 min 0,000 mm 0,6 UV-I 65 W/m 13,6 C 0,0 km/h (0 Bft)
09.08.2016 10:19 14,9 C 14,9 C 93 % 1017,6 hPa 0,0 mm 0,0 km/h (0 Bft) W 281 0 min 0,000 mm 0,6 UV-I 67 W/m 13,8 C 0,0 km/h (0 Bft)
09.08.2016 10:20 14,9 C 14,9 C 93 % 1017,6 hPa 0,0 mm 1,1 km/h (1 Bft) W 281 0 min 0,000 mm 0,6 UV-I 67 W/m 13,8 C 1,6 km/h (1 Bft)
09.08.2016 10:21 14,9 C 14,9 C 93 % 1017,6 hPa 0,0 mm 1,3 km/h (1 Bft) W 281 0 min 0,000 mm 0,7 UV-I 72 W/m 13,8 C 1,6 km/h (1 Bft)
09.08.2016 10:22 14,9 C 14,9 C 93 % 1017,6 hPa 0,0 mm 0,0 km/h (0 Bft) W 281 0 min 0,000 mm 0,8 UV-I 83 W/m 13,8 C 0,0 km/h (0 Bft)
09.08.2016 10:23 14,9 C 14,9 C 93 % 1017,6 hPa 0,0 mm 0,0 km/h (0 Bft) W 281 0 min 0,000 mm 0,7 UV-I 79 W/m 13,8 C 0,0 km/h (0 Bft)
09.08.2016 10:24 14,9 C 14,9 C 92 % 1017,6 hPa 0,0 mm 0,0 km/h (0 Bft) W 281 0 min 0,000 mm 0,7 UV-I 76 W/m 13,6 C 0,0 km/h (0 Bft)
09.08.2016 10:25 14,9 C 14,9 C 92 % 1017,5 hPa 0,0 mm 0,0 km/h (0 Bft) W 281 0 min 0,000 mm 0,7 UV-I 74 W/m 13,6 C 0,0 km/h (0 Bft)
09.08.2016 10:26 14,9 C 14,9 C 93 % 1017,6 hPa 0,0 mm 0,0 km/h (0 Bft) W 281 0 min 0,000 mm 0,6 UV-I 65 W/m 13,8 C 0,0 km/h (0 Bft)
09.08.2016 10:27 14,9 C 14,9 C 93 % 1017,5 hPa 0,0 mm 0,0 km/h (0 Bft) W 281 0 min 0,000 mm 0,5 UV-I 58 W/m 13,8 C 0,0 km/h (0 Bft)
09.08.2016 10:28 14,9 C 14,9 C 93 % 1017,6 hPa 0,0 mm 0,3 km/h (0 Bft) W 281 0 min 0,000 mm 0,5 UV-I 83 W/m 13,8 C 1,6 km/h (1 Bft)
09.08.2016 10:29 14,9 C 15,0 C 93 % 1017,6 hPa 0,0 mm 1,4 km/h (1 Bft) W-NW 284 0 min 0,000 mm 1,0 UV-I 118 W/m 13,8 C 3,2 km/h (1 Bft)
09.08.2016 10:30 14,9 C 14,9 C 92 % 1017,6 hPa 0,0 mm 2,2 km/h (1 Bft) N 355 0 min 0,000 mm 1,2 UV-I 153 W/m 13,6 C 3,2 km/h (1 Bft)
09.08.2016 10:31 14,9 C 14,9 C 92 % 1017,6 hPa 0,0 mm 2,1 km/h (1 Bft) N-NO 19 0 min 0,000 mm 1,3 UV-I 160 W/m 13,6 C 3,2 km/h (1 Bft)
09.08.2016 10:32 14,9 C 14,9 C 93 % 1017,6 hPa 0,0 mm 0,8 km/h (0 Bft) N-NO 19 0 min 0,000 mm 1,1 UV-I 134 W/m 13,8 C 1,6 km/h (1 Bft)
09.08.2016 10:33 14,9 C 14,9 C 92 % 1017,6 hPa 0,0 mm 1,9 km/h (1 Bft) N-NO 19 0 min 0,000 mm 1,0 UV-I 111 W/m 13,6 C 3,2 km/h (1 Bft)
09.08.2016 10:34 14,9 C 14,9 C 93 % 1017,6 hPa 0,0 mm 1,4 km/h (1 Bft) N-NO 18 0 min 0,000 mm 0,9 UV-I 91 W/m 13,8 C 3,2 km/h (1 Bft)
09.08.2016 10:35 14,9 C 14,9 C 93 % 1017,5 hPa 0,0 mm 1,6 km/h (1 Bft) N-NO 18 0 min 0,000 mm 0,7 UV-I 79 W/m 13,8 C 3,2 km/h (1 Bft)
09.08.2016 10:36 14,9 C 14,9 C 93 % 1017,6 hPa 0,0 mm 1,2 km/h (1 Bft) N-NO 18 0 min 0,000 mm 0,6 UV-I 69 W/m 13,8 C 3,2 km/h (1 Bft)
09.08.2016 10:37 15,0 C 15,0 C 93 % 1017,6 hPa 0,0 mm 1,8 km/h (1 Bft) N-NO 18 0 min 0,000 mm 0,6 UV-I 62 W/m 13,9 C 3,2 km/h (1 Bft)
09.08.2016 10:38 15,0 C 15,0 C 93 % 1017,6 hPa 0,0 mm 0,8 km/h (0 Bft) N-NO 18 0 min 0,000 mm 0,5 UV-I 56 W/m 13,9 C 1,6 km/h (1 Bft)
09.08.2016 10:39 15,0 C 15,1 C 93 % 1017,6 hPa 0,0 mm 0,9 km/h (0 Bft) N-NO 18 0 min 0,000 mm 0,0 UV-I 54 W/m 13,9 C 1,6 km/h (1 Bft)
09.08.2016 10:40 15,0 C 15,1 C 93 % 1017,6 hPa 0,0 mm 0,0 km/h (0 Bft) N-NO 18 0 min 0,000 mm 0,5 UV-I 70 W/m 13,9 C 0,0 km/h (0 Bft)
09.08.2016 10:41 15,1 C 15,1 C 93 % 1017,5 hPa 0,0 mm 0,0 km/h (0 Bft) N-NO 18 0 min 0,000 mm 0,9 UV-I 93 W/m 14,0 C 0,0 km/h (0 Bft)
09.08.2016 10:42 15,1 C 15,1 C 93 % 1017,5 hPa 0,0 mm 0,2 km/h (0 Bft) N-NO 18 0 min 0,000 mm 1,1 UV-I 113 W/m 14,0 C 1,6 km/h (1 Bft)
09.08.2016 10:43 15,1 C 15,1 C 93 % 1017,6 hPa 0,0 mm 0,9 km/h (0 Bft) N-NO 18 0 min 0,000 mm 1,1 UV-I 118 W/m 14,0 C 1,6 km/h (1 Bft)
09.08.2016 10:44 15,1 C 15,1 C 93 % 1017,6 hPa 0,0 mm 1,0 km/h (0 Bft) N-NO 18 0 min 0,000 mm 1,1 UV-I 116 W/m 14,0 C 1,6 km/h (1 Bft)
09.08.2016 10:45 15,1 C 15,1 C 93 % 1017,6 hPa 0,0 mm 0,1 km/h (0 Bft) N-NO 18 0 min 0,000 mm 1,0 UV-I 109 W/m 14,0 C 1,6 km/h (1 Bft)
09.08.2016 10:46 15,1 C 15,2 C 93 % 1017,6 hPa 0,0 mm 0,5 km/h (0 Bft) N-NO 18 0 min 0,000 mm 0,9 UV-I 79 W/m 14,0 C 1,6 km/h (1 Bft)
09.08.2016 10:47 15,2 C 15,2 C 93 % 1017,7 hPa 0,0 mm 0,5 km/h (0 Bft) N-NO 18 0 min 0,000 mm 0,6 UV-I 72 W/m 14,1 C 1,6 km/h (1 Bft)
09.08.2016 10:48 15,2 C 15,2 C 93 % 1017,7 hPa 0,0 mm 0,1 km/h (0 Bft) N-NO 18 0 min 0,000 mm 0,6 UV-I 65 W/m 14,1 C 1,6 km/h (1 Bft)
09.08.2016 10:49 15,2 C 15,2 C 93 % 1017,7 hPa 0,0 mm 0,0 km/h (0 Bft) N-NO 18 0 min 0,000 mm 0,5 UV-I 58 W/m 14,1 C 0,0 km/h (0 Bft)
09.08.2016 10:50 15,2 C 15,2 C 94 % 1017,7 hPa 0,0 mm 0,2 km/h (0 Bft) N-NO 18 0 min 0,000 mm 0,0 UV-I 53 W/m 14,2 C 1,6 km/h (1 Bft)
09.08.2016 10:51 15,2 C 15,2 C 93 % 1017,7 hPa 0,0 mm 0,1 km/h (0 Bft) N-NO 18 0 min 0,000 mm 0,0 UV-I 54 W/m 14,1 C 1,6 km/h (1 Bft)
09.08.2016 10:52 15,2 C 15,2 C 93 % 1017,6 hPa 0,0 mm 1,9 km/h (1 Bft) N-NO 18 0 min 0,000 mm 0,0 UV-I 58 W/m 14,1 C 3,2 km/h (1 Bft)
09.08.2016 10:53 15,1 C 15,2 C 92 % 1017,6 hPa 0,0 mm 2,8 km/h (1 Bft) N-NO 18 0 min 0,000 mm 0,6 UV-I 62 W/m 13,8 C 3,2 km/h (1 Bft)
09.08.2016 10:54 15,1 C 15,1 C 91 % 1017,6 hPa 0,0 mm 1,7 km/h (1 Bft) N-NO 18 0 min 0,000 mm 0,6 UV-I 63 W/m 13,6 C 3,2 km/h (1 Bft)
09.08.2016 10:55 15,1 C 15,1 C 92 % 1017,6 hPa 0,0 mm 1,5 km/h (1 Bft) N-NO 18 0 min 0,000 mm 0,5 UV-I 60 W/m 13,8 C 1,6 km/h (1 Bft)
09.08.2016 10:56 15,1 C 15,1 C 92 % 1017,6 hPa 0,0 mm 1,1 km/h (1 Bft) N-NO 18 0 min 0,000 mm 0,0 UV-I 51 W/m 13,8 C 1,6 km/h (1 Bft)
09.08.2016 10:57 15,1 C 15,2 C 92 % 1017,7 hPa 0,0 mm 1,9 km/h (1 Bft) N 9 0 min 0,000 mm 0,0 UV-I 35 W/m 13,8 C 4,8 km/h (1 Bft)
09.08.2016 10:58 15,1 C 15,2 C 92 % 1017,7 hPa 0,0 mm 2,7 km/h (1 Bft) N 9 0 min 0,000 mm 0,0 UV-I 30 W/m 13,8 C 4,8 km/h (1 Bft)
09.08.2016 10:59 15,1 C 15,2 C 92 % 1017,7 hPa 0,0 mm 3,3 km/h (1 Bft) N 5 0 min 0,000 mm 0,0 UV-I 28 W/m 13,8 C 4,8 km/h (1 Bft)
09.08.2016 11:00 15,1 C 15,1 C 92 % 1017,7 hPa 0,0 mm 3,0 km/h (1 Bft) N 5 0 min 0,000 mm 0,0 UV-I 26 W/m 13,8 C 4,8 km/h (1 Bft)
09.08.2016 11:01 15,1 C 15,1 C 92 % 1017,6 hPa 0,0 mm 2,5 km/h (1 Bft) N 5 0 min 0,051 mm 0,0 UV-I 25 W/m 13,8 C 3,2 km/h (1 Bft)
09.08.2016 11:02 15,1 C 15,1 C 92 % 1017,6 hPa 0,0 mm 2,4 km/h (1 Bft) N 5 0 min 0,000 mm 0,0 UV-I 25 W/m 13,8 C 3,2 km/h (1 Bft)
09.08.2016 11:03 15,1 C 15,1 C 93 % 1017,7 hPa 0,0 mm 1,5 km/h (1 Bft) N 5 0 min 0,000 mm 0,0 UV-I 28 W/m 14,0 C 3,2 km/h (1 Bft)
09.08.2016 11:04 15,0 C 15,1 C 93 % 1017,7 hPa 0,0 mm 1,9 km/h (1 Bft) N 5 0 min 0,000 mm 0,0 UV-I 30 W/m 13,9 C 3,2 km/h (1 Bft)
09.08.2016 11:05 15,0 C 15,1 C 93 % 1017,7 hPa 0,0 mm 0,9 km/h (0 Bft) N 5 0 min 0,000 mm 0,0 UV-I 32 W/m 13,9 C 1,6 km/h (1 Bft)
09.08.2016 11:06 15,0 C 15,0 C 93 % 1017,7 hPa 0,0 mm 0,9 km/h (0 Bft) N 9 0 min 0,000 mm 0,0 UV-I 33 W/m 13,9 C 3,2 km/h (1 Bft)
09.08.2016 11:07 14,9 C 15,0 C 93 % 1017,7 hPa 0,0 mm 3,1 km/h (1 Bft) N 9 0 min 0,000 mm 0,0 UV-I 35 W/m 13,8 C 4,8 km/h (1 Bft)
09.08.2016 11:08 15,0 C 15,0 C 93 % 1017,6 hPa 0,0 mm 2,8 km/h (1 Bft) N 9 0 min 0,000 mm 0,0 UV-I 37 W/m 13,9 C 4,8 km/h (1 Bft)
09.08.2016 11:09 15,0 C 15,0 C 92 % 1017,7 hPa 0,0 mm 2,6 km/h (1 Bft) N-NO 14 0 min 0,000 mm 0,0 UV-I 40 W/m 13,7 C 4,8 km/h (1 Bft)
09.08.2016 11:10 14,9 C 15,0 C 93 % 1017,7 hPa 0,0 mm 2,5 km/h (1 Bft) N-NO 14 0 min 0,000 mm 0,0 UV-I 42 W/m 13,8 C 4,8 km/h (1 Bft)
09.08.2016 11:11 14,9 C 15,0 C 92 % 1017,7 hPa 0,0 mm 2,9 km/h (1 Bft) N-NW 347 0 min 0,000 mm 0,0 UV-I 46 W/m 13,6 C 4,8 km/h (1 Bft)
09.08.2016 11:12 15,0 C 15,0 C 92 % 1017,7 hPa 0,0 mm 2,9 km/h (1 Bft) N 355 0 min 0,000 mm 0,0 UV-I 51 W/m 13,7 C 4,8 km/h (1 Bft)
09.08.2016 11:13 14,9 C 15,0 C 92 % 1017,7 hPa 0,0 mm 4,0 km/h (1 Bft) N-NO 25 0 min 0,000 mm 0,6 UV-I 56 W/m 13,6 C 6,4 km/h (2 Bft)
09.08.2016 11:14 14,9 C 14,9 C 92 % 1017,7 hPa 0,0 mm 4,3 km/h (1 Bft) N 349 0 min 0,000 mm 0,6 UV-I 62 W/m 13,6 C 6,4 km/h (2 Bft)
09.08.2016 11:15 14,9 C 14,9 C 92 % 1017,7 hPa 0,0 mm 2,4 km/h (1 Bft) N 351 0 min 0,000 mm 0,6 UV-I 65 W/m 13,6 C 3,2 km/h (1 Bft)
09.08.2016 11:16 14,9 C 14,9 C 92 % 1017,8 hPa 0,0 mm 2,4 km/h (1 Bft) N 351 0 min 0,000 mm 0,6 UV-I 60 W/m 13,6 C 3,2 km/h (1 Bft)
09.08.2016 11:17 14,9 C 14,9 C 92 % 1017,8 hPa 0,0 mm 1,3 km/h (1 Bft) N 351 0 min 0,000 mm 0,0 UV-I 51 W/m 13,6 C 1,6 km/h (1 Bft)
09.08.2016 11:18 14,8 C 14,9 C 92 % 1017,8 hPa 0,0 mm 2,7 km/h (1 Bft) W-NW 298 0 min 0,000 mm 0,0 UV-I 42 W/m 13,5 C 4,8 km/h (1 Bft)
09.08.2016 11:19 14,8 C 14,8 C 91 % 1017,9 hPa 0,0 mm 4,5 km/h (1 Bft) W-NW 303 0 min 0,000 mm 0,0 UV-I 39 W/m 13,3 C 8,0 km/h (2 Bft)
09.08.2016 11:20 14,7 C 14,8 C 91 % 1017,9 hPa 0,2 mm 3,4 km/h (1 Bft) NW 304 0 min 0,000 mm 0,0 UV-I 37 W/m 13,2 C 4,8 km/h (1 Bft)
09.08.2016 11:21 14,7 C 14,7 C 92 % 1017,9 hPa 0,0 mm 4,3 km/h (1 Bft) NW 311 0 min 0,000 mm 0,0 UV-I 39 W/m 13,4 C 4,8 km/h (1 Bft)
09.08.2016 11:22 14,7 C 14,7 C 92 % 1017,9 hPa 0,2 mm 4,6 km/h (1 Bft) NW 308 0 min 0,000 mm 0,0 UV-I 42 W/m 13,4 C 6,4 km/h (2 Bft)
09.08.2016 11:23 14,6 C 14,7 C 92 % 1017,9 hPa 0,4 mm 4,8 km/h (1 Bft) W-NW 300 0 min 0,000 mm 0,0 UV-I 46 W/m 13,3 C 6,4 km/h (2 Bft)
09.08.2016 11:24 14,4 C 14,6 C 92 % 1017,9 hPa 0,0 mm 1,8 km/h (1 Bft) NO 56 0 min 0,000 mm 0,0 UV-I 44 W/m 13,1 C 4,8 km/h (1 Bft)
09.08.2016 11:25 14,4 C 14,4 C 92 % 1017,9 hPa 0,0 mm 2,5 km/h (1 Bft) O 100 0 min 0,000 mm 0,0 UV-I 42 W/m 13,1 C 3,2 km/h (1 Bft)
09.08.2016 11:26 14,4 C 14,4 C 91 % 1017,9 hPa 0,2 mm 2,5 km/h (1 Bft) N-NW 334 0 min 0,000 mm 0,0 UV-I 30 W/m 12,9 C 4,8 km/h (1 Bft)
09.08.2016 11:27 14,4 C 14,4 C 92 % 1017,9 hPa 0,0 mm 4,5 km/h (1 Bft) W-NW 299 0 min 0,000 mm 0,0 UV-I 30 W/m 13,1 C 6,4 km/h (2 Bft)
09.08.2016 11:28 14,3 C 14,4 C 92 % 1018,0 hPa 0,0 mm 3,3 km/h (1 Bft) W-NW 299 0 min 0,000 mm 0,0 UV-I 33 W/m 13,0 C 6,4 km/h (2 Bft)
09.08.2016 11:29 14,3 C 14,3 C 92 % 1018,0 hPa 0,0 mm 1,5 km/h (1 Bft) W-NW 298 0 min 0,000 mm 0,0 UV-I 37 W/m 13,0 C 3,2 km/h (1 Bft)
09.08.2016 11:30 14,3 C 14,3 C 93 % 1018,0 hPa 0,0 mm 3,2 km/h (1 Bft) NW 307 0 min 0,000 mm 0,0 UV-I 44 W/m 13,2 C 4,8 km/h (1 Bft)
09.08.2016 11:31 14,3 C 14,3 C 93 % 1017,9 hPa 0,0 mm 5,5 km/h (1 Bft) W 276 0 min 0,000 mm 0,6 UV-I 58 W/m 13,2 C 8,0 km/h (2 Bft)
09.08.2016 11:32 14,2 C 14,3 C 93 % 1018,0 hPa 0,0 mm 4,3 km/h (1 Bft) W 275 0 min 0,000 mm 0,8 UV-I 91 W/m 13,1 C 6,4 km/h (2 Bft)
09.08.2016 11:33 14,2 C 14,3 C 93 % 1017,9 hPa 0,0 mm 2,7 km/h (1 Bft) W 279 0 min 0,000 mm 1,0 UV-I 93 W/m 13,1 C 4,8 km/h (1 Bft)
09.08.2016 11:34 14,3 C 14,3 C 93 % 1017,9 hPa 0,2 mm 3,2 km/h (1 Bft) W-NW 286 0 min 0,000 mm 0,9 UV-I 86 W/m 13,2 C 4,8 km/h (1 Bft)
09.08.2016 11:35 14,2 C 14,3 C 93 % 1018,0 hPa 0,0 mm 3,6 km/h (1 Bft) W-NW 294 0 min 0,000 mm 0,9 UV-I 84 W/m 13,1 C 4,8 km/h (1 Bft)
09.08.2016 11:36 14,3 C 14,3 C 93 % 1017,9 hPa 0,2 mm 2,9 km/h (1 Bft) W-NW 290 0 min 0,000 mm 0,9 UV-I 86 W/m 13,2 C 4,8 km/h (1 Bft)
09.08.2016 11:37 14,3 C 14,3 C 93 % 1018,0 hPa 0,0 mm 2,5 km/h (1 Bft) W-NW 286 0 min 0,000 mm 0,9 UV-I 86 W/m 13,2 C 3,2 km/h (1 Bft)
09.08.2016 11:38 14,3 C 14,3 C 93 % 1018,0 hPa 0,0 mm 3,3 km/h (1 Bft) NW 313 0 min 0,000 mm 0,9 UV-I 91 W/m 13,2 C 6,4 km/h (2 Bft)
09.08.2016 11:39 14,3 C 14,3 C 93 % 1018,0 hPa 0,0 mm 3,2 km/h (1 Bft) W 273 0 min 0,000 mm 1,0 UV-I 97 W/m 13,2 C 4,8 km/h (1 Bft)
09.08.2016 11:40 14,3 C 14,3 C 93 % 1017,9 hPa 0,0 mm 2,1 km/h (1 Bft) W 273 0 min 0,000 mm 1,0 UV-I 97 W/m 13,2 C 3,2 km/h (1 Bft)
09.08.2016 11:41 14,3 C 14,3 C 93 % 1018,1 hPa 0,2 mm 2,3 km/h (1 Bft) W 273 0 min 0,000 mm 0,9 UV-I 90 W/m 13,2 C 3,2 km/h (1 Bft)
09.08.2016 11:42 14,3 C 14,3 C 94 % 1018,1 hPa 0,0 mm 2,9 km/h (1 Bft) W-NW 285 0 min 0,000 mm 0,8 UV-I 83 W/m 13,3 C 4,8 km/h (1 Bft)
09.08.2016 11:43 14,3 C 14,3 C 93 % 1018,0 hPa 0,0 mm 2,8 km/h (1 Bft) W-SW 250 0 min 0,000 mm 0,7 UV-I 74 W/m 13,2 C 4,8 km/h (1 Bft)
09.08.2016 11:44 14,3 C 14,3 C 93 % 1018,1 hPa 0,0 mm 5,1 km/h (1 Bft) W-SW 258 0 min 0,000 mm 0,7 UV-I 67 W/m 13,2 C 8,0 km/h (2 Bft)
09.08.2016 11:45 14,3 C 14,3 C 93 % 1018,1 hPa 0,0 mm 4,3 km/h (1 Bft) W-NW 293 0 min 0,000 mm 0,7 UV-I 67 W/m 13,2 C 6,4 km/h (2 Bft)
09.08.2016 11:46 14,3 C 14,3 C 93 % 1018,0 hPa 0,0 mm 3,8 km/h (1 Bft) W 272 0 min 0,000 mm 0,6 UV-I 65 W/m 13,2 C 4,8 km/h (1 Bft)
09.08.2016 11:47 14,3 C 14,3 C 93 % 1018,1 hPa 0,0 mm 4,8 km/h (1 Bft) W 277 0 min 0,000 mm 0,6 UV-I 65 W/m 13,2 C 9,7 km/h (2 Bft)
09.08.2016 11:48 14,3 C 14,3 C 93 % 1018,0 hPa 0,2 mm 3,4 km/h (1 Bft) W 279 0 min 0,000 mm 0,7 UV-I 67 W/m 13,2 C 4,8 km/h (1 Bft)
09.08.2016 11:49 14,3 C 14,3 C 93 % 1018,1 hPa 0,0 mm 2,0 km/h (1 Bft) W 269 0 min 0,000 mm 0,7 UV-I 70 W/m 13,2 C 3,2 km/h (1 Bft)
09.08.2016 11:50 14,3 C 14,3 C 94 % 1018,1 hPa 0,0 mm 1,3 km/h (1 Bft) W 269 0 min 0,000 mm 0,7 UV-I 72 W/m 13,3 C 1,6 km/h (1 Bft)
09.08.2016 11:51 14,3 C 14,3 C 94 % 1018,1 hPa 0,0 mm 1,4 km/h (1 Bft) W 269 0 min 0,000 mm 0,7 UV-I 74 W/m 13,3 C 3,2 km/h (1 Bft)
09.08.2016 11:52 14,3 C 14,3 C 94 % 1018,0 hPa 0,0 mm 1,0 km/h (0 Bft) W 269 0 min 0,000 mm 0,7 UV-I 70 W/m 13,3 C 1,6 km/h (1 Bft)
09.08.2016 11:53 14,3 C 14,3 C 94 % 1018,1 hPa 0,2 mm 2,5 km/h (1 Bft) W 275 0 min 0,000 mm 0,6 UV-I 63 W/m 13,3 C 4,8 km/h (1 Bft)
09.08.2016 11:54 14,3 C 14,3 C 94 % 1018,1 hPa 0,0 mm 2,5 km/h (1 Bft) W 275 0 min 0,000 mm 0,5 UV-I 56 W/m 13,3 C 3,2 km/h (1 Bft)
09.08.2016 11:55 14,3 C 14,3 C 94 % 1018,1 hPa 0,0 mm 2,8 km/h (1 Bft) W 275 0 min 0,000 mm 0,5 UV-I 51 W/m 13,3 C 3,2 km/h (1 Bft)
09.08.2016 11:56 14,3 C 14,3 C 94 % 1018,1 hPa 0,0 mm 3,3 km/h (1 Bft) W 261 0 min 0,000 mm 0,0 UV-I 49 W/m 13,3 C 4,8 km/h (1 Bft)
09.08.2016 11:57 14,3 C 14,3 C 94 % 1018,1 hPa 0,0 mm 3,0 km/h (1 Bft) W-NW 282 0 min 0,000 mm 0,0 UV-I 51 W/m 13,3 C 4,8 km/h (1 Bft)
09.08.2016 11:58 14,3 C 14,3 C 93 % 1018,2 hPa 0,0 mm 1,5 km/h (1 Bft) W-NW 282 0 min 0,000 mm 0,0 UV-I 53 W/m 13,2 C 3,2 km/h (1 Bft)
09.08.2016 11:59 14,3 C 14,3 C 93 % 1018,2 hPa 0,0 mm 1,5 km/h (1 Bft) W-NW 282 0 min 0,000 mm 0,6 UV-I 56 W/m 13,2 C 3,2 km/h (1 Bft)
09.08.2016 12:00 14,3 C 14,3 C 93 % 1018,2 hPa 0,0 mm 1,5 km/h (1 Bft) W-NW 282 0 min 0,025 mm 0,6 UV-I 60 W/m 13,2 C 1,6 km/h (1 Bft)
09.08.2016 12:01 14,3 C 14,3 C 93 % 1018,2 hPa 0,0 mm 0,3 km/h (0 Bft) W-NW 282 0 min 0,000 mm 0,7 UV-I 65 W/m 13,2 C 1,6 km/h (1 Bft)
09.08.2016 12:02 14,3 C 14,3 C 93 % 1018,2 hPa 0,0 mm 0,2 km/h (0 Bft) W-NW 282 0 min 0,000 mm 0,7 UV-I 72 W/m 13,2 C 1,6 km/h (1 Bft)
09.08.2016 12:03 14,3 C 14,3 C 94 % 1018,2 hPa 0,0 mm 3,4 km/h (1 Bft) W-SW 253 0 min 0,000 mm 0,8 UV-I 76 W/m 13,3 C 4,8 km/h (1 Bft)
09.08.2016 12:04 14,3 C 14,3 C 94 % 1018,2 hPa 0,0 mm 1,5 km/h (1 Bft) W-SW 253 0 min 0,000 mm 0,9 UV-I 81 W/m 13,3 C 3,2 km/h (1 Bft)
09.08.2016 12:05 14,3 C 14,3 C 94 % 1018,2 hPa 0,0 mm 2,7 km/h (1 Bft) W-SW 253 0 min 0,000 mm 0,9 UV-I 81 W/m 13,3 C 3,2 km/h (1 Bft)
09.08.2016 12:06 14,3 C 14,3 C 94 % 1018,2 hPa 0,0 mm 1,8 km/h (1 Bft) W-SW 253 0 min 0,000 mm 0,9 UV-I 86 W/m 13,3 C 3,2 km/h (1 Bft)
09.08.2016 12:07 14,3 C 14,3 C 94 % 1018,2 hPa 0,0 mm 1,5 km/h (1 Bft) W-SW 253 0 min 0,000 mm 1,0 UV-I 90 W/m 13,3 C 1,6 km/h (1 Bft)
09.08.2016 12:08 14,3 C 14,3 C 93 % 1018,2 hPa 0,0 mm 0,3 km/h (0 Bft) W-SW 238 0 min 0,000 mm 1,0 UV-I 104 W/m 13,2 C 1,6 km/h (1 Bft)
09.08.2016 12:09 14,3 C 14,3 C 94 % 1018,2 hPa 0,0 mm 0,7 km/h (0 Bft) W-SW 238 0 min 0,000 mm 1,2 UV-I 111 W/m 13,3 C 3,2 km/h (1 Bft)
09.08.2016 12:10 14,3 C 14,4 C 94 % 1018,2 hPa 0,0 mm 1,0 km/h (0 Bft) W-SW 238 0 min 0,000 mm 1,3 UV-I 120 W/m 13,3 C 1,6 km/h (1 Bft)
09.08.2016 12:11 14,4 C 14,4 C 95 % 1018,2 hPa 0,0 mm 1,3 km/h (1 Bft) W-SW 238 0 min 0,000 mm 1,5 UV-I 130 W/m 13,6 C 3,2 km/h (1 Bft)
09.08.2016 12:12 14,4 C 14,4 C 94 % 1018,2 hPa 0,0 mm 1,6 km/h (1 Bft) W-SW 241 0 min 0,000 mm 1,5 UV-I 135 W/m 13,4 C 3,2 km/h (1 Bft)
09.08.2016 12:13 14,4 C 14,5 C 94 % 1018,3 hPa 0,0 mm 1,5 km/h (1 Bft) W-SW 241 0 min 0,000 mm 1,5 UV-I 135 W/m 13,4 C 3,2 km/h (1 Bft)
09.08.2016 12:14 14,4 C 14,5 C 94 % 1018,3 hPa 0,0 mm 0,4 km/h (0 Bft) W-SW 238 0 min 0,000 mm 1,4 UV-I 134 W/m 13,4 C 1,6 km/h (1 Bft)
09.08.2016 12:15 14,6 C 14,6 C 94 % 1018,3 hPa 0,0 mm 1,3 km/h (1 Bft) S 185 0 min 0,000 mm 1,5 UV-I 135 W/m 13,6 C 3,2 km/h (1 Bft)
09.08.2016 12:16 14,5 C 14,6 C 93 % 1018,2 hPa 0,0 mm 0,3 km/h (0 Bft) S 185 0 min 0,000 mm 1,5 UV-I 137 W/m 13,4 C 1,6 km/h (1 Bft)
09.08.2016 12:17 14,5 C 14,6 C 93 % 1018,2 hPa 0,0 mm 0,5 km/h (0 Bft) S 185 0 min 0,000 mm 1,6 UV-I 141 W/m 13,4 C 1,6 km/h (1 Bft)
09.08.2016 12:18 14,5 C 14,6 C 92 % 1018,2 hPa 0,0 mm 0,9 km/h (0 Bft) S 185 0 min 0,000 mm 1,6 UV-I 146 W/m 13,2 C 1,6 km/h (1 Bft)
09.08.2016 12:19 14,5 C 14,5 C 92 % 1018,2 hPa 0,0 mm 0,2 km/h (0 Bft) S 185 0 min 0,000 mm 1,7 UV-I 153 W/m 13,2 C 1,6 km/h (1 Bft)
09.08.2016 12:20 14,5 C 14,5 C 92 % 1018,2 hPa 0,0 mm 0,4 km/h (0 Bft) SW 224 0 min 0,000 mm 1,7 UV-I 153 W/m 13,2 C 3,2 km/h (1 Bft)
09.08.2016 12:21 14,6 C 14,6 C 93 % 1018,2 hPa 0,0 mm 2,2 km/h (1 Bft) SW 225 0 min 0,000 mm 1,7 UV-I 151 W/m 13,5 C 3,2 km/h (1 Bft)
09.08.2016 12:22 14,6 C 14,6 C 93 % 1018,2 hPa 0,0 mm 2,2 km/h (1 Bft) SW 224 0 min 0,000 mm 1,7 UV-I 153 W/m 13,5 C 3,2 km/h (1 Bft)
09.08.2016 12:23 14,6 C 14,6 C 92 % 1018,2 hPa 0,0 mm 0,2 km/h (0 Bft) SW 224 0 min 0,000 mm 1,7 UV-I 160 W/m 13,3 C 1,6 km/h (1 Bft)
09.08.2016 12:24 14,6 C 14,6 C 92 % 1018,2 hPa 0,0 mm 1,3 km/h (1 Bft) SW 224 0 min 0,000 mm 1,8 UV-I 169 W/m 13,3 C 3,2 km/h (1 Bft)
09.08.2016 12:25 14,6 C 14,6 C 92 % 1018,1 hPa 0,0 mm 1,1 km/h (1 Bft) SW 224 0 min 0,000 mm 1,9 UV-I 199 W/m 13,3 C 3,2 km/h (1 Bft)
09.08.2016 12:26 14,6 C 14,6 C 91 % 1018,1 hPa 0,0 mm 0,4 km/h (0 Bft) SW 224 0 min 0,000 mm 2,1 UV-I 209 W/m 13,1 C 1,6 km/h (1 Bft)
09.08.2016 12:27 14,7 C 14,7 C 92 % 1018,1 hPa 0,0 mm 1,4 km/h (1 Bft) SW 224 0 min 0,000 mm 2,2 UV-I 218 W/m 13,4 C 3,2 km/h (1 Bft)
09.08.2016 12:28 14,7 C 14,7 C 93 % 1018,0 hPa 0,0 mm 0,6 km/h (0 Bft) SW 215 0 min 0,000 mm 2,3 UV-I 229 W/m 13,6 C 1,6 km/h (1 Bft)
09.08.2016 12:29 14,6 C 14,7 C 93 % 1018,0 hPa 0,0 mm 0,5 km/h (0 Bft) SW 215 0 min 0,000 mm 2,2 UV-I 232 W/m 13,5 C 1,6 km/h (1 Bft)
09.08.2016 12:30 14,7 C 14,7 C 94 % 1018,0 hPa 0,0 mm 0,1 km/h (0 Bft) SW 215 0 min 0,000 mm 2,1 UV-I 225 W/m 13,7 C 1,6 km/h (1 Bft)
09.08.2016 12:31 14,8 C 14,8 C 93 % 1018,0 hPa 0,0 mm 2,5 km/h (1 Bft) W 277 0 min 0,000 mm 2,0 UV-I 192 W/m 13,7 C 4,8 km/h (1 Bft)
09.08.2016 12:32 14,8 C 14,8 C 93 % 1018,0 hPa 0,0 mm 3,1 km/h (1 Bft) W 278 0 min 0,000 mm 1,6 UV-I 174 W/m 13,7 C 4,8 km/h (1 Bft)
09.08.2016 12:33 14,8 C 14,8 C 92 % 1018,0 hPa 0,0 mm 1,7 km/h (1 Bft) W 278 0 min 0,000 mm 1,6 UV-I 163 W/m 13,5 C 3,2 km/h (1 Bft)
09.08.2016 12:34 14,8 C 14,8 C 91 % 1018,0 hPa 0,0 mm 1,3 km/h (1 Bft) W 278 0 min 0,000 mm 1,6 UV-I 158 W/m 13,3 C 1,6 km/h (1 Bft)
09.08.2016 12:35 14,9 C 14,9 C 92 % 1018,0 hPa 0,0 mm 0,6 km/h (0 Bft) W 278 0 min 0,000 mm 1,6 UV-I 156 W/m 13,6 C 1,6 km/h (1 Bft)
09.08.2016 12:36 14,9 C 14,9 C 93 % 1018,0 hPa 0,0 mm 1,8 km/h (1 Bft) W 278 0 min 0,000 mm 1,6 UV-I 156 W/m 13,8 C 3,2 km/h (1 Bft)
09.08.2016 12:37 15,1 C 15,1 C 93 % 1018,0 hPa 0,0 mm 1,1 km/h (1 Bft) W 278 0 min 0,000 mm 1,6 UV-I 167 W/m 14,0 C 1,6 km/h (1 Bft)
09.08.2016 12:38 15,0 C 15,1 C 92 % 1018,0 hPa 0,0 mm 0,2 km/h (0 Bft) W 278 0 min 0,000 mm 1,7 UV-I 169 W/m 13,7 C 1,6 km/h (1 Bft)
09.08.2016 12:39 15,0 C 15,0 C 91 % 1018,0 hPa 0,0 mm 0,9 km/h (0 Bft) W 278 0 min 0,000 mm 1,7 UV-I 169 W/m 13,5 C 1,6 km/h (1 Bft)
09.08.2016 12:40 15,0 C 15,1 C 92 % 1018,0 hPa 0,0 mm 0,9 km/h (0 Bft) W 278 0 min 0,000 mm 1,8 UV-I 169 W/m 13,7 C 3,2 km/h (1 Bft)
09.08.2016 12:41 15,1 C 15,1 C 93 % 1017,9 hPa 0,0 mm 1,7 km/h (1 Bft) W 278 0 min 0,000 mm 1,8 UV-I 174 W/m 14,0 C 3,2 km/h (1 Bft)
09.08.2016 12:42 15,0 C 15,1 C 93 % 1018,0 hPa 0,0 mm 0,5 km/h (0 Bft) W 278 0 min 0,000 mm 1,8 UV-I 176 W/m 13,9 C 1,6 km/h (1 Bft)
09.08.2016 12:43 14,9 C 15,0 C 93 % 1018,0 hPa 0,0 mm 0,1 km/h (0 Bft) W 278 0 min 0,000 mm 1,8 UV-I 169 W/m 13,8 C 1,6 km/h (1 Bft)
09.08.2016 12:44 14,9 C 14,9 C 93 % 1018,0 hPa 0,0 mm 3,0 km/h (1 Bft) W 263 0 min 0,000 mm 1,6 UV-I 156 W/m 13,8 C 6,4 km/h (2 Bft)
09.08.2016 12:45 14,9 C 14,9 C 92 % 1018,0 hPa 0,0 mm 3,6 km/h (1 Bft) W 261 0 min 0,000 mm 1,4 UV-I 142 W/m 13,6 C 4,8 km/h (1 Bft)
09.08.2016 12:46 14,9 C 14,9 C 91 % 1018,0 hPa 0,0 mm 3,6 km/h (1 Bft) W 263 0 min 0,000 mm 1,3 UV-I 130 W/m 13,4 C 4,8 km/h (1 Bft)
09.08.2016 12:47 14,9 C 14,9 C 91 % 1018,0 hPa 0,0 mm 2,8 km/h (1 Bft) W 259 0 min 0,000 mm 1,3 UV-I 121 W/m 13,4 C 4,8 km/h (1 Bft)
09.08.2016 12:48 14,9 C 14,9 C 91 % 1018,0 hPa 0,0 mm 2,6 km/h (1 Bft) W 279 0 min 0,000 mm 1,3 UV-I 118 W/m 13,4 C 4,8 km/h (1 Bft)
09.08.2016 12:49 14,9 C 14,9 C 91 % 1018,0 hPa 0,0 mm 4,2 km/h (1 Bft) W-SW 252 0 min 0,000 mm 1,3 UV-I 125 W/m 13,4 C 6,4 km/h (2 Bft)
09.08.2016 12:50 14,9 C 14,9 C 91 % 1018,0 hPa 0,0 mm 2,5 km/h (1 Bft) W-SW 250 0 min 0,000 mm 1,4 UV-I 132 W/m 13,4 C 4,8 km/h (1 Bft)
09.08.2016 12:51 14,8 C 14,9 C 91 % 1018,0 hPa 0,0 mm 1,6 km/h (1 Bft) W-SW 250 0 min 0,000 mm 1,4 UV-I 135 W/m 13,3 C 3,2 km/h (1 Bft)
09.08.2016 12:52 14,8 C 14,8 C 91 % 1017,9 hPa 0,0 mm 1,2 km/h (1 Bft) W-SW 250 0 min 0,000 mm 1,4 UV-I 135 W/m 13,3 C 1,6 km/h (1 Bft)
09.08.2016 12:53 14,8 C 14,8 C 90 % 1017,9 hPa 0,0 mm 0,8 km/h (0 Bft) W-SW 250 0 min 0,000 mm 1,4 UV-I 139 W/m 13,2 C 1,6 km/h (1 Bft)
09.08.2016 12:54 14,8 C 14,8 C 91 % 1017,9 hPa 0,0 mm 1,2 km/h (1 Bft) W-SW 250 0 min 0,000 mm 1,5 UV-I 148 W/m 13,3 C 3,2 km/h (1 Bft)
09.08.2016 12:55 14,7 C 14,8 C 90 % 1017,9 hPa 0,0 mm 0,7 km/h (0 Bft) W-SW 250 0 min 0,000 mm 1,5 UV-I 148 W/m 13,1 C 3,2 km/h (1 Bft)
09.08.2016 12:56 14,8 C 14,8 C 91 % 1017,9 hPa 0,0 mm 1,7 km/h (1 Bft) W-SW 249 0 min 0,000 mm 1,5 UV-I 141 W/m 13,3 C 3,2 km/h (1 Bft)
09.08.2016 12:57 14,8 C 14,8 C 91 % 1017,9 hPa 0,0 mm 0,5 km/h (0 Bft) W-SW 249 0 min 0,000 mm 1,2 UV-I 125 W/m 13,3 C 1,6 km/h (1 Bft)
09.08.2016 12:58 14,8 C 14,8 C 93 % 1017,9 hPa 0,0 mm 0,7 km/h (0 Bft) W-SW 249 0 min 0,000 mm 1,0 UV-I 104 W/m 13,7 C 1,6 km/h (1 Bft)
09.08.2016 12:59 14,8 C 14,8 C 92 % 1017,9 hPa 0,0 mm 1,3 km/h (1 Bft) W-SW 249 0 min 0,000 mm 0,8 UV-I 84 W/m 13,5 C 3,2 km/h (1 Bft)
09.08.2016 13:00 14,8 C 14,8 C 91 % 1017,9 hPa 0,0 mm 2,8 km/h (1 Bft) SW 232 0 min 0,000 mm 0,7 UV-I 60 W/m 13,3 C 4,8 km/h (1 Bft)
09.08.2016 13:01 14,8 C 14,8 C 91 % 1017,9 hPa 0,0 mm 3,1 km/h (1 Bft) SW 230 0 min 0,076 mm 0,0 UV-I 53 W/m 13,3 C 4,8 km/h (1 Bft)
09.08.2016 13:02 14,8 C 14,8 C 92 % 1017,9 hPa 0,0 mm 0,9 km/h (0 Bft) SW 230 0 min 0,001 mm 0,0 UV-I 47 W/m 13,5 C 1,6 km/h (1 Bft)
09.08.2016 13:03 14,7 C 14,8 C 92 % 1017,9 hPa 0,0 mm 1,3 km/h (1 Bft) SW 230 0 min 0,000 mm 0,0 UV-I 42 W/m 13,4 C 3,2 km/h (1 Bft)
09.08.2016 13:04 14,7 C 14,8 C 92 % 1017,9 hPa 0,0 mm 0,8 km/h (0 Bft) SW 230 0 min 0,000 mm 0,0 UV-I 37 W/m 13,4 C 1,6 km/h (1 Bft)
09.08.2016 13:05 14,7 C 14,7 C 92 % 1017,9 hPa 0,0 mm 0,2 km/h (0 Bft) SW 230 0 min 0,000 mm 0,0 UV-I 32 W/m 13,4 C 1,6 km/h (1 Bft)
09.08.2016 13:06 14,6 C 14,7 C 92 % 1017,9 hPa 0,0 mm 1,7 km/h (1 Bft) SW 233 0 min 0,000 mm 0,0 UV-I 26 W/m 13,3 C 4,8 km/h (1 Bft)
09.08.2016 13:07 14,6 C 14,6 C 92 % 1018,0 hPa 0,0 mm 0,6 km/h (0 Bft) SW 233 0 min 0,000 mm 0,0 UV-I 25 W/m 13,3 C 1,6 km/h (1 Bft)
09.08.2016 13:08 14,5 C 14,6 C 93 % 1018,0 hPa 0,0 mm 1,9 km/h (1 Bft) SW 226 0 min 0,000 mm 0,0 UV-I 23 W/m 13,4 C 4,8 km/h (1 Bft)
09.08.2016 13:09 14,4 C 14,5 C 93 % 1018,0 hPa 0,0 mm 1,9 km/h (1 Bft) SW 227 0 min 0,000 mm 0,0 UV-I 23 W/m 13,3 C 4,8 km/h (1 Bft)
09.08.2016 13:10 14,4 C 14,4 C 92 % 1018,0 hPa 0,0 mm 3,0 km/h (1 Bft) SW 229 0 min 0,000 mm 0,0 UV-I 25 W/m 13,1 C 4,8 km/h (1 Bft)
09.08.2016 13:11 14,4 C 14,4 C 92 % 1018,0 hPa 0,0 mm 1,7 km/h (1 Bft) SW 229 0 min 0,000 mm 0,0 UV-I 28 W/m 13,1 C 3,2 km/h (1 Bft)
09.08.2016 13:12 14,4 C 14,4 C 93 % 1018,0 hPa 0,0 mm 1,5 km/h (1 Bft) SW 230 0 min 0,000 mm 0,0 UV-I 49 W/m 13,3 C 3,2 km/h (1 Bft)
09.08.2016 13:13 14,3 C 14,4 C 93 % 1018,0 hPa 0,0 mm 1,0 km/h (0 Bft) SW 229 0 min 0,000 mm 0,7 UV-I 69 W/m 13,2 C 3,2 km/h (1 Bft)
09.08.2016 13:14 14,4 C 14,4 C 92 % 1017,9 hPa 0,0 mm 0,8 km/h (0 Bft) SW 229 0 min 0,000 mm 0,9 UV-I 88 W/m 13,1 C 1,6 km/h (1 Bft)
09.08.2016 13:15 14,3 C 14,4 C 93 % 1018,0 hPa 0,0 mm 1,6 km/h (1 Bft) SW 223 0 min 0,000 mm 1,0 UV-I 100 W/m 13,2 C 3,2 km/h (1 Bft)
09.08.2016 13:16 14,3 C 14,3 C 92 % 1017,9 hPa 0,0 mm 0,7 km/h (0 Bft) SW 223 0 min 0,000 mm 1,0 UV-I 100 W/m 13,0 C 1,6 km/h (1 Bft)
09.08.2016 13:17 14,3 C 14,3 C 93 % 1018,0 hPa 0,2 mm 0,5 km/h (0 Bft) SW 223 0 min 0,000 mm 0,9 UV-I 90 W/m 13,2 C 1,6 km/h (1 Bft)
09.08.2016 13:18 14,3 C 14,3 C 93 % 1018,0 hPa 0,0 mm 1,5 km/h (1 Bft) SW 223 0 min 0,000 mm 0,8 UV-I 65 W/m 13,2 C 3,2 km/h (1 Bft)
09.08.2016 13:19 14,3 C 14,3 C 93 % 1018,0 hPa 0,0 mm 1,3 km/h (1 Bft) SW 223 0 min 0,000 mm 0,0 UV-I 54 W/m 13,2 C 3,2 km/h (1 Bft)
09.08.2016 13:20 14,3 C 14,3 C 94 % 1018,0 hPa 0,0 mm 0,1 km/h (0 Bft) SW 223 0 min 0,000 mm 0,0 UV-I 51 W/m 13,3 C 1,6 km/h (1 Bft)
09.08.2016 13:21 14,4 C 14,4 C 93 % 1018,1 hPa 0,0 mm 1,1 km/h (1 Bft) SW 225 0 min 0,000 mm 0,0 UV-I 49 W/m 13,3 C 3,2 km/h (1 Bft)
09.08.2016 13:22 14,4 C 14,4 C 94 % 1018,0 hPa 0,0 mm 1,5 km/h (1 Bft) SW 225 0 min 0,000 mm 0,0 UV-I 51 W/m 13,4 C 3,2 km/h (1 Bft)
09.08.2016 13:23 14,4 C 14,4 C 93 % 1018,0 hPa 0,0 mm 0,1 km/h (0 Bft) SW 225 0 min 0,000 mm 0,0 UV-I 40 W/m 13,3 C 1,6 km/h (1 Bft)
09.08.2016 13:24 14,4 C 14,4 C 93 % 1018,0 hPa 0,0 mm 1,3 km/h (1 Bft) SW 227 0 min 0,000 mm 0,0 UV-I 35 W/m 13,3 C 3,2 km/h (1 Bft)
09.08.2016 13:25 14,4 C 14,4 C 93 % 1018,0 hPa 0,0 mm 1,6 km/h (1 Bft) SW 227 0 min 0,000 mm 0,0 UV-I 33 W/m 13,3 C 3,2 km/h (1 Bft)
09.08.2016 13:26 14,4 C 14,4 C 93 % 1018,0 hPa 0,0 mm 1,2 km/h (1 Bft) SW 227 0 min 0,000 mm 0,0 UV-I 35 W/m 13,3 C 3,2 km/h (1 Bft)
09.08.2016 13:27 14,3 C 14,4 C 93 % 1018,0 hPa 0,0 mm 1,4 km/h (1 Bft) SW 227 0 min 0,000 mm 0,0 UV-I 39 W/m 13,2 C 3,2 km/h (1 Bft)
09.08.2016 13:28 14,4 C 14,4 C 93 % 1018,0 hPa 0,0 mm 0,7 km/h (0 Bft) SW 227 0 min 0,000 mm 0,0 UV-I 42 W/m 13,3 C 1,6 km/h (1 Bft)
09.08.2016 13:29 14,4 C 14,4 C 93 % 1018,1 hPa 0,0 mm 0,3 km/h (0 Bft) SW 227 0 min 0,000 mm 0,0 UV-I 44 W/m 13,3 C 1,6 km/h (1 Bft)
09.08.2016 13:30 14,3 C 14,4 C 93 % 1018,0 hPa 0,0 mm 1,3 km/h (1 Bft) S-SW 197 0 min 0,000 mm 0,0 UV-I 47 W/m 13,2 C 3,2 km/h (1 Bft)
09.08.2016 13:31 14,3 C 14,3 C 93 % 1018,1 hPa 0,0 mm 1,6 km/h (1 Bft) S-SW 197 0 min 0,000 mm 0,0 UV-I 47 W/m 13,2 C 3,2 km/h (1 Bft)
09.08.2016 13:32 14,3 C 14,3 C 92 % 1018,0 hPa 0,0 mm 2,1 km/h (1 Bft) S-SW 196 0 min 0,000 mm 0,0 UV-I 47 W/m 13,0 C 3,2 km/h (1 Bft)
09.08.2016 13:33 14,3 C 14,3 C 92 % 1018,0 hPa 0,0 mm 2,3 km/h (1 Bft) S 176 0 min 0,000 mm 0,0 UV-I 46 W/m 13,0 C 3,2 km/h (1 Bft)
09.08.2016 13:34 14,3 C 14,3 C 92 % 1018,0 hPa 0,0 mm 1,6 km/h (1 Bft) S 176 0 min 0,000 mm 0,0 UV-I 46 W/m 13,0 C 3,2 km/h (1 Bft)
09.08.2016 13:35 14,3 C 14,3 C 93 % 1018,1 hPa 0,0 mm 0,0 km/h (0 Bft) S 176 0 min 0,000 mm 0,0 UV-I 42 W/m 13,2 C 0,0 km/h (0 Bft)
09.08.2016 13:36 14,2 C 14,3 C 93 % 1018,1 hPa 0,0 mm 0,0 km/h (0 Bft) S 176 0 min 0,000 mm 0,0 UV-I 39 W/m 13,1 C 0,0 km/h (0 Bft)
09.08.2016 13:37 14,2 C 14,2 C 93 % 1018,0 hPa 0,0 mm 1,8 km/h (1 Bft) S 174 0 min 0,000 mm 0,0 UV-I 39 W/m 13,1 C 3,2 km/h (1 Bft)
09.08.2016 13:38 14,1 C 14,2 C 93 % 1018,1 hPa 0,0 mm 1,4 km/h (1 Bft) S 174 0 min 0,000 mm 0,0 UV-I 39 W/m 13,0 C 1,6 km/h (1 Bft)
09.08.2016 13:39 14,1 C 14,1 C 93 % 1018,0 hPa 0,0 mm 1,3 km/h (1 Bft) S 174 0 min 0,000 mm 0,0 UV-I 40 W/m 13,0 C 3,2 km/h (1 Bft)
09.08.2016 13:40 14,1 C 14,1 C 93 % 1018,1 hPa 0,0 mm 0,8 km/h (0 Bft) S 174 0 min 0,000 mm 0,0 UV-I 40 W/m 13,0 C 1,6 km/h (1 Bft)
09.08.2016 13:41 14,0 C 14,1 C 94 % 1018,0 hPa 0,0 mm 0,3 km/h (0 Bft) S 174 0 min 0,000 mm 0,0 UV-I 42 W/m 13,0 C 1,6 km/h (1 Bft)
09.08.2016 13:42 14,0 C 14,0 C 94 % 1018,0 hPa 0,2 mm 0,0 km/h (0 Bft) S 175 0 min 0,000 mm 0,0 UV-I 42 W/m 13,0 C 0,0 km/h (0 Bft)
09.08.2016 13:43 13,9 C 14,0 C 94 % 1018,0 hPa 0,0 mm 0,0 km/h (0 Bft) S 175 0 min 0,000 mm 0,0 UV-I 44 W/m 12,9 C 0,0 km/h (0 Bft)
09.08.2016 13:44 13,9 C 13,9 C 93 % 1018,0 hPa 0,0 mm 0,0 km/h (0 Bft) S 175 0 min 0,000 mm 0,0 UV-I 46 W/m 12,8 C 0,0 km/h (0 Bft)
09.08.2016 13:45 13,9 C 13,9 C 94 % 1018,0 hPa 0,0 mm 0,0 km/h (0 Bft) S 175 0 min 0,000 mm 0,0 UV-I 47 W/m 12,9 C 0,0 km/h (0 Bft)
09.08.2016 13:46 13,9 C 13,9 C 94 % 1018,0 hPa 0,0 mm 0,0 km/h (0 Bft) S 175 0 min 0,000 mm 0,0 UV-I 49 W/m 12,9 C 0,0 km/h (0 Bft)
09.08.2016 13:47 13,9 C 13,9 C 94 % 1018,1 hPa 0,0 mm 0,0 km/h (0 Bft) S 175 0 min 0,000 mm 0,0 UV-I 47 W/m 12,9 C 0,0 km/h (0 Bft)
09.08.2016 13:48 13,8 C 13,9 C 94 % 1018,0 hPa 0,0 mm 0,0 km/h (0 Bft) S 175 0 min 0,000 mm 0,0 UV-I 47 W/m 12,9 C 0,0 km/h (0 Bft)
09.08.2016 13:49 13,8 C 13,9 C 94 % 1018,0 hPa 0,0 mm 0,0 km/h (0 Bft) S 175 0 min 0,000 mm 0,0 UV-I 46 W/m 12,9 C 0,0 km/h (0 Bft)
09.08.2016 13:50 13,8 C 13,8 C 94 % 1018,0 hPa 0,0 mm 0,0 km/h (0 Bft) S 175 0 min 0,000 mm 0,0 UV-I 46 W/m 12,9 C 0,0 km/h (0 Bft)
09.08.2016 13:51 13,8 C 13,8 C 94 % 1018,0 hPa 0,0 mm 0,0 km/h (0 Bft) S 175 0 min 0,000 mm 0,0 UV-I 44 W/m 12,9 C 0,0 km/h (0 Bft)
09.08.2016 13:52 13,8 C 13,8 C 94 % 1018,0 hPa 0,0 mm 0,0 km/h (0 Bft) S 175 0 min 0,000 mm 0,0 UV-I 44 W/m 12,9 C 0,0 km/h (0 Bft)
09.08.2016 13:53 13,8 C 13,8 C 94 % 1018,0 hPa 0,0 mm 0,0 km/h (0 Bft) S 175 0 min 0,000 mm 0,0 UV-I 44 W/m 12,9 C 0,0 km/h (0 Bft)
09.08.2016 13:54 13,8 C 13,8 C 94 % 1018,0 hPa 0,0 mm 0,0 km/h (0 Bft) S 175 0 min 0,000 mm 0,0 UV-I 44 W/m 12,9 C 0,0 km/h (0 Bft)
09.08.2016 13:55 13,8 C 13,8 C 94 % 1018,0 hPa 0,0 mm 0,0 km/h (0 Bft) S 175 0 min 0,000 mm 0,0 UV-I 46 W/m 12,9 C 0,0 km/h (0 Bft)
09.08.2016 13:56 13,8 C 13,8 C 95 % 1018,0 hPa 0,0 mm 0,0 km/h (0 Bft) S 175 0 min 0,000 mm 0,0 UV-I 49 W/m 13,0 C 0,0 km/h (0 Bft)
09.08.2016 13:57 13,8 C 13,8 C 95 % 1018,0 hPa 0,0 mm 0,0 km/h (0 Bft) S 175 0 min 0,000 mm 0,0 UV-I 49 W/m 13,0 C 0,0 km/h (0 Bft)
09.08.2016 13:58 13,8 C 13,8 C 95 % 1018,0 hPa 0,0 mm 0,0 km/h (0 Bft) S 175 0 min 0,000 mm 0,0 UV-I 46 W/m 13,0 C 0,0 km/h (0 Bft)
09.08.2016 13:59 13,8 C 13,8 C 95 % 1018,0 hPa 0,0 mm 0,0 km/h (0 Bft) S 175 0 min 0,000 mm 0,0 UV-I 37 W/m 13,0 C 0,0 km/h (0 Bft)
09.08.2016 14:00 13,8 C 13,8 C 95 % 1017,9 hPa 0,0 mm 0,0 km/h (0 Bft) S 175 0 min 0,000 mm 0,0 UV-I 33 W/m 13,0 C 0,0 km/h (0 Bft)
09.08.2016 14:01 13,9 C 13,9 C 95 % 1017,9 hPa 0,0 mm 0,0 km/h (0 Bft) S 175 0 min 0,025 mm 0,0 UV-I 30 W/m 13,1 C 0,0 km/h (0 Bft)
09.08.2016 14:02 13,9 C 13,9 C 95 % 1017,9 hPa 0,0 mm 0,0 km/h (0 Bft) S 186 0 min 0,000 mm 0,0 UV-I 28 W/m 13,1 C 0,0 km/h (0 Bft)
09.08.2016 14:03 13,9 C 13,9 C 95 % 1018,0 hPa 0,0 mm 1,1 km/h (1 Bft) W-SW 248 0 min 0,000 mm 0,0 UV-I 30 W/m 13,1 C 4,8 km/h (1 Bft)
09.08.2016 14:04 13,9 C 13,9 C 95 % 1018,0 hPa 0,0 mm 2,7 km/h (1 Bft) W-SW 252 0 min 0,000 mm 0,0 UV-I 33 W/m 13,1 C 4,8 km/h (1 Bft)
09.08.2016 14:05 14,0 C 14,0 C 95 % 1018,0 hPa 0,0 mm 2,0 km/h (1 Bft) W-SW 252 0 min 0,000 mm 0,0 UV-I 35 W/m 13,2 C 3,2 km/h (1 Bft)
09.08.2016 14:06 14,0 C 14,0 C 95 % 1018,0 hPa 0,0 mm 0,5 km/h (0 Bft) W-SW 252 0 min 0,000 mm 0,0 UV-I 37 W/m 13,2 C 1,6 km/h (1 Bft)
09.08.2016 14:07 14,0 C 14,0 C 94 % 1018,0 hPa 0,0 mm 0,5 km/h (0 Bft) W-SW 252 0 min 0,000 mm 0,0 UV-I 40 W/m 13,0 C 1,6 km/h (1 Bft)
09.08.2016 14:08 14,0 C 14,0 C 94 % 1018,0 hPa 0,0 mm 0,3 km/h (0 Bft) W-SW 252 0 min 0,000 mm 0,0 UV-I 40 W/m 13,0 C 1,6 km/h (1 Bft)
09.08.2016 14:09 14,0 C 14,1 C 94 % 1018,0 hPa 0,0 mm 1,3 km/h (1 Bft) W-SW 254 0 min 0,000 mm 0,0 UV-I 39 W/m 13,0 C 3,2 km/h (1 Bft)
09.08.2016 14:10 14,0 C 14,0 C 94 % 1018,0 hPa 0,0 mm 2,5 km/h (1 Bft) W 268 0 min 0,000 mm 0,0 UV-I 35 W/m 13,0 C 3,2 km/h (1 Bft)
09.08.2016 14:11 14,0 C 14,0 C 94 % 1018,1 hPa 0,2 mm 2,2 km/h (1 Bft) W 268 0 min 0,000 mm 0,0 UV-I 32 W/m 13,0 C 3,2 km/h (1 Bft)
09.08.2016 14:12 14,0 C 14,0 C 94 % 1018,1 hPa 0,0 mm 2,3 km/h (1 Bft) W-SW 248 0 min 0,000 mm 0,0 UV-I 28 W/m 13,0 C 3,2 km/h (1 Bft)
09.08.2016 14:13 14,0 C 14,1 C 94 % 1018,1 hPa 0,0 mm 5,1 km/h (1 Bft) W-SW 247 0 min 0,000 mm 0,0 UV-I 35 W/m 13,0 C 9,7 km/h (2 Bft)
09.08.2016 14:14 14,0 C 14,0 C 94 % 1018,1 hPa 0,0 mm 7,2 km/h (2 Bft) W-NW 289 0 min 0,000 mm 0,0 UV-I 47 W/m 13,0 C 12,9 km/h (3 Bft)
09.08.2016 14:15 13,9 C 14,1 C 93 % 1018,0 hPa 0,2 mm 4,7 km/h (1 Bft) W-NW 284 0 min 0,000 mm 0,0 UV-I 53 W/m 12,8 C 6,4 km/h (2 Bft)
09.08.2016 14:16 13,9 C 13,9 C 93 % 1018,0 hPa 0,0 mm 3,8 km/h (1 Bft) W 263 0 min 0,000 mm 0,0 UV-I 49 W/m 12,8 C 6,4 km/h (2 Bft)
09.08.2016 14:17 13,8 C 13,9 C 93 % 1018,1 hPa 0,0 mm 2,7 km/h (1 Bft) W-NW 287 0 min 0,000 mm 0,0 UV-I 44 W/m 12,7 C 4,8 km/h (1 Bft)
09.08.2016 14:18 13,8 C 13,9 C 93 % 1018,1 hPa 0,0 mm 3,2 km/h (1 Bft) W 275 0 min 0,000 mm 0,0 UV-I 39 W/m 12,7 C 4,8 km/h (1 Bft)
09.08.2016 14:19 13,8 C 13,8 C 93 % 1018,1 hPa 0,0 mm 3,5 km/h (1 Bft) W 273 0 min 0,000 mm 0,0 UV-I 37 W/m 12,7 C 4,8 km/h (1 Bft)
09.08.2016 14:20 13,8 C 13,8 C 93 % 1018,1 hPa 0,0 mm 3,4 km/h (1 Bft) W 273 0 min 0,000 mm 0,0 UV-I 39 W/m 12,7 C 6,4 km/h (2 Bft)
09.08.2016 14:21 13,8 C 13,8 C 93 % 1018,1 hPa 0,0 mm 4,2 km/h (1 Bft) W-NW 296 0 min 0,000 mm 0,0 UV-I 44 W/m 12,7 C 6,4 km/h (2 Bft)
09.08.2016 14:22 13,8 C 13,8 C 93 % 1018,2 hPa 0,0 mm 3,4 km/h (1 Bft) W-NW 300 0 min 0,000 mm 0,0 UV-I 56 W/m 12,7 C 6,4 km/h (2 Bft)
09.08.2016 14:23 13,7 C 13,8 C 93 % 1018,1 hPa 0,0 mm 2,0 km/h (1 Bft) W-NW 300 0 min 0,000 mm 0,7 UV-I 65 W/m 12,6 C 3,2 km/h (1 Bft)
09.08.2016 14:24 13,7 C 13,7 C 93 % 1018,0 hPa 0,0 mm 3,0 km/h (1 Bft) N-NW 338 0 min 0,000 mm 0,7 UV-I 72 W/m 12,6 C 4,8 km/h (1 Bft)
09.08.2016 14:25 13,8 C 13,8 C 93 % 1018,0 hPa 0,0 mm 2,9 km/h (1 Bft) W-NW 288 0 min 0,000 mm 0,8 UV-I 77 W/m 12,7 C 4,8 km/h (1 Bft)
09.08.2016 14:26 13,7 C 13,8 C 93 % 1018,0 hPa 0,0 mm 5,6 km/h (1 Bft) W-NW 301 0 min 0,000 mm 0,8 UV-I 79 W/m 12,6 C 8,0 km/h (2 Bft)
09.08.2016 14:27 13,8 C 13,8 C 93 % 1018,0 hPa 0,0 mm 3,8 km/h (1 Bft) NW 312 0 min 0,000 mm 0,7 UV-I 74 W/m 12,7 C 6,4 km/h (2 Bft)
09.08.2016 14:28 13,7 C 13,8 C 93 % 1018,0 hPa 0,2 mm 3,0 km/h (1 Bft) W 267 0 min 0,000 mm 0,6 UV-I 51 W/m 12,6 C 4,8 km/h (1 Bft)
09.08.2016 14:29 13,7 C 13,7 C 93 % 1018,1 hPa 0,0 mm 3,2 km/h (1 Bft) W 278 0 min 0,000 mm 0,0 UV-I 44 W/m 12,6 C 4,8 km/h (1 Bft)
09.08.2016 14:30 13,7 C 13,7 C 93 % 1018,0 hPa 0,0 mm 4,0 km/h (1 Bft) W 274 0 min 0,000 mm 0,0 UV-I 46 W/m 12,6 C 4,8 km/h (1 Bft)
09.08.2016 14:31 13,7 C 13,7 C 93 % 1018,0 hPa 0,0 mm 4,6 km/h (1 Bft) W-NW 296 0 min 0,000 mm 0,0 UV-I 46 W/m 12,6 C 6,4 km/h (2 Bft)
09.08.2016 14:32 13,7 C 13,7 C 93 % 1018,0 hPa 0,0 mm 3,4 km/h (1 Bft) W-NW 288 0 min 0,000 mm 0,0 UV-I 54 W/m 12,6 C 4,8 km/h (1 Bft)
09.08.2016 14:33 13,6 C 13,7 C 93 % 1018,0 hPa 0,0 mm 3,4 km/h (1 Bft) W 267 0 min 0,000 mm 0,6 UV-I 63 W/m 12,5 C 6,4 km/h (2 Bft)
09.08.2016 14:34 13,7 C 13,7 C 93 % 1018,0 hPa 0,0 mm 3,0 km/h (1 Bft) W-NW 284 0 min 0,000 mm 0,7 UV-I 74 W/m 12,6 C 4,8 km/h (1 Bft)
09.08.2016 14:35 13,7 C 13,7 C 94 % 1018,0 hPa 0,0 mm 2,8 km/h (1 Bft) W-NW 290 0 min 0,000 mm 0,7 UV-I 70 W/m 12,8 C 4,8 km/h (1 Bft)
09.08.2016 14:36 13,7 C 13,7 C 93 % 1018,1 hPa 0,0 mm 3,2 km/h (1 Bft) W-SW 243 0 min 0,000 mm 0,6 UV-I 62 W/m 12,6 C 6,4 km/h (2 Bft)
09.08.2016 14:37 13,6 C 13,7 C 93 % 1018,0 hPa 0,0 mm 5,0 km/h (1 Bft) W-SW 246 0 min 0,000 mm 0,0 UV-I 54 W/m 12,5 C 6,4 km/h (2 Bft)
09.08.2016 14:38 13,6 C 13,6 C 93 % 1018,1 hPa 0,0 mm 3,8 km/h (1 Bft) W-SW 254 0 min 0,000 mm 0,0 UV-I 51 W/m 12,5 C 4,8 km/h (1 Bft)
09.08.2016 14:39 13,6 C 13,6 C 93 % 1018,0 hPa 0,0 mm 2,5 km/h (1 Bft) W-SW 252 0 min 0,000 mm 0,0 UV-I 49 W/m 12,5 C 3,2 km/h (1 Bft)
09.08.2016 14:40 13,6 C 13,6 C 93 % 1018,1 hPa 0,0 mm 2,3 km/h (1 Bft) W-SW 252 0 min 0,000 mm 0,0 UV-I 46 W/m 12,5 C 3,2 km/h (1 Bft)
09.08.2016 14:41 13,6 C 13,6 C 93 % 1018,0 hPa 0,0 mm 2,3 km/h (1 Bft) W-SW 249 0 min 0,000 mm 0,0 UV-I 44 W/m 12,5 C 3,2 km/h (1 Bft)
09.08.2016 14:42 13,6 C 13,6 C 93 % 1018,1 hPa 0,0 mm 4,2 km/h (1 Bft) W 263 0 min 0,000 mm 0,0 UV-I 44 W/m 12,5 C 4,8 km/h (1 Bft)
09.08.2016 14:43 13,6 C 13,6 C 93 % 1018,0 hPa 0,0 mm 2,3 km/h (1 Bft) W 263 0 min 0,000 mm 0,0 UV-I 46 W/m 12,5 C 3,2 km/h (1 Bft)
09.08.2016 14:44 13,6 C 13,6 C 93 % 1018,1 hPa 0,0 mm 3,0 km/h (1 Bft) W 279 0 min 0,000 mm 0,0 UV-I 47 W/m 12,5 C 4,8 km/h (1 Bft)
09.08.2016 14:45 13,6 C 13,6 C 93 % 1018,0 hPa 0,0 mm 3,1 km/h (1 Bft) W-NW 289 0 min 0,000 mm 0,0 UV-I 54 W/m 12,5 C 4,8 km/h (1 Bft)
09.08.2016 14:46 13,6 C 13,6 C 93 % 1018,0 hPa 0,0 mm 1,4 km/h (1 Bft) W-NW 289 0 min 0,000 mm 0,0 UV-I 58 W/m 12,5 C 3,2 km/h (1 Bft)
09.08.2016 14:47 13,6 C 13,7 C 93 % 1018,0 hPa 0,0 mm 0,4 km/h (0 Bft) W-NW 289 0 min 0,000 mm 0,6 UV-I 60 W/m 12,5 C 1,6 km/h (1 Bft)
09.08.2016 14:48 13,7 C 13,7 C 93 % 1018,0 hPa 0,0 mm 0,3 km/h (0 Bft) W-NW 289 0 min 0,000 mm 0,6 UV-I 58 W/m 12,6 C 1,6 km/h (1 Bft)
09.08.2016 14:49 13,7 C 13,7 C 93 % 1018,0 hPa 0,0 mm 2,2 km/h (1 Bft) W-NW 289 0 min 0,000 mm 0,0 UV-I 54 W/m 12,6 C 3,2 km/h (1 Bft)
09.08.2016 14:50 13,7 C 13,7 C 93 % 1018,0 hPa 0,0 mm 1,8 km/h (1 Bft) W-NW 289 0 min 0,000 mm 0,0 UV-I 51 W/m 12,6 C 3,2 km/h (1 Bft)
09.08.2016 14:51 13,6 C 13,7 C 93 % 1018,0 hPa 0,0 mm 1,4 km/h (1 Bft) W-NW 288 0 min 0,000 mm 0,0 UV-I 51 W/m 12,5 C 3,2 km/h (1 Bft)
09.08.2016 14:52 13,7 C 13,7 C 94 % 1018,0 hPa 0,0 mm 0,1 km/h (0 Bft) W-NW 288 0 min 0,000 mm 0,6 UV-I 56 W/m 12,8 C 1,6 km/h (1 Bft)
09.08.2016 14:53 13,7 C 13,7 C 94 % 1017,9 hPa 0,0 mm 1,7 km/h (1 Bft) W 281 0 min 0,000 mm 0,6 UV-I 58 W/m 12,8 C 3,2 km/h (1 Bft)
09.08.2016 14:54 13,7 C 13,7 C 94 % 1018,0 hPa 0,0 mm 3,1 km/h (1 Bft) W-SW 243 0 min 0,000 mm 0,6 UV-I 60 W/m 12,8 C 4,8 km/h (1 Bft)
09.08.2016 14:55 13,7 C 13,7 C 94 % 1017,9 hPa 0,0 mm 2,2 km/h (1 Bft) W-SW 243 0 min 0,000 mm 0,6 UV-I 62 W/m 12,8 C 3,2 km/h (1 Bft)
09.08.2016 14:56 13,7 C 13,7 C 94 % 1018,0 hPa 0,0 mm 0,6 km/h (0 Bft) W-SW 243 0 min 0,000 mm 0,6 UV-I 63 W/m 12,8 C 1,6 km/h (1 Bft)
09.08.2016 14:57 13,7 C 13,7 C 94 % 1018,0 hPa 0,0 mm 0,3 km/h (0 Bft) W-SW 243 0 min 0,000 mm 0,7 UV-I 67 W/m 12,8 C 1,6 km/h (1 Bft)
09.08.2016 14:58 13,6 C 13,7 C 94 % 1018,0 hPa 0,0 mm 0,5 km/h (0 Bft) W-SW 243 0 min 0,000 mm 0,6 UV-I 65 W/m 12,7 C 1,6 km/h (1 Bft)
09.08.2016 14:59 13,6 C 13,6 C 94 % 1018,0 hPa 0,0 mm 0,8 km/h (0 Bft) W-SW 243 0 min 0,000 mm 0,6 UV-I 60 W/m 12,7 C 1,6 km/h (1 Bft)
09.08.2016 15:00 13,6 C 13,6 C 94 % 1018,0 hPa 0,0 mm 0,0 km/h (0 Bft) W-SW 243 0 min 0,000 mm 0,6 UV-I 56 W/m 12,7 C 0,0 km/h (0 Bft)
09.08.2016 15:01 13,6 C 13,6 C 94 % 1018,0 hPa 0,0 mm 0,2 km/h (0 Bft) W-SW 243 0 min 0,025 mm 0,6 UV-I 56 W/m 12,7 C 1,6 km/h (1 Bft)
09.08.2016 15:02 13,6 C 13,6 C 94 % 1018,0 hPa 0,0 mm 2,1 km/h (1 Bft) W-SW 242 0 min 0,000 mm 0,6 UV-I 60 W/m 12,7 C 3,2 km/h (1 Bft)
09.08.2016 15:03 13,6 C 13,6 C 94 % 1018,0 hPa 0,0 mm 1,5 km/h (1 Bft) SW 234 0 min 0,000 mm 0,6 UV-I 70 W/m 12,7 C 3,2 km/h (1 Bft)
09.08.2016 15:04 13,6 C 13,7 C 94 % 1018,0 hPa 0,0 mm 1,5 km/h (1 Bft) SW 219 0 min 0,000 mm 0,7 UV-I 72 W/m 12,7 C 3,2 km/h (1 Bft)
09.08.2016 15:05 13,6 C 13,7 C 94 % 1018,0 hPa 0,0 mm 0,2 km/h (0 Bft) SW 219 0 min 0,000 mm 0,7 UV-I 69 W/m 12,7 C 1,6 km/h (1 Bft)
09.08.2016 15:06 13,7 C 13,7 C 94 % 1018,0 hPa 0,0 mm 1,4 km/h (1 Bft) SW 221 0 min 0,000 mm 0,6 UV-I 65 W/m 12,8 C 3,2 km/h (1 Bft)
09.08.2016 15:07 13,7 C 13,7 C 94 % 1018,0 hPa 0,0 mm 1,6 km/h (1 Bft) SW 221 0 min 0,000 mm 0,6 UV-I 62 W/m 12,8 C 3,2 km/h (1 Bft)
09.08.2016 15:08 13,7 C 13,7 C 94 % 1018,0 hPa 0,0 mm 0,6 km/h (0 Bft) SW 221 0 min 0,000 mm 0,6 UV-I 58 W/m 12,8 C 1,6 km/h (1 Bft)
09.08.2016 15:09 13,7 C 13,7 C 94 % 1018,0 hPa 0,0 mm 0,3 km/h (0 Bft) SW 221 0 min 0,000 mm 0,5 UV-I 54 W/m 12,8 C 1,6 km/h (1 Bft)
09.08.2016 15:10 13,7 C 13,7 C 94 % 1018,0 hPa 0,0 mm 1,4 km/h (1 Bft) SW 221 0 min 0,000 mm 0,0 UV-I 54 W/m 12,8 C 1,6 km/h (1 Bft)
09.08.2016 15:11 13,7 C 13,7 C 94 % 1018,0 hPa 0,0 mm 1,5 km/h (1 Bft) SW 221 0 min 0,000 mm 0,0 UV-I 53 W/m 12,8 C 3,2 km/h (1 Bft)
09.08.2016 15:12 13,7 C 13,7 C 93 % 1018,0 hPa 0,0 mm 0,6 km/h (0 Bft) SW 221 0 min 0,000 mm 0,0 UV-I 53 W/m 12,6 C 1,6 km/h (1 Bft)
09.08.2016 15:13 13,7 C 13,7 C 94 % 1018,0 hPa 0,0 mm 0,1 km/h (0 Bft) W 265 0 min 0,000 mm 0,0 UV-I 53 W/m 12,8 C 1,6 km/h (1 Bft)
09.08.2016 15:14 13,7 C 13,7 C 94 % 1018,0 hPa 0,0 mm 3,4 km/h (1 Bft) W 271 0 min 0,000 mm 0,0 UV-I 54 W/m 12,8 C 4,8 km/h (1 Bft)
09.08.2016 15:15 13,7 C 13,7 C 94 % 1018,0 hPa 0,0 mm 3,0 km/h (1 Bft) W-NW 289 0 min 0,000 mm 0,0 UV-I 56 W/m 12,8 C 3,2 km/h (1 Bft)
09.08.2016 15:16 13,7 C 13,8 C 94 % 1018,0 hPa 0,0 mm 2,8 km/h (1 Bft) W 274 0 min 0,000 mm 0,6 UV-I 58 W/m 12,8 C 3,2 km/h (1 Bft)
09.08.2016 15:17 13,7 C 13,8 C 94 % 1018,0 hPa 0,0 mm 5,2 km/h (1 Bft) W-NW 288 0 min 0,000 mm 0,6 UV-I 58 W/m 12,8 C 8,0 km/h (2 Bft)
09.08.2016 15:18 13,7 C 13,8 C 92 % 1018,0 hPa 0,0 mm 6,1 km/h (2 Bft) W-NW 292 0 min 0,000 mm 0,5 UV-I 58 W/m 12,4 C 9,7 km/h (2 Bft)
09.08.2016 15:19 13,7 C 13,7 C 92 % 1017,9 hPa 0,0 mm 5,5 km/h (1 Bft) W-SW 238 0 min 0,000 mm 0,5 UV-I 56 W/m 12,4 C 9,7 km/h (2 Bft)
09.08.2016 15:20 13,6 C 13,7 C 91 % 1018,1 hPa 0,0 mm 9,1 km/h (2 Bft) W 274 0 min 0,000 mm 0,5 UV-I 56 W/m 12,2 C 12,9 km/h (3 Bft)
09.08.2016 15:21 13,6 C 13,6 C 91 % 1018,0 hPa 0,0 mm 4,5 km/h (1 Bft) W 277 0 min 0,000 mm 0,5 UV-I 54 W/m 12,2 C 6,4 km/h (2 Bft)
09.08.2016 15:22 13,6 C 13,6 C 92 % 1018,0 hPa 0,0 mm 3,8 km/h (1 Bft) W 260 0 min 0,000 mm 0,0 UV-I 54 W/m 12,3 C 6,4 km/h (2 Bft)
09.08.2016 15:23 13,4 C 13,6 C 92 % 1018,0 hPa 0,0 mm 4,8 km/h (1 Bft) W-NW 291 0 min 0,000 mm 0,0 UV-I 54 W/m 12,1 C 6,4 km/h (2 Bft)
09.08.2016 15:24 13,4 C 13,4 C 92 % 1018,1 hPa 0,0 mm 7,7 km/h (2 Bft) W-NW 284 0 min 0,000 mm 0,0 UV-I 54 W/m 12,1 C 9,7 km/h (2 Bft)
09.08.2016 15:25 13,4 C 13,4 C 92 % 1018,1 hPa 0,2 mm 8,9 km/h (2 Bft) W 277 0 min 0,000 mm 0,0 UV-I 51 W/m 12,1 C 12,9 km/h (3 Bft)
09.08.2016 15:26 13,3 C 13,4 C 92 % 1018,1 hPa 0,0 mm 9,3 km/h (2 Bft) W 279 0 min 0,000 mm 0,0 UV-I 47 W/m 12,0 C 12,9 km/h (3 Bft)
09.08.2016 15:27 13,2 C 13,3 C 91 % 1018,2 hPa 0,0 mm 8,4 km/h (2 Bft) W 281 0 min 0,000 mm 0,0 UV-I 49 W/m 11,8 C 12,9 km/h (3 Bft)
09.08.2016 15:28 13,2 C 13,2 C 92 % 1018,2 hPa 0,0 mm 5,2 km/h (1 Bft) W 273 0 min 0,000 mm 0,0 UV-I 53 W/m 11,9 C 6,4 km/h (2 Bft)
09.08.2016 15:29 13,1 C 13,2 C 92 % 1018,2 hPa 0,2 mm 4,8 km/h (1 Bft) SW 224 0 min 0,000 mm 0,6 UV-I 60 W/m 11,8 C 6,4 km/h (2 Bft)
09.08.2016 15:30 13,1 C 13,1 C 92 % 1018,2 hPa 0,0 mm 6,8 km/h (2 Bft) W-SW 253 0 min 0,000 mm 0,6 UV-I 63 W/m 11,8 C 11,3 km/h (2 Bft)
09.08.2016 15:31 13,1 C 13,1 C 92 % 1018,2 hPa 0,0 mm 9,7 km/h (2 Bft) W 274 0 min 0,000 mm 0,6 UV-I 65 W/m 11,8 C 12,9 km/h (3 Bft)
09.08.2016 15:32 12,9 C 13,1 C 92 % 1018,2 hPa 0,0 mm 3,9 km/h (1 Bft) W 275 0 min 0,000 mm 0,7 UV-I 67 W/m 11,6 C 11,3 km/h (2 Bft)
09.08.2016 15:33 12,9 C 13,0 C 92 % 1018,1 hPa 0,2 mm 3,1 km/h (1 Bft) W 280 0 min 0,000 mm 0,6 UV-I 67 W/m 11,6 C 6,4 km/h (2 Bft)
09.08.2016 15:34 12,9 C 12,9 C 93 % 1018,1 hPa 0,0 mm 5,6 km/h (1 Bft) W 271 0 min 0,000 mm 0,6 UV-I 67 W/m 11,8 C 11,3 km/h (2 Bft)
09.08.2016 15:35 12,9 C 12,9 C 93 % 1018,1 hPa 0,0 mm 3,6 km/h (1 Bft) W-SW 246 0 min 0,000 mm 0,6 UV-I 69 W/m 11,8 C 4,8 km/h (1 Bft)
09.08.2016 15:36 12,9 C 12,9 C 93 % 1018,1 hPa 0,0 mm 3,3 km/h (1 Bft) W-SW 245 0 min 0,000 mm 0,6 UV-I 69 W/m 11,8 C 6,4 km/h (2 Bft)
09.08.2016 15:37 12,8 C 12,9 C 93 % 1018,1 hPa 0,0 mm 3,7 km/h (1 Bft) SW 223 0 min 0,000 mm 0,7 UV-I 70 W/m 11,7 C 6,4 km/h (2 Bft)
09.08.2016 15:38 12,8 C 12,8 C 93 % 1018,0 hPa 0,0 mm 0,7 km/h (0 Bft) S-SW 196 0 min 0,000 mm 0,7 UV-I 74 W/m 11,7 C 1,6 km/h (1 Bft)
09.08.2016 15:39 12,8 C 12,8 C 93 % 1018,0 hPa 0,0 mm 0,5 km/h (0 Bft) W-SW 242 0 min 0,000 mm 0,7 UV-I 77 W/m 11,7 C 4,8 km/h (1 Bft)
09.08.2016 15:40 12,8 C 12,8 C 93 % 1018,0 hPa 0,0 mm 1,1 km/h (1 Bft) W-SW 241 0 min 0,000 mm 0,7 UV-I 77 W/m 11,7 C 3,2 km/h (1 Bft)
09.08.2016 15:41 12,8 C 12,8 C 94 % 1018,0 hPa 0,0 mm 0,3 km/h (0 Bft) W-SW 241 0 min 0,000 mm 0,7 UV-I 76 W/m 11,9 C 1,6 km/h (1 Bft)
09.08.2016 15:42 12,8 C 12,8 C 93 % 1018,0 hPa 0,2 mm 1,7 km/h (1 Bft) W-SW 241 0 min 0,000 mm 0,7 UV-I 72 W/m 11,7 C 3,2 km/h (1 Bft)
09.08.2016 15:43 12,7 C 12,8 C 93 % 1018,1 hPa 0,0 mm 0,5 km/h (0 Bft) W-SW 241 0 min 0,000 mm 0,7 UV-I 70 W/m 11,6 C 1,6 km/h (1 Bft)
09.08.2016 15:44 12,8 C 12,8 C 93 % 1018,1 hPa 0,0 mm 1,4 km/h (1 Bft) S-SW 199 0 min 0,000 mm 0,6 UV-I 67 W/m 11,7 C 3,2 km/h (1 Bft)
09.08.2016 15:45 12,7 C 12,8 C 93 % 1018,0 hPa 0,0 mm 3,0 km/h (1 Bft) S 186 0 min 0,000 mm 0,7 UV-I 69 W/m 11,6 C 4,8 km/h (1 Bft)
09.08.2016 15:46 12,7 C 12,7 C 93 % 1018,1 hPa 0,0 mm 2,1 km/h (1 Bft) S 187 0 min 0,000 mm 0,7 UV-I 70 W/m 11,6 C 3,2 km/h (1 Bft)
09.08.2016 15:47 12,7 C 12,7 C 94 % 1018,1 hPa 0,0 mm 1,3 km/h (1 Bft) S 187 0 min 0,000 mm 0,7 UV-I 72 W/m 11,8 C 1,6 km/h (1 Bft)
09.08.2016 15:48 12,7 C 12,7 C 94 % 1018,0 hPa 0,0 mm 1,2 km/h (1 Bft) S 187 0 min 0,000 mm 0,7 UV-I 76 W/m 11,8 C 1,6 km/h (1 Bft)
09.08.2016 15:49 12,7 C 12,7 C 94 % 1018,1 hPa 0,0 mm 1,2 km/h (1 Bft) S 187 0 min 0,000 mm 0,8 UV-I 79 W/m 11,8 C 1,6 km/h (1 Bft)
09.08.2016 15:50 12,7 C 12,7 C 94 % 1018,1 hPa 0,0 mm 1,9 km/h (1 Bft) S 175 0 min 0,000 mm 0,7 UV-I 74 W/m 11,8 C 3,2 km/h (1 Bft)
09.08.2016 15:51 12,7 C 12,7 C 94 % 1018,1 hPa 0,0 mm 2,9 km/h (1 Bft) S 178 0 min 0,000 mm 0,6 UV-I 69 W/m 11,8 C 4,8 km/h (1 Bft)
09.08.2016 15:52 12,7 C 12,7 C 94 % 1018,1 hPa 0,0 mm 3,0 km/h (1 Bft) S 178 0 min 0,000 mm 0,6 UV-I 63 W/m 11,8 C 4,8 km/h (1 Bft)
09.08.2016 15:53 12,7 C 12,7 C 94 % 1018,1 hPa 0,0 mm 3,1 km/h (1 Bft) S 178 0 min 0,000 mm 0,6 UV-I 63 W/m 11,8 C 4,8 km/h (1 Bft)
09.08.2016 15:54 12,7 C 12,7 C 94 % 1018,1 hPa 0,0 mm 3,0 km/h (1 Bft) S 178 0 min 0,000 mm 0,6 UV-I 65 W/m 11,8 C 4,8 km/h (1 Bft)
09.08.2016 15:55 12,7 C 12,7 C 94 % 1018,0 hPa 0,0 mm 2,5 km/h (1 Bft) S 184 0 min 0,000 mm 0,6 UV-I 69 W/m 11,8 C 3,2 km/h (1 Bft)
09.08.2016 15:56 12,7 C 12,7 C 94 % 1018,1 hPa 0,0 mm 2,3 km/h (1 Bft) S-SO 166 0 min 0,000 mm 0,7 UV-I 76 W/m 11,8 C 4,8 km/h (1 Bft)
09.08.2016 15:57 12,7 C 12,7 C 94 % 1018,0 hPa 0,0 mm 3,8 km/h (1 Bft) S 169 0 min 0,000 mm 0,7 UV-I 77 W/m 11,8 C 6,4 km/h (2 Bft)
09.08.2016 15:58 12,7 C 12,7 C 94 % 1018,0 hPa 0,0 mm 1,9 km/h (1 Bft) S 169 0 min 0,000 mm 0,8 UV-I 77 W/m 11,8 C 3,2 km/h (1 Bft)
09.08.2016 15:59 12,7 C 12,8 C 94 % 1018,0 hPa 0,0 mm 3,6 km/h (1 Bft) S 176 0 min 0,000 mm 0,8 UV-I 77 W/m 11,8 C 6,4 km/h (2 Bft)
09.08.2016 16:00 12,8 C 12,8 C 94 % 1018,0 hPa 0,0 mm 2,7 km/h (1 Bft) S 181 0 min 0,000 mm 0,8 UV-I 77 W/m 11,9 C 4,8 km/h (1 Bft)
09.08.2016 16:01 12,8 C 12,8 C 94 % 1018,0 hPa 0,0 mm 2,1 km/h (1 Bft) SO 144 0 min 0,025 mm 0,8 UV-I 79 W/m 11,9 C 3,2 km/h (1 Bft)
09.08.2016 16:02 12,7 C 12,8 C 94 % 1018,0 hPa 0,0 mm 3,0 km/h (1 Bft) S 178 0 min 0,001 mm 0,8 UV-I 77 W/m 11,8 C 4,8 km/h (1 Bft)
09.08.2016 16:03 12,8 C 12,8 C 94 % 1018,1 hPa 0,0 mm 1,8 km/h (1 Bft) S-SW 202 0 min 0,000 mm 0,7 UV-I 72 W/m 11,9 C 3,2 km/h (1 Bft)
09.08.2016 16:04 12,8 C 12,8 C 94 % 1018,1 hPa 0,0 mm 1,6 km/h (1 Bft) S-SW 202 0 min 0,000 mm 0,6 UV-I 62 W/m 11,9 C 1,6 km/h (1 Bft)
09.08.2016 16:05 12,8 C 12,8 C 94 % 1018,1 hPa 0,0 mm 0,0 km/h (0 Bft) S-SW 202 0 min 0,000 mm 0,0 UV-I 49 W/m 11,9 C 1,6 km/h (1 Bft)
09.08.2016 16:06 12,8 C 12,8 C 94 % 1018,0 hPa 0,0 mm 3,2 km/h (1 Bft) S-SW 203 0 min 0,000 mm 0,0 UV-I 37 W/m 11,9 C 3,2 km/h (1 Bft)
09.08.2016 16:07 12,8 C 12,8 C 95 % 1018,1 hPa 0,0 mm 4,8 km/h (1 Bft) W 268 0 min 0,000 mm 0,0 UV-I 21 W/m 12,0 C 4,8 km/h (1 Bft)
09.08.2016 16:08 12,8 C 12,9 C 94 % 1018,2 hPa 0,0 mm 6,4 km/h (2 Bft) W-NW 298 0 min 0,000 mm 0,0 UV-I 16 W/m 11,9 C 6,4 km/h (2 Bft)
09.08.2016 16:09 12,8 C 12,9 C 94 % 1018,3 hPa 0,0 mm 8,0 km/h (2 Bft) W-NW 298 0 min 0,000 mm 0,0 UV-I 14 W/m 11,9 C 17,7 km/h (3 Bft)
09.08.2016 16:10 12,8 C 12,9 C 94 % 1018,3 hPa 0,2 mm 3,2 km/h (1 Bft) W 275 0 min 0,000 mm 0,0 UV-I 16 W/m 11,9 C 17,7 km/h (3 Bft)
09.08.2016 16:11 12,8 C 12,9 C 93 % 1018,3 hPa 0,4 mm 3,2 km/h (1 Bft) NW 306 0 min 0,000 mm 0,0 UV-I 18 W/m 11,7 C 17,7 km/h (3 Bft)
09.08.2016 16:12 12,7 C 12,9 C 93 % 1018,4 hPa 0,4 mm 6,4 km/h (2 Bft) NW 307 0 min 0,000 mm 0,0 UV-I 19 W/m 11,6 C 17,7 km/h (3 Bft)
09.08.2016 16:13 12,6 C 12,9 C 93 % 1018,4 hPa 0,4 mm 16,1 km/h (3 Bft) W-NW 294 0 min 0,000 mm 0,0 UV-I 26 W/m 11,5 C 17,7 km/h (3 Bft)
09.08.2016 16:14 12,5 C 12,9 C 93 % 1018,4 hPa 0,4 mm 5,7 km/h (1 Bft) W-NW 283 0 min 0,000 mm 0,0 UV-I 28 W/m 11,4 C 17,7 km/h (3 Bft)
09.08.2016 16:15 12,4 C 12,5 C 93 % 1018,4 hPa 0,0 mm 10,0 km/h (2 Bft) W-NW 286 0 min 0,000 mm 0,0 UV-I 28 W/m 11,3 C 14,5 km/h (3 Bft)
09.08.2016 16:16 12,3 C 12,4 C 92 % 1018,4 hPa 0,0 mm 9,0 km/h (2 Bft) N-NW 338 0 min 0,000 mm 0,0 UV-I 28 W/m 11,0 C 12,9 km/h (3 Bft)
09.08.2016 16:17 12,2 C 12,3 C 93 % 1018,4 hPa 0,0 mm 6,7 km/h (2 Bft) NW 306 0 min 0,000 mm 0,0 UV-I 28 W/m 11,1 C 8,0 km/h (2 Bft)
09.08.2016 16:18 12,1 C 12,2 C 93 % 1018,3 hPa 0,0 mm 9,7 km/h (2 Bft) W-NW 286 0 min 0,000 mm 0,0 UV-I 25 W/m 11,0 C 16,1 km/h (3 Bft)
09.08.2016 16:19 12,1 C 12,1 C 93 % 1018,3 hPa 0,0 mm 3,9 km/h (1 Bft) W 273 0 min 0,000 mm 0,0 UV-I 25 W/m 11,0 C 6,4 km/h (2 Bft)
09.08.2016 16:20 12,0 C 12,1 C 93 % 1018,4 hPa 0,0 mm 11,5 km/h (2 Bft) W 278 0 min 0,000 mm 0,0 UV-I 26 W/m 10,9 C 17,7 km/h (3 Bft)
09.08.2016 16:21 11,9 C 12,0 C 93 % 1018,3 hPa 0,0 mm 7,8 km/h (2 Bft) W 279 0 min 0,000 mm 0,0 UV-I 26 W/m 10,8 C 11,3 km/h (2 Bft)
09.08.2016 16:22 11,9 C 11,9 C 93 % 1018,3 hPa 0,0 mm 6,9 km/h (2 Bft) W-SW 254 0 min 0,000 mm 0,0 UV-I 28 W/m 10,8 C 11,3 km/h (2 Bft)
09.08.2016 16:23 11,9 C 11,9 C 94 % 1018,4 hPa 0,0 mm 6,2 km/h (2 Bft) W 268 0 min 0,000 mm 0,0 UV-I 30 W/m 11,0 C 12,9 km/h (3 Bft)
09.08.2016 16:24 11,8 C 11,9 C 94 % 1018,4 hPa 0,0 mm 9,3 km/h (2 Bft) W 265 0 min 0,000 mm 0,0 UV-I 30 W/m 10,9 C 12,9 km/h (3 Bft)
09.08.2016 16:25 11,8 C 11,8 C 93 % 1018,4 hPa 0,0 mm 8,1 km/h (2 Bft) NW 310 0 min 0,000 mm 0,0 UV-I 25 W/m 10,7 C 11,3 km/h (2 Bft)
09.08.2016 16:26 11,7 C 11,8 C 93 % 1018,4 hPa 0,0 mm 7,5 km/h (2 Bft) NW 310 0 min 0,000 mm 0,0 UV-I 23 W/m 10,6 C 11,3 km/h (2 Bft)
09.08.2016 16:27 11,7 C 11,7 C 94 % 1018,4 hPa 0,0 mm 4,2 km/h (1 Bft) W-NW 303 0 min 0,000 mm 0,0 UV-I 23 W/m 10,8 C 8,0 km/h (2 Bft)
09.08.2016 16:28 11,7 C 11,7 C 94 % 1018,4 hPa 0,0 mm 5,4 km/h (1 Bft) W-NW 282 0 min 0,000 mm 0,0 UV-I 21 W/m 10,8 C 6,4 km/h (2 Bft)
09.08.2016 16:29 11,7 C 11,7 C 94 % 1018,4 hPa 0,0 mm 6,4 km/h (2 Bft) W 270 0 min 0,000 mm 0,0 UV-I 21 W/m 10,8 C 11,3 km/h (2 Bft)
09.08.2016 16:30 11,7 C 11,7 C 94 % 1018,5 hPa 0,0 mm 6,2 km/h (2 Bft) W-NW 285 0 min 0,000 mm 0,0 UV-I 21 W/m 10,8 C 11,3 km/h (2 Bft)
09.08.2016 16:31 11,7 C 11,7 C 94 % 1018,5 hPa 0,0 mm 4,4 km/h (1 Bft) W-NW 286 0 min 0,000 mm 0,0 UV-I 18 W/m 10,8 C 6,4 km/h (2 Bft)
09.08.2016 16:32 11,7 C 11,7 C 94 % 1018,5 hPa 0,0 mm 5,2 km/h (1 Bft) W 275 0 min 0,000 mm 0,0 UV-I 18 W/m 10,8 C 9,7 km/h (2 Bft)
09.08.2016 16:33 11,6 C 11,7 C 94 % 1018,5 hPa 0,0 mm 9,2 km/h (2 Bft) NW 307 0 min 0,000 mm 0,0 UV-I 19 W/m 10,7 C 12,9 km/h (3 Bft)
09.08.2016 16:34 11,6 C 11,6 C 94 % 1018,5 hPa 0,0 mm 4,9 km/h (1 Bft) W 281 0 min 0,000 mm 0,0 UV-I 21 W/m 10,7 C 12,9 km/h (3 Bft)
09.08.2016 16:35 11,6 C 11,6 C 94 % 1018,5 hPa 0,0 mm 8,5 km/h (2 Bft) W-NW 298 0 min 0,000 mm 0,0 UV-I 21 W/m 10,7 C 12,9 km/h (3 Bft)
09.08.2016 16:36 11,6 C 11,6 C 94 % 1018,5 hPa 0,0 mm 8,0 km/h (2 Bft) W-NW 295 0 min 0,000 mm 0,0 UV-I 25 W/m 10,7 C 14,5 km/h (3 Bft)
09.08.2016 16:37 11,5 C 11,6 C 94 % 1018,6 hPa 0,0 mm 5,5 km/h (1 Bft) W-NW 302 0 min 0,000 mm 0,0 UV-I 26 W/m 10,6 C 11,3 km/h (2 Bft)
09.08.2016 16:38 11,5 C 11,5 C 94 % 1018,6 hPa 0,0 mm 5,8 km/h (2 Bft) W-NW 296 0 min 0,000 mm 0,0 UV-I 28 W/m 10,6 C 11,3 km/h (2 Bft)
09.08.2016 16:39 11,5 C 11,5 C 94 % 1018,6 hPa 0,0 mm 6,2 km/h (2 Bft) N-NW 331 0 min 0,000 mm 0,0 UV-I 32 W/m 10,6 C 14,5 km/h (3 Bft)
09.08.2016 16:40 11,5 C 11,5 C 94 % 1018,6 hPa 0,0 mm 6,4 km/h (2 Bft) W-SW 257 0 min 0,000 mm 0,0 UV-I 33 W/m 10,6 C 11,3 km/h (2 Bft)
09.08.2016 16:41 11,5 C 11,5 C 94 % 1018,6 hPa 0,0 mm 2,6 km/h (1 Bft) W-SW 252 0 min 0,000 mm 0,0 UV-I 32 W/m 10,6 C 4,8 km/h (1 Bft)
09.08.2016 16:42 11,5 C 11,5 C 94 % 1018,6 hPa 0,0 mm 6,1 km/h (2 Bft) W-SW 253 0 min 0,000 mm 0,0 UV-I 30 W/m 10,6 C 11,3 km/h (2 Bft)
09.08.2016 16:43 11,4 C 11,5 C 94 % 1018,6 hPa 0,0 mm 5,3 km/h (1 Bft) W-SW 257 0 min 0,000 mm 0,0 UV-I 25 W/m 10,5 C 9,7 km/h (2 Bft)
09.08.2016 16:44 11,4 C 11,4 C 94 % 1018,6 hPa 0,0 mm 2,6 km/h (1 Bft) W 267 0 min 0,000 mm 0,0 UV-I 23 W/m 10,5 C 4,8 km/h (1 Bft)
09.08.2016 16:45 11,4 C 11,4 C 94 % 1018,6 hPa 0,0 mm 2,5 km/h (1 Bft) W 272 0 min 0,000 mm 0,0 UV-I 25 W/m 10,5 C 4,8 km/h (1 Bft)
09.08.2016 16:46 11,4 C 11,5 C 94 % 1018,7 hPa 0,0 mm 7,4 km/h (2 Bft) W-SW 252 0 min 0,000 mm 0,0 UV-I 26 W/m 10,5 C 11,3 km/h (2 Bft)
09.08.2016 16:47 11,4 C 11,4 C 94 % 1018,7 hPa 0,2 mm 6,4 km/h (2 Bft) W-SW 249 0 min 0,000 mm 0,0 UV-I 26 W/m 10,5 C 9,7 km/h (2 Bft)
09.08.2016 16:48 11,4 C 11,4 C 94 % 1018,7 hPa 0,0 mm 4,9 km/h (1 Bft) W-NW 294 0 min 0,000 mm 0,0 UV-I 25 W/m 10,5 C 9,7 km/h (2 Bft)
09.08.2016 16:49 11,4 C 11,4 C 95 % 1018,7 hPa 0,0 mm 4,3 km/h (1 Bft) W 279 0 min 0,000 mm 0,0 UV-I 28 W/m 10,6 C 6,4 km/h (2 Bft)
09.08.2016 16:50 11,4 C 11,4 C 95 % 1018,7 hPa 0,2 mm 4,8 km/h (1 Bft) W-SW 241 0 min 0,000 mm 0,0 UV-I 30 W/m 10,6 C 9,7 km/h (2 Bft)
09.08.2016 16:51 11,4 C 11,4 C 95 % 1018,7 hPa 0,0 mm 6,0 km/h (2 Bft) W 266 0 min 0,000 mm 0,0 UV-I 32 W/m 10,6 C 9,7 km/h (2 Bft)
09.08.2016 16:52 11,4 C 11,4 C 94 % 1018,7 hPa 0,0 mm 2,3 km/h (1 Bft) W 265 0 min 0,000 mm 0,0 UV-I 32 W/m 10,5 C 4,8 km/h (1 Bft)
09.08.2016 16:53 11,4 C 11,4 C 94 % 1018,7 hPa 0,0 mm 3,7 km/h (1 Bft) SW 225 0 min 0,000 mm 0,0 UV-I 32 W/m 10,5 C 6,4 km/h (2 Bft)
09.08.2016 16:54 11,4 C 11,4 C 95 % 1018,7 hPa 0,0 mm 5,3 km/h (1 Bft) W 274 0 min 0,000 mm 0,0 UV-I 32 W/m 10,6 C 9,7 km/h (2 Bft)
09.08.2016 16:55 11,4 C 11,4 C 95 % 1018,8 hPa 0,2 mm 5,3 km/h (1 Bft) W 260 0 min 0,000 mm 0,0 UV-I 30 W/m 10,6 C 6,4 km/h (2 Bft)
09.08.2016 16:56 11,4 C 11,4 C 95 % 1018,8 hPa 0,0 mm 4,2 km/h (1 Bft) NW 308 0 min 0,000 mm 0,0 UV-I 26 W/m 10,6 C 6,4 km/h (2 Bft)
09.08.2016 16:57 11,4 C 11,4 C 94 % 1018,8 hPa 0,0 mm 5,1 km/h (1 Bft) W-NW 284 0 min 0,000 mm 0,0 UV-I 26 W/m 10,5 C 6,4 km/h (2 Bft)
09.08.2016 16:58 11,4 C 11,4 C 95 % 1018,8 hPa 0,0 mm 3,6 km/h (1 Bft) NW 315 0 min 0,000 mm 0,0 UV-I 26 W/m 10,6 C 6,4 km/h (2 Bft)
09.08.2016 16:59 11,4 C 11,4 C 95 % 1018,8 hPa 0,2 mm 3,5 km/h (1 Bft) W 279 0 min 0,000 mm 0,0 UV-I 26 W/m 10,6 C 4,8 km/h (1 Bft)
09.08.2016 17:00 11,4 C 11,4 C 95 % 1018,8 hPa 0,0 mm 3,3 km/h (1 Bft) W-SW 254 0 min 0,000 mm 0,0 UV-I 28 W/m 10,6 C 4,8 km/h (1 Bft)
09.08.2016 17:01 11,4 C 11,4 C 95 % 1018,8 hPa 0,0 mm 2,9 km/h (1 Bft) W-SW 253 0 min 0,025 mm 0,0 UV-I 26 W/m 10,6 C 3,2 km/h (1 Bft)
09.08.2016 17:02 11,4 C 11,4 C 95 % 1018,8 hPa 0,2 mm 3,5 km/h (1 Bft) W 262 0 min 0,000 mm 0,0 UV-I 25 W/m 10,6 C 4,8 km/h (1 Bft)
09.08.2016 17:03 11,4 C 11,4 C 95 % 1018,8 hPa 0,0 mm 5,2 km/h (1 Bft) W-NW 283 0 min 0,000 mm 0,0 UV-I 23 W/m 10,6 C 8,0 km/h (2 Bft)
09.08.2016 17:04 11,4 C 11,4 C 95 % 1018,8 hPa 0,0 mm 5,2 km/h (1 Bft) W 281 0 min 0,000 mm 0,0 UV-I 21 W/m 10,6 C 9,7 km/h (2 Bft)
09.08.2016 17:05 11,4 C 11,4 C 95 % 1018,8 hPa 0,0 mm 5,4 km/h (1 Bft) W 271 0 min 0,000 mm 0,0 UV-I 21 W/m 10,6 C 8,0 km/h (2 Bft)
09.08.2016 17:06 11,4 C 11,4 C 95 % 1018,9 hPa 0,2 mm 3,8 km/h (1 Bft) NW 306 0 min 0,000 mm 0,0 UV-I 28 W/m 10,6 C 6,4 km/h (2 Bft)
09.08.2016 17:07 11,4 C 11,4 C 95 % 1019,0 hPa 0,0 mm 3,0 km/h (1 Bft) NW 314 0 min 0,000 mm 0,0 UV-I 28 W/m 10,6 C 6,4 km/h (2 Bft)
09.08.2016 17:08 11,4 C 11,4 C 95 % 1019,0 hPa 0,0 mm 4,2 km/h (1 Bft) W 268 0 min 0,000 mm 0,0 UV-I 33 W/m 10,6 C 6,4 km/h (2 Bft)
09.08.2016 17:09 11,4 C 11,4 C 95 % 1018,9 hPa 0,2 mm 3,2 km/h (1 Bft) W 276 0 min 0,000 mm 0,0 UV-I 33 W/m 10,6 C 4,8 km/h (1 Bft)
09.08.2016 17:10 11,4 C 11,4 C 95 % 1018,9 hPa 0,0 mm 0,8 km/h (0 Bft) W 276 0 min 0,000 mm 0,0 UV-I 30 W/m 10,6 C 1,6 km/h (1 Bft)
09.08.2016 17:11 11,4 C 11,4 C 95 % 1018,9 hPa 0,0 mm 2,3 km/h (1 Bft) W 267 0 min 0,000 mm 0,0 UV-I 25 W/m 10,6 C 3,2 km/h (1 Bft)
09.08.2016 17:12 11,4 C 11,4 C 95 % 1019,0 hPa 0,2 mm 3,0 km/h (1 Bft) N 360 0 min 0,000 mm 0,0 UV-I 23 W/m 10,6 C 4,8 km/h (1 Bft)
09.08.2016 17:13 11,4 C 11,4 C 95 % 1019,0 hPa 0,0 mm 3,8 km/h (1 Bft) W 270 0 min 0,000 mm 0,0 UV-I 21 W/m 10,6 C 4,8 km/h (1 Bft)
09.08.2016 17:14 11,4 C 11,4 C 95 % 1019,0 hPa 0,0 mm 3,5 km/h (1 Bft) W-NW 286 0 min 0,000 mm 0,0 UV-I 25 W/m 10,6 C 6,4 km/h (2 Bft)
09.08.2016 17:15 11,4 C 11,4 C 95 % 1019,0 hPa 0,0 mm 4,2 km/h (1 Bft) W 270 0 min 0,000 mm 0,0 UV-I 28 W/m 10,6 C 9,7 km/h (2 Bft)
09.08.2016 17:16 11,4 C 11,4 C 95 % 1019,0 hPa 0,2 mm 2,7 km/h (1 Bft) W 269 0 min 0,000 mm 0,0 UV-I 30 W/m 10,6 C 4,8 km/h (1 Bft)
09.08.2016 17:17 11,4 C 11,4 C 95 % 1019,0 hPa 0,0 mm 2,2 km/h (1 Bft) W-NW 298 0 min 0,000 mm 0,0 UV-I 30 W/m 10,6 C 3,2 km/h (1 Bft)
09.08.2016 17:18 11,4 C 11,4 C 94 % 1019,1 hPa 0,0 mm 3,1 km/h (1 Bft) NW 309 0 min 0,000 mm 0,0 UV-I 32 W/m 10,5 C 6,4 km/h (2 Bft)
09.08.2016 17:19 11,4 C 11,4 C 95 % 1019,0 hPa 0,0 mm 5,4 km/h (1 Bft) W 266 0 min 0,000 mm 0,0 UV-I 33 W/m 10,6 C 8,0 km/h (2 Bft)
09.08.2016 17:20 11,4 C 11,4 C 95 % 1019,0 hPa 0,0 mm 4,0 km/h (1 Bft) W-SW 257 0 min 0,000 mm 0,0 UV-I 33 W/m 10,6 C 6,4 km/h (2 Bft)
09.08.2016 17:21 11,3 C 11,4 C 94 % 1019,0 hPa 0,0 mm 4,8 km/h (1 Bft) W 273 0 min 0,000 mm 0,0 UV-I 35 W/m 10,4 C 6,4 km/h (2 Bft)
09.08.2016 17:22 11,3 C 11,4 C 94 % 1019,0 hPa 0,2 mm 4,0 km/h (1 Bft) SW 232 0 min 0,000 mm 0,0 UV-I 37 W/m 10,4 C 6,4 km/h (2 Bft)
09.08.2016 17:23 11,3 C 11,3 C 94 % 1019,0 hPa 0,0 mm 2,5 km/h (1 Bft) W-SW 240 0 min 0,000 mm 0,0 UV-I 39 W/m 10,4 C 3,2 km/h (1 Bft)
09.08.2016 17:24 11,3 C 11,3 C 94 % 1019,0 hPa 0,0 mm 1,6 km/h (1 Bft) W-SW 242 0 min 0,000 mm 0,0 UV-I 40 W/m 10,4 C 3,2 km/h (1 Bft)
09.08.2016 17:25 11,4 C 11,4 C 94 % 1019,0 hPa 0,0 mm 3,4 km/h (1 Bft) W-SW 243 0 min 0,000 mm 0,0 UV-I 40 W/m 10,5 C 6,4 km/h (2 Bft)
09.08.2016 17:26 11,3 C 11,4 C 94 % 1018,9 hPa 0,2 mm 3,6 km/h (1 Bft) W-NW 289 0 min 0,000 mm 0,0 UV-I 40 W/m 10,4 C 4,8 km/h (1 Bft)
09.08.2016 17:27 11,3 C 11,3 C 94 % 1019,0 hPa 0,0 mm 3,1 km/h (1 Bft) W 259 0 min 0,000 mm 0,0 UV-I 39 W/m 10,4 C 4,8 km/h (1 Bft)
09.08.2016 17:28 11,3 C 11,3 C 94 % 1019,0 hPa 0,0 mm 4,3 km/h (1 Bft) W 262 0 min 0,000 mm 0,0 UV-I 39 W/m 10,4 C 6,4 km/h (2 Bft)
09.08.2016 17:29 11,3 C 11,3 C 93 % 1018,9 hPa 0,0 mm 4,4 km/h (1 Bft) W-SW 252 0 min 0,000 mm 0,0 UV-I 37 W/m 10,2 C 6,4 km/h (2 Bft)
09.08.2016 17:30 11,3 C 11,3 C 94 % 1019,0 hPa 0,0 mm 3,5 km/h (1 Bft) W-SW 258 0 min 0,000 mm 0,0 UV-I 39 W/m 10,4 C 4,8 km/h (1 Bft)
09.08.2016 17:31 11,4 C 11,4 C 94 % 1018,9 hPa 0,2 mm 3,2 km/h (1 Bft) W 281 0 min 0,000 mm 0,0 UV-I 37 W/m 10,5 C 4,8 km/h (1 Bft)
09.08.2016 17:32 11,3 C 11,4 C 94 % 1019,0 hPa 0,0 mm 3,4 km/h (1 Bft) W-SW 251 0 min 0,000 mm 0,0 UV-I 35 W/m 10,4 C 4,8 km/h (1 Bft)
09.08.2016 17:33 11,3 C 11,4 C 94 % 1019,0 hPa 0,0 mm 4,6 km/h (1 Bft) W-SW 246 0 min 0,000 mm 0,0 UV-I 33 W/m 10,4 C 6,4 km/h (2 Bft)
09.08.2016 17:34 11,4 C 11,4 C 94 % 1019,0 hPa 0,0 mm 2,5 km/h (1 Bft) W-SW 243 0 min 0,000 mm 0,0 UV-I 35 W/m 10,5 C 4,8 km/h (1 Bft)
09.08.2016 17:35 11,3 C 11,4 C 94 % 1019,0 hPa 0,2 mm 2,2 km/h (1 Bft) W-SW 239 0 min 0,000 mm 0,0 UV-I 33 W/m 10,4 C 3,2 km/h (1 Bft)
09.08.2016 17:36 11,3 C 11,4 C 94 % 1019,0 hPa 0,0 mm 2,2 km/h (1 Bft) SW 230 0 min 0,000 mm 0,0 UV-I 35 W/m 10,4 C 4,8 km/h (1 Bft)
09.08.2016 17:37 11,3 C 11,3 C 94 % 1019,1 hPa 0,0 mm 3,7 km/h (1 Bft) S-SW 209 0 min 0,000 mm 0,0 UV-I 32 W/m 10,4 C 6,4 km/h (2 Bft)
09.08.2016 17:38 11,3 C 11,3 C 94 % 1019,1 hPa 0,0 mm 1,4 km/h (1 Bft) S-SW 204 0 min 0,000 mm 0,0 UV-I 26 W/m 10,4 C 3,2 km/h (1 Bft)
09.08.2016 17:39 11,3 C 11,3 C 94 % 1019,1 hPa 0,0 mm 2,3 km/h (1 Bft) S-SW 197 0 min 0,000 mm 0,0 UV-I 25 W/m 10,4 C 3,2 km/h (1 Bft)
09.08.2016 17:40 11,3 C 11,3 C 94 % 1019,1 hPa 0,0 mm 3,8 km/h (1 Bft) SW 231 0 min 0,000 mm 0,0 UV-I 23 W/m 10,4 C 6,4 km/h (2 Bft)
09.08.2016 17:41 11,3 C 11,3 C 94 % 1019,1 hPa 0,2 mm 1,2 km/h (1 Bft) S-SW 196 0 min 0,000 mm 0,0 UV-I 21 W/m 10,4 C 3,2 km/h (1 Bft)
09.08.2016 17:42 11,3 C 11,3 C 94 % 1019,1 hPa 0,0 mm 2,5 km/h (1 Bft) W 259 0 min 0,000 mm 0,0 UV-I 19 W/m 10,4 C 4,8 km/h (1 Bft)
09.08.2016 17:43 11,3 C 11,3 C 94 % 1019,1 hPa 0,0 mm 2,6 km/h (1 Bft) W 263 0 min 0,000 mm 0,0 UV-I 19 W/m 10,4 C 6,4 km/h (2 Bft)
09.08.2016 17:44 11,4 C 11,4 C 95 % 1019,1 hPa 0,2 mm 5,5 km/h (1 Bft) W-SW 253 0 min 0,000 mm 0,0 UV-I 18 W/m 10,6 C 11,3 km/h (2 Bft)
09.08.2016 17:45 11,4 C 11,4 C 95 % 1019,2 hPa 0,0 mm 4,4 km/h (1 Bft) W 259 0 min 0,000 mm 0,0 UV-I 19 W/m 10,6 C 6,4 km/h (2 Bft)
09.08.2016 17:46 11,4 C 11,4 C 95 % 1019,1 hPa 0,0 mm 1,1 km/h (1 Bft) W-SW 244 0 min 0,000 mm 0,0 UV-I 19 W/m 10,6 C 3,2 km/h (1 Bft)
09.08.2016 17:47 11,4 C 11,4 C 95 % 1019,1 hPa 0,0 mm 0,9 km/h (0 Bft) W-SW 244 0 min 0,000 mm 0,0 UV-I 16 W/m 10,6 C 1,6 km/h (1 Bft)
09.08.2016 17:48 11,4 C 11,4 C 94 % 1019,2 hPa 0,0 mm 2,1 km/h (1 Bft) W-SW 250 0 min 0,000 mm 0,0 UV-I 14 W/m 10,5 C 6,4 km/h (2 Bft)
09.08.2016 17:49 11,4 C 11,4 C 94 % 1019,2 hPa 0,2 mm 6,4 km/h (2 Bft) W 272 0 min 0,000 mm 0,0 UV-I 14 W/m 10,5 C 9,7 km/h (2 Bft)
09.08.2016 17:50 11,4 C 11,4 C 94 % 1019,2 hPa 0,0 mm 4,6 km/h (1 Bft) W-SW 249 0 min 0,000 mm 0,0 UV-I 14 W/m 10,5 C 6,4 km/h (2 Bft)
09.08.2016 17:51 11,4 C 11,4 C 94 % 1019,3 hPa 0,0 mm 4,5 km/h (1 Bft) SW 220 0 min 0,000 mm 0,0 UV-I 14 W/m 10,5 C 6,4 km/h (2 Bft)
09.08.2016 17:52 11,4 C 11,4 C 94 % 1019,3 hPa 0,2 mm 4,7 km/h (1 Bft) W 274 0 min 0,000 mm 0,0 UV-I 12 W/m 10,5 C 11,3 km/h (2 Bft)
09.08.2016 17:53 11,3 C 11,4 C 94 % 1019,3 hPa 0,0 mm 5,7 km/h (1 Bft) W-SW 258 0 min 0,000 mm 0,0 UV-I 12 W/m 10,4 C 9,7 km/h (2 Bft)
09.08.2016 17:54 11,3 C 11,4 C 94 % 1019,3 hPa 0,0 mm 7,1 km/h (2 Bft) W 266 0 min 0,000 mm 0,0 UV-I 12 W/m 10,4 C 11,3 km/h (2 Bft)
09.08.2016 17:55 11,4 C 11,4 C 94 % 1019,3 hPa 0,2 mm 6,6 km/h (2 Bft) W-SW 257 0 min 0,000 mm 0,0 UV-I 12 W/m 10,5 C 12,9 km/h (3 Bft)
09.08.2016 17:56 11,3 C 11,4 C 94 % 1019,2 hPa 0,0 mm 5,8 km/h (2 Bft) W-SW 240 0 min 0,000 mm 0,0 UV-I 12 W/m 10,4 C 9,7 km/h (2 Bft)
09.08.2016 17:57 11,3 C 11,3 C 93 % 1019,2 hPa 0,0 mm 6,1 km/h (2 Bft) W-SW 248 0 min 0,000 mm 0,0 UV-I 14 W/m 10,2 C 17,7 km/h (3 Bft)
09.08.2016 17:58 11,3 C 11,3 C 93 % 1019,3 hPa 0,0 mm 5,2 km/h (1 Bft) W-NW 298 0 min 0,000 mm 0,0 UV-I 14 W/m 10,2 C 11,3 km/h (2 Bft)
09.08.2016 17:59 11,3 C 11,3 C 93 % 1019,3 hPa 0,2 mm 8,2 km/h (2 Bft) W 264 0 min 0,000 mm 0,0 UV-I 14 W/m 10,2 C 12,9 km/h (3 Bft)
09.08.2016 18:00 11,3 C 11,3 C 93 % 1019,3 hPa 0,0 mm 11,7 km/h (2 Bft) W 265 0 min 0,000 mm 0,0 UV-I 14 W/m 10,2 C 17,7 km/h (3 Bft)
09.08.2016 18:01 11,3 C 11,3 C 93 % 1019,3 hPa 0,0 mm 5,7 km/h (1 Bft) W 267 0 min 0,025 mm 0,0 UV-I 14 W/m 10,2 C 9,7 km/h (2 Bft)
09.08.2016 18:02 11,3 C 11,3 C 94 % 1019,4 hPa 0,0 mm 5,4 km/h (1 Bft) W-NW 282 0 min 0,001 mm 0,0 UV-I 14 W/m 10,4 C 6,4 km/h (2 Bft)
09.08.2016 18:03 11,3 C 11,3 C 94 % 1019,4 hPa 0,0 mm 6,0 km/h (2 Bft) W 265 0 min 0,000 mm 0,0 UV-I 14 W/m 10,4 C 9,7 km/h (2 Bft)
09.08.2016 18:04 11,3 C 11,3 C 94 % 1019,4 hPa 0,2 mm 7,0 km/h (2 Bft) W-NW 296 0 min 0,000 mm 0,0 UV-I 14 W/m 10,4 C 9,7 km/h (2 Bft)
09.08.2016 18:05 11,3 C 11,3 C 94 % 1019,4 hPa 0,0 mm 4,4 km/h (1 Bft) W 269 0 min 0,000 mm 0,0 UV-I 18 W/m 10,4 C 6,4 km/h (2 Bft)
09.08.2016 18:06 11,3 C 11,3 C 94 % 1019,4 hPa 0,0 mm 6,8 km/h (2 Bft) W-NW 284 0 min 0,000 mm 0,0 UV-I 18 W/m 10,4 C 12,9 km/h (3 Bft)
09.08.2016 18:07 11,3 C 11,3 C 94 % 1019,4 hPa 0,0 mm 5,1 km/h (1 Bft) W 263 0 min 0,000 mm 0,0 UV-I 18 W/m 10,4 C 11,3 km/h (2 Bft)
09.08.2016 18:08 11,3 C 11,3 C 94 % 1019,4 hPa 0,0 mm 5,9 km/h (2 Bft) W-SW 248 0 min 0,000 mm 0,0 UV-I 18 W/m 10,4 C 9,7 km/h (2 Bft)
09.08.2016 18:09 11,3 C 11,3 C 94 % 1019,4 hPa 0,0 mm 8,8 km/h (2 Bft) W 275 0 min 0,000 mm 0,0 UV-I 19 W/m 10,4 C 12,9 km/h (3 Bft)
09.08.2016 18:10 11,2 C 11,3 C 93 % 1019,5 hPa 0,0 mm 6,0 km/h (2 Bft) W 277 0 min 0,000 mm 0,0 UV-I 19 W/m 10,1 C 9,7 km/h (2 Bft)
09.08.2016 18:11 11,2 C 11,2 C 93 % 1019,4 hPa 0,0 mm 6,0 km/h (2 Bft) W-SW 251 0 min 0,000 mm 0,0 UV-I 19 W/m 10,1 C 8,0 km/h (2 Bft)
09.08.2016 18:12 11,2 C 11,2 C 93 % 1019,4 hPa 0,2 mm 4,8 km/h (1 Bft) W-SW 249 0 min 0,000 mm 0,0 UV-I 21 W/m 10,1 C 6,4 km/h (2 Bft)
09.08.2016 18:13 11,2 C 11,2 C 93 % 1019,4 hPa 0,0 mm 3,1 km/h (1 Bft) W-SW 250 0 min 0,000 mm 0,0 UV-I 21 W/m 10,1 C 6,4 km/h (2 Bft)
09.08.2016 18:14 11,1 C 11,2 C 93 % 1019,4 hPa 0,0 mm 5,8 km/h (2 Bft) W-SW 240 0 min 0,000 mm 0,0 UV-I 21 W/m 10,0 C 9,7 km/h (2 Bft)
09.08.2016 18:15 11,1 C 11,1 C 94 % 1019,5 hPa 0,0 mm 3,6 km/h (1 Bft) SW 224 0 min 0,000 mm 0,0 UV-I 21 W/m 10,2 C 6,4 km/h (2 Bft)
09.08.2016 18:16 11,1 C 11,1 C 93 % 1019,5 hPa 0,2 mm 0,7 km/h (0 Bft) SW 224 0 min 0,000 mm 0,0 UV-I 21 W/m 10,0 C 1,6 km/h (1 Bft)
09.08.2016 18:17 11,1 C 11,1 C 93 % 1019,4 hPa 0,0 mm 2,5 km/h (1 Bft) S-SW 192 0 min 0,000 mm 0,0 UV-I 19 W/m 10,0 C 4,8 km/h (1 Bft)
09.08.2016 18:18 11,0 C 11,1 C 93 % 1019,5 hPa 0,0 mm 3,0 km/h (1 Bft) S-SW 193 0 min 0,000 mm 0,0 UV-I 19 W/m 9,9 C 4,8 km/h (1 Bft)
09.08.2016 18:19 10,9 C 11,0 C 93 % 1019,5 hPa 0,0 mm 3,6 km/h (1 Bft) S 170 0 min 0,000 mm 0,0 UV-I 18 W/m 9,8 C 6,4 km/h (2 Bft)
09.08.2016 18:20 10,9 C 10,9 C 93 % 1019,5 hPa 0,0 mm 2,2 km/h (1 Bft) S 170 0 min 0,000 mm 0,0 UV-I 18 W/m 9,8 C 3,2 km/h (1 Bft)
09.08.2016 18:21 10,9 C 10,9 C 93 % 1019,4 hPa 0,2 mm 1,4 km/h (1 Bft) S 180 0 min 0,000 mm 0,0 UV-I 18 W/m 9,8 C 3,2 km/h (1 Bft)
09.08.2016 18:22 10,9 C 10,9 C 93 % 1019,5 hPa 0,0 mm 2,9 km/h (1 Bft) SW 227 0 min 0,000 mm 0,0 UV-I 18 W/m 9,8 C 6,4 km/h (2 Bft)
09.08.2016 18:23 10,9 C 10,9 C 93 % 1019,5 hPa 0,0 mm 3,2 km/h (1 Bft) W-SW 238 0 min 0,000 mm 0,0 UV-I 18 W/m 9,8 C 4,8 km/h (1 Bft)
09.08.2016 18:24 10,9 C 10,9 C 93 % 1019,5 hPa 0,0 mm 2,9 km/h (1 Bft) S-SW 207 0 min 0,000 mm 0,0 UV-I 18 W/m 9,8 C 4,8 km/h (1 Bft)
09.08.2016 18:25 10,9 C 10,9 C 94 % 1019,5 hPa 0,2 mm 3,2 km/h (1 Bft) S 169 0 min 0,000 mm 0,0 UV-I 18 W/m 10,0 C 6,4 km/h (2 Bft)
09.08.2016 18:26 10,9 C 10,9 C 93 % 1019,5 hPa 0,0 mm 3,0 km/h (1 Bft) S-SW 205 0 min 0,000 mm 0,0 UV-I 16 W/m 9,8 C 6,4 km/h (2 Bft)
09.08.2016 18:27 10,9 C 10,9 C 94 % 1019,5 hPa 0,0 mm 1,6 km/h (1 Bft) S-SW 205 0 min 0,000 mm 0,0 UV-I 16 W/m 10,0 C 3,2 km/h (1 Bft)
09.08.2016 18:28 10,9 C 10,9 C 94 % 1019,5 hPa 0,2 mm 0,9 km/h (0 Bft) S 182 0 min 0,000 mm 0,0 UV-I 16 W/m 10,0 C 3,2 km/h (1 Bft)
09.08.2016 18:29 10,8 C 10,9 C 94 % 1019,5 hPa 0,0 mm 3,8 km/h (1 Bft) S-SW 194 0 min 0,000 mm 0,0 UV-I 14 W/m 9,9 C 6,4 km/h (2 Bft)
09.08.2016 18:30 10,9 C 10,9 C 93 % 1019,5 hPa 0,0 mm 4,2 km/h (1 Bft) S 188 0 min 0,000 mm 0,0 UV-I 14 W/m 9,8 C 8,0 km/h (2 Bft)
09.08.2016 18:31 10,9 C 10,9 C 93 % 1019,6 hPa 0,2 mm 3,0 km/h (1 Bft) S-SW 192 0 min 0,000 mm 0,0 UV-I 16 W/m 9,8 C 4,8 km/h (1 Bft)
09.08.2016 18:32 10,9 C 10,9 C 93 % 1019,5 hPa 0,0 mm 4,7 km/h (1 Bft) SW 236 0 min 0,000 mm 0,0 UV-I 16 W/m 9,8 C 8,0 km/h (2 Bft)
09.08.2016 18:33 10,8 C 10,9 C 94 % 1019,5 hPa 0,0 mm 1,9 km/h (1 Bft) S-SW 197 0 min 0,000 mm 0,0 UV-I 16 W/m 9,9 C 4,8 km/h (1 Bft)
09.08.2016 18:34 10,8 C 10,9 C 94 % 1019,5 hPa 0,2 mm 2,7 km/h (1 Bft) S-SW 197 0 min 0,000 mm 0,0 UV-I 18 W/m 9,9 C 4,8 km/h (1 Bft)
09.08.2016 18:35 10,8 C 10,9 C 94 % 1019,5 hPa 0,0 mm 2,3 km/h (1 Bft) S 190 0 min 0,000 mm 0,0 UV-I 18 W/m 9,9 C 3,2 km/h (1 Bft)
09.08.2016 18:36 10,8 C 10,9 C 94 % 1019,6 hPa 0,0 mm 3,0 km/h (1 Bft) S 190 0 min 0,000 mm 0,0 UV-I 18 W/m 9,9 C 6,4 km/h (2 Bft)
09.08.2016 18:37 10,8 C 10,9 C 94 % 1019,5 hPa 0,2 mm 2,1 km/h (1 Bft) S 190 0 min 0,000 mm 0,0 UV-I 19 W/m 9,9 C 3,2 km/h (1 Bft)
09.08.2016 18:38 10,8 C 10,8 C 94 % 1019,5 hPa 0,0 mm 1,3 km/h (1 Bft) S 190 0 min 0,000 mm 0,0 UV-I 19 W/m 9,9 C 3,2 km/h (1 Bft)
09.08.2016 18:39 10,8 C 10,8 C 94 % 1019,5 hPa 0,0 mm 1,7 km/h (1 Bft) S 190 0 min 0,000 mm 0,0 UV-I 19 W/m 9,9 C 4,8 km/h (1 Bft)
09.08.2016 18:40 10,8 C 10,8 C 94 % 1019,5 hPa 0,2 mm 2,0 km/h (1 Bft) S-SW 211 0 min 0,000 mm 0,0 UV-I 19 W/m 9,9 C 4,8 km/h (1 Bft)
09.08.2016 18:41 10,8 C 10,9 C 94 % 1019,6 hPa 0,0 mm 1,3 km/h (1 Bft) SW 225 0 min 0,000 mm 0,0 UV-I 19 W/m 9,9 C 3,2 km/h (1 Bft)
09.08.2016 18:42 10,8 C 10,9 C 94 % 1019,5 hPa 0,0 mm 1,0 km/h (0 Bft) SW 214 0 min 0,000 mm 0,0 UV-I 19 W/m 9,9 C 3,2 km/h (1 Bft)
09.08.2016 18:43 10,8 C 10,8 C 94 % 1019,5 hPa 0,2 mm 3,1 km/h (1 Bft) S 184 0 min 0,000 mm 0,0 UV-I 19 W/m 9,9 C 4,8 km/h (1 Bft)
09.08.2016 18:44 10,8 C 10,8 C 94 % 1019,5 hPa 0,0 mm 1,3 km/h (1 Bft) S 184 0 min 0,000 mm 0,0 UV-I 19 W/m 9,9 C 3,2 km/h (1 Bft)
09.08.2016 18:45 10,8 C 10,9 C 94 % 1019,5 hPa 0,0 mm 2,2 km/h (1 Bft) S-SW 196 0 min 0,000 mm 0,0 UV-I 21 W/m 9,9 C 3,2 km/h (1 Bft)
09.08.2016 18:46 10,8 C 10,9 C 94 % 1019,5 hPa 0,0 mm 2,3 km/h (1 Bft) S-SW 201 0 min 0,000 mm 0,0 UV-I 23 W/m 9,9 C 4,8 km/h (1 Bft)
09.08.2016 18:47 10,9 C 10,9 C 94 % 1019,5 hPa 0,2 mm 2,5 km/h (1 Bft) S-SW 192 0 min 0,000 mm 0,0 UV-I 25 W/m 10,0 C 4,8 km/h (1 Bft)
09.08.2016 18:48 10,9 C 10,9 C 94 % 1019,5 hPa 0,0 mm 3,7 km/h (1 Bft) S 187 0 min 0,000 mm 0,0 UV-I 25 W/m 10,0 C 4,8 km/h (1 Bft)
09.08.2016 18:49 10,9 C 10,9 C 94 % 1019,5 hPa 0,0 mm 1,5 km/h (1 Bft) S 187 0 min 0,000 mm 0,0 UV-I 26 W/m 10,0 C 3,2 km/h (1 Bft)
09.08.2016 18:50 10,9 C 10,9 C 94 % 1019,5 hPa 0,0 mm 1,5 km/h (1 Bft) S 184 0 min 0,000 mm 0,0 UV-I 26 W/m 10,0 C 3,2 km/h (1 Bft)
09.08.2016 18:51 10,9 C 10,9 C 94 % 1019,5 hPa 0,0 mm 2,1 km/h (1 Bft) S 184 0 min 0,000 mm 0,0 UV-I 26 W/m 10,0 C 3,2 km/h (1 Bft)
09.08.2016 18:52 10,9 C 10,9 C 94 % 1019,6 hPa 0,0 mm 3,3 km/h (1 Bft) S-SW 205 0 min 0,000 mm 0,0 UV-I 23 W/m 10,0 C 4,8 km/h (1 Bft)
09.08.2016 18:53 10,9 C 10,9 C 94 % 1019,6 hPa 0,2 mm 2,7 km/h (1 Bft) S-SW 200 0 min 0,000 mm 0,0 UV-I 21 W/m 10,0 C 4,8 km/h (1 Bft)
09.08.2016 18:54 10,9 C 10,9 C 94 % 1019,6 hPa 0,0 mm 0,8 km/h (0 Bft) S-SW 200 0 min 0,000 mm 0,0 UV-I 19 W/m 10,0 C 1,6 km/h (1 Bft)
09.08.2016 18:55 10,9 C 10,9 C 94 % 1019,6 hPa 0,0 mm 2,1 km/h (1 Bft) S-SW 200 0 min 0,000 mm 0,0 UV-I 18 W/m 10,0 C 3,2 km/h (1 Bft)
09.08.2016 18:56 10,9 C 10,9 C 94 % 1019,6 hPa 0,0 mm 1,4 km/h (1 Bft) S-SW 197 0 min 0,000 mm 0,0 UV-I 18 W/m 10,0 C 3,2 km/h (1 Bft)
09.08.2016 18:57 10,9 C 10,9 C 94 % 1019,6 hPa 0,0 mm 2,1 km/h (1 Bft) SW 225 0 min 0,000 mm 0,0 UV-I 19 W/m 10,0 C 4,8 km/h (1 Bft)
09.08.2016 18:58 10,9 C 10,9 C 94 % 1019,6 hPa 0,0 mm 2,5 km/h (1 Bft) S-SW 207 0 min 0,000 mm 0,0 UV-I 19 W/m 10,0 C 4,8 km/h (1 Bft)
09.08.2016 18:59 10,9 C 10,9 C 94 % 1019,6 hPa 0,0 mm 3,5 km/h (1 Bft) S 174 0 min 0,000 mm 0,0 UV-I 18 W/m 10,0 C 6,4 km/h (2 Bft)
09.08.2016 19:00 10,9 C 10,9 C 94 % 1019,6 hPa 0,0 mm 2,3 km/h (1 Bft) S 171 0 min 0,000 mm 0,0 UV-I 19 W/m 10,0 C 4,8 km/h (1 Bft)
09.08.2016 19:01 10,9 C 10,9 C 95 % 1019,6 hPa 0,0 mm 1,7 km/h (1 Bft) S 171 0 min 0,000 mm 0,0 UV-I 19 W/m 10,1 C 3,2 km/h (1 Bft)
09.08.2016 19:02 10,9 C 10,9 C 94 % 1019,6 hPa 0,2 mm 2,1 km/h (1 Bft) S 173 0 min 0,000 mm 0,0 UV-I 19 W/m 10,0 C 3,2 km/h (1 Bft)
09.08.2016 19:03 10,9 C 10,9 C 94 % 1019,6 hPa 0,0 mm 2,2 km/h (1 Bft) S 182 0 min 0,000 mm 0,0 UV-I 19 W/m 10,0 C 3,2 km/h (1 Bft)
09.08.2016 19:04 10,9 C 11,0 C 94 % 1019,7 hPa 0,0 mm 2,8 km/h (1 Bft) S 175 0 min 0,000 mm 0,0 UV-I 19 W/m 10,0 C 4,8 km/h (1 Bft)
09.08.2016 19:05 11,0 C 11,0 C 94 % 1019,7 hPa 0,0 mm 2,7 km/h (1 Bft) S 175 0 min 0,000 mm 0,0 UV-I 19 W/m 10,1 C 4,8 km/h (1 Bft)
09.08.2016 19:06 10,9 C 11,0 C 94 % 1019,6 hPa 0,0 mm 3,1 km/h (1 Bft) S 175 0 min 0,000 mm 0,0 UV-I 19 W/m 10,0 C 4,8 km/h (1 Bft)
09.08.2016 19:07 11,0 C 11,0 C 95 % 1019,6 hPa 0,0 mm 2,7 km/h (1 Bft) S 181 0 min 0,000 mm 0,0 UV-I 19 W/m 10,2 C 4,8 km/h (1 Bft)
09.08.2016 19:08 10,9 C 11,0 C 94 % 1019,6 hPa 0,0 mm 1,7 km/h (1 Bft) S 169 0 min 0,000 mm 0,0 UV-I 19 W/m 10,0 C 3,2 km/h (1 Bft)
09.08.2016 19:09 11,0 C 11,0 C 94 % 1019,6 hPa 0,0 mm 2,6 km/h (1 Bft) S 180 0 min 0,000 mm 0,0 UV-I 21 W/m 10,1 C 6,4 km/h (2 Bft)
09.08.2016 19:10 11,0 C 11,0 C 94 % 1019,5 hPa 0,0 mm 1,7 km/h (1 Bft) S 180 0 min 0,000 mm 0,0 UV-I 21 W/m 10,1 C 3,2 km/h (1 Bft)
09.08.2016 19:11 11,0 C 11,0 C 94 % 1019,6 hPa 0,2 mm 1,4 km/h (1 Bft) S 180 0 min 0,000 mm 0,0 UV-I 21 W/m 10,1 C 3,2 km/h (1 Bft)
09.08.2016 19:12 11,0 C 11,0 C 94 % 1019,5 hPa 0,0 mm 1,0 km/h (0 Bft) S 180 0 min 0,000 mm 0,0 UV-I 21 W/m 10,1 C 3,2 km/h (1 Bft)
09.08.2016 19:13 11,0 C 11,0 C 95 % 1019,6 hPa 0,0 mm 2,2 km/h (1 Bft) S 180 0 min 0,000 mm 0,0 UV-I 21 W/m 10,2 C 3,2 km/h (1 Bft)
09.08.2016 19:14 11,0 C 11,0 C 95 % 1019,6 hPa 0,0 mm 2,4 km/h (1 Bft) S 182 0 min 0,000 mm 0,0 UV-I 21 W/m 10,2 C 4,8 km/h (1 Bft)
09.08.2016 19:15 11,0 C 11,0 C 95 % 1019,6 hPa 0,0 mm 2,1 km/h (1 Bft) S-SW 205 0 min 0,000 mm 0,0 UV-I 21 W/m 10,2 C 3,2 km/h (1 Bft)
09.08.2016 19:16 11,0 C 11,0 C 95 % 1019,6 hPa 0,0 mm 0,8 km/h (0 Bft) S-SW 205 0 min 0,000 mm 0,0 UV-I 21 W/m 10,2 C 3,2 km/h (1 Bft)
09.08.2016 19:17 11,0 C 11,0 C 95 % 1019,6 hPa 0,0 mm 0,5 km/h (0 Bft) S-SW 205 0 min 0,000 mm 0,0 UV-I 21 W/m 10,2 C 1,6 km/h (1 Bft)
09.08.2016 19:18 11,0 C 11,0 C 95 % 1019,6 hPa 0,2 mm 1,1 km/h (1 Bft) S-SW 205 0 min 0,000 mm 0,0 UV-I 21 W/m 10,2 C 3,2 km/h (1 Bft)
09.08.2016 19:19 11,0 C 11,0 C 94 % 1019,7 hPa 0,0 mm 1,0 km/h (0 Bft) S-SW 205 0 min 0,000 mm 0,0 UV-I 21 W/m 10,1 C 1,6 km/h (1 Bft)
09.08.2016 19:20 11,0 C 11,1 C 95 % 1019,7 hPa 0,0 mm 1,9 km/h (1 Bft) SW 215 0 min 0,000 mm 0,0 UV-I 19 W/m 10,2 C 4,8 km/h (1 Bft)
09.08.2016 19:21 11,1 C 11,1 C 95 % 1019,7 hPa 0,0 mm 1,6 km/h (1 Bft) SW 227 0 min 0,000 mm 0,0 UV-I 19 W/m 10,3 C 3,2 km/h (1 Bft)
09.08.2016 19:22 11,1 C 11,1 C 95 % 1019,8 hPa 0,0 mm 0,3 km/h (0 Bft) SW 227 0 min 0,000 mm 0,0 UV-I 19 W/m 10,3 C 1,6 km/h (1 Bft)
09.08.2016 19:23 11,1 C 11,1 C 95 % 1019,7 hPa 0,0 mm 2,3 km/h (1 Bft) SW 218 0 min 0,000 mm 0,0 UV-I 19 W/m 10,3 C 4,8 km/h (1 Bft)
09.08.2016 19:24 11,1 C 11,1 C 94 % 1019,7 hPa 0,0 mm 2,1 km/h (1 Bft) S-SW 207 0 min 0,000 mm 0,0 UV-I 21 W/m 10,2 C 4,8 km/h (1 Bft)
09.08.2016 19:25 11,0 C 11,1 C 94 % 1019,7 hPa 0,0 mm 0,7 km/h (0 Bft) S-SW 207 0 min 0,000 mm 0,0 UV-I 21 W/m 10,1 C 3,2 km/h (1 Bft)
09.08.2016 19:26 11,1 C 11,1 C 94 % 1019,7 hPa 0,2 mm 0,5 km/h (0 Bft) S-SW 207 0 min 0,000 mm 0,0 UV-I 21 W/m 10,2 C 1,6 km/h (1 Bft)
09.08.2016 19:27 11,1 C 11,1 C 94 % 1019,7 hPa 0,0 mm 0,0 km/h (0 Bft) S-SW 207 0 min 0,000 mm 0,0 UV-I 21 W/m 10,2 C 0,0 km/h (0 Bft)
09.08.2016 19:28 11,1 C 11,1 C 94 % 1019,7 hPa 0,0 mm 0,0 km/h (0 Bft) S-SW 207 0 min 0,000 mm 0,0 UV-I 21 W/m 10,2 C 0,0 km/h (0 Bft)
09.08.2016 19:29 11,1 C 11,1 C 94 % 1019,7 hPa 0,0 mm 0,0 km/h (0 Bft) S-SW 207 0 min 0,000 mm 0,0 UV-I 21 W/m 10,2 C 0,0 km/h (0 Bft)
09.08.2016 19:30 11,0 C 11,1 C 95 % 1019,7 hPa 0,0 mm 0,0 km/h (0 Bft) S-SW 207 0 min 0,000 mm 0,0 UV-I 21 W/m 10,2 C 0,0 km/h (0 Bft)
09.08.2016 19:31 11,1 C 11,1 C 95 % 1019,6 hPa 0,0 mm 0,3 km/h (0 Bft) S-SW 207 0 min 0,000 mm 0,0 UV-I 21 W/m 10,3 C 1,6 km/h (1 Bft)
09.08.2016 19:32 11,1 C 11,1 C 95 % 1019,7 hPa 0,0 mm 0,0 km/h (0 Bft) S-SW 207 0 min 0,000 mm 0,0 UV-I 21 W/m 10,3 C 0,0 km/h (0 Bft)
09.08.2016 19:33 11,0 C 11,1 C 95 % 1019,7 hPa 0,0 mm 0,3 km/h (0 Bft) S-SW 207 0 min 0,000 mm 0,0 UV-I 19 W/m 10,2 C 1,6 km/h (1 Bft)
09.08.2016 19:34 11,0 C 11,1 C 95 % 1019,7 hPa 0,0 mm 0,3 km/h (0 Bft) S-SW 207 0 min 0,000 mm 0,0 UV-I 19 W/m 10,2 C 1,6 km/h (1 Bft)
09.08.2016 19:35 11,0 C 11,1 C 95 % 1019,7 hPa 0,0 mm 0,0 km/h (0 Bft) S-SW 207 0 min 0,000 mm 0,0 UV-I 18 W/m 10,2 C 0,0 km/h (0 Bft)
09.08.2016 19:36 11,0 C 11,1 C 95 % 1019,7 hPa 0,0 mm 0,0 km/h (0 Bft) S-SW 207 0 min 0,000 mm 0,0 UV-I 18 W/m 10,2 C 0,0 km/h (0 Bft)
09.08.2016 19:37 11,0 C 11,0 C 95 % 1019,7 hPa 0,0 mm 0,1 km/h (0 Bft) S-SW 207 0 min 0,000 mm 0,0 UV-I 18 W/m 10,2 C 1,6 km/h (1 Bft)
09.08.2016 19:38 11,0 C 11,0 C 95 % 1019,7 hPa 0,0 mm 0,1 km/h (0 Bft) S-SW 207 0 min 0,000 mm 0,0 UV-I 16 W/m 10,2 C 1,6 km/h (1 Bft)
09.08.2016 19:39 11,0 C 11,1 C 95 % 1019,7 hPa 0,0 mm 0,2 km/h (0 Bft) S-SW 207 0 min 0,000 mm 0,0 UV-I 16 W/m 10,2 C 1,6 km/h (1 Bft)
09.08.2016 19:40 11,0 C 11,0 C 95 % 1019,7 hPa 0,0 mm 0,1 km/h (0 Bft) S-SW 207 0 min 0,000 mm 0,0 UV-I 16 W/m 10,2 C 1,6 km/h (1 Bft)
09.08.2016 19:41 11,0 C 11,0 C 95 % 1019,7 hPa 0,2 mm 0,3 km/h (0 Bft) S-SW 207 0 min 0,000 mm 0,0 UV-I 16 W/m 10,2 C 1,6 km/h (1 Bft)
09.08.2016 19:42 11,0 C 11,0 C 95 % 1019,7 hPa 0,0 mm 1,4 km/h (1 Bft) S-SW 208 0 min 0,000 mm 0,0 UV-I 16 W/m 10,2 C 3,2 km/h (1 Bft)
09.08.2016 19:43 11,0 C 11,0 C 95 % 1019,7 hPa 0,0 mm 0,0 km/h (0 Bft) S-SW 208 0 min 0,000 mm 0,0 UV-I 16 W/m 10,2 C 0,0 km/h (0 Bft)
09.08.2016 19:44 11,0 C 11,0 C 95 % 1019,7 hPa 0,0 mm 0,2 km/h (0 Bft) S-SW 208 0 min 0,000 mm 0,0 UV-I 16 W/m 10,2 C 1,6 km/h (1 Bft)
09.08.2016 19:45 11,0 C 11,0 C 95 % 1019,7 hPa 0,0 mm 0,0 km/h (0 Bft) S-SW 210 0 min 0,000 mm 0,0 UV-I 16 W/m 10,2 C 0,0 km/h (0 Bft)
09.08.2016 19:46 11,0 C 11,0 C 95 % 1019,7 hPa 0,0 mm 0,0 km/h (0 Bft) S-SW 210 0 min 0,000 mm 0,0 UV-I 18 W/m 10,2 C 0,0 km/h (0 Bft)
09.08.2016 19:47 11,0 C 11,0 C 95 % 1019,7 hPa 0,0 mm 0,0 km/h (0 Bft) W-SW 243 0 min 0,000 mm 0,0 UV-I 18 W/m 10,2 C 0,0 km/h (0 Bft)
09.08.2016 19:48 10,9 C 11,0 C 95 % 1019,7 hPa 0,0 mm 0,0 km/h (0 Bft) W-SW 251 0 min 0,000 mm 0,0 UV-I 16 W/m 10,1 C 0,0 km/h (0 Bft)
09.08.2016 19:49 10,9 C 11,0 C 95 % 1019,7 hPa 0,0 mm 0,0 km/h (0 Bft) W-SW 251 0 min 0,000 mm 0,0 UV-I 16 W/m 10,1 C 0,0 km/h (0 Bft)
09.08.2016 19:50 10,9 C 11,0 C 95 % 1019,7 hPa 0,0 mm 0,0 km/h (0 Bft) W-SW 251 0 min 0,000 mm 0,0 UV-I 16 W/m 10,1 C 0,0 km/h (0 Bft)
09.08.2016 19:51 11,0 C 11,0 C 95 % 1019,7 hPa 0,0 mm 0,0 km/h (0 Bft) W-SW 251 0 min 0,000 mm 0,0 UV-I 16 W/m 10,2 C 0,0 km/h (0 Bft)
09.08.2016 19:52 11,0 C 11,0 C 95 % 1019,7 hPa 0,0 mm 0,0 km/h (0 Bft) W-SW 251 0 min 0,000 mm 0,0 UV-I 14 W/m 10,2 C 0,0 km/h (0 Bft)
09.08.2016 19:53 11,0 C 11,0 C 95 % 1019,7 hPa 0,2 mm 0,0 km/h (0 Bft) W-SW 247 0 min 0,000 mm 0,0 UV-I 14 W/m 10,2 C 0,0 km/h (0 Bft)
09.08.2016 19:54 11,0 C 11,0 C 95 % 1019,7 hPa 0,0 mm 0,0 km/h (0 Bft) W-SW 247 0 min 0,000 mm 0,0 UV-I 14 W/m 10,2 C 0,0 km/h (0 Bft)
09.08.2016 19:55 11,0 C 11,0 C 95 % 1019,7 hPa 0,0 mm 0,0 km/h (0 Bft) W-SW 247 0 min 0,000 mm 0,0 UV-I 14 W/m 10,2 C 0,0 km/h (0 Bft)
09.08.2016 19:56 11,0 C 11,0 C 95 % 1019,7 hPa 0,0 mm 0,0 km/h (0 Bft) W-SW 247 0 min 0,000 mm 0,0 UV-I 12 W/m 10,2 C 0,0 km/h (0 Bft)
09.08.2016 19:57 11,0 C 11,0 C 95 % 1019,7 hPa 0,0 mm 0,0 km/h (0 Bft) W-SW 247 0 min 0,000 mm 0,0 UV-I 12 W/m 10,2 C 0,0 km/h (0 Bft)
09.08.2016 19:58 11,0 C 11,0 C 95 % 1019,7 hPa 0,0 mm 0,0 km/h (0 Bft) W-SW 246 0 min 0,000 mm 0,0 UV-I 12 W/m 10,2 C 0,0 km/h (0 Bft)
09.08.2016 19:59 10,9 C 11,0 C 95 % 1019,7 hPa 0,0 mm 0,0 km/h (0 Bft) SW 234 0 min 0,000 mm 0,0 UV-I 12 W/m 10,1 C 0,0 km/h (0 Bft)
09.08.2016 20:00 11,0 C 11,0 C 95 % 1019,7 hPa 0,0 mm 0,0 km/h (0 Bft) SW 234 0 min 0,000 mm 0,0 UV-I 11 W/m 10,2 C 0,0 km/h (0 Bft)
09.08.2016 20:01 11,0 C 11,0 C 95 % 1019,7 hPa 0,0 mm 0,6 km/h (0 Bft) SW 234 0 min 0,000 mm 0,0 UV-I 11 W/m 10,2 C 3,2 km/h (1 Bft)
09.08.2016 20:02 11,0 C 11,0 C 95 % 1019,7 hPa 0,0 mm 1,7 km/h (1 Bft) SW 236 0 min 0,000 mm 0,0 UV-I 11 W/m 10,2 C 3,2 km/h (1 Bft)
09.08.2016 20:03 11,0 C 11,0 C 95 % 1019,7 hPa 0,0 mm 4,6 km/h (1 Bft) SW 235 0 min 0,000 mm 0,0 UV-I 11 W/m 10,2 C 8,0 km/h (2 Bft)
09.08.2016 20:04 11,0 C 11,0 C 95 % 1019,7 hPa 0,0 mm 2,5 km/h (1 Bft) SW 226 0 min 0,000 mm 0,0 UV-I 11 W/m 10,2 C 3,2 km/h (1 Bft)
09.08.2016 20:05 11,0 C 11,0 C 95 % 1019,7 hPa 0,0 mm 2,1 km/h (1 Bft) W-SW 245 0 min 0,000 mm 0,0 UV-I 11 W/m 10,2 C 4,8 km/h (1 Bft)
09.08.2016 20:06 11,0 C 11,0 C 95 % 1019,7 hPa 0,0 mm 1,3 km/h (1 Bft) SW 214 0 min 0,000 mm 0,0 UV-I 9 W/m 10,2 C 1,6 km/h (1 Bft)
09.08.2016 20:07 10,9 C 11,0 C 95 % 1019,7 hPa 0,0 mm 1,2 km/h (1 Bft) SW 214 0 min 0,000 mm 0,0 UV-I 9 W/m 10,1 C 3,2 km/h (1 Bft)
09.08.2016 20:08 10,9 C 11,0 C 95 % 1019,7 hPa 0,0 mm 1,0 km/h (0 Bft) SW 214 0 min 0,000 mm 0,0 UV-I 9 W/m 10,1 C 1,6 km/h (1 Bft)
09.08.2016 20:09 10,9 C 10,9 C 95 % 1019,7 hPa 0,0 mm 1,8 km/h (1 Bft) S-SW 204 0 min 0,000 mm 0,0 UV-I 9 W/m 10,1 C 3,2 km/h (1 Bft)
09.08.2016 20:10 10,9 C 10,9 C 95 % 1019,7 hPa 0,0 mm 3,1 km/h (1 Bft) SW 223 0 min 0,000 mm 0,0 UV-I 9 W/m 10,1 C 4,8 km/h (1 Bft)
09.08.2016 20:11 10,9 C 10,9 C 94 % 1019,7 hPa 0,0 mm 2,2 km/h (1 Bft) W-SW 255 0 min 0,000 mm 0,0 UV-I 9 W/m 10,0 C 3,2 km/h (1 Bft)
09.08.2016 20:12 10,9 C 10,9 C 95 % 1019,6 hPa 0,0 mm 0,1 km/h (0 Bft) W-SW 255 0 min 0,000 mm 0,0 UV-I 9 W/m 10,1 C 1,6 km/h (1 Bft)
09.08.2016 20:13 10,9 C 10,9 C 95 % 1019,7 hPa 0,0 mm 1,2 km/h (1 Bft) SW 220 0 min 0,000 mm 0,0 UV-I 9 W/m 10,1 C 3,2 km/h (1 Bft)
09.08.2016 20:14 10,9 C 11,0 C 95 % 1019,7 hPa 0,0 mm 0,7 km/h (0 Bft) SW 220 0 min 0,000 mm 0,0 UV-I 7 W/m 10,1 C 3,2 km/h (1 Bft)
09.08.2016 20:15 10,9 C 10,9 C 95 % 1019,6 hPa 0,0 mm 0,7 km/h (0 Bft) SW 220 0 min 0,000 mm 0,0 UV-I 7 W/m 10,1 C 1,6 km/h (1 Bft)
09.08.2016 20:16 10,9 C 10,9 C 94 % 1019,6 hPa 0,0 mm 3,5 km/h (1 Bft) SW 225 0 min 0,000 mm 0,0 UV-I 7 W/m 10,0 C 4,8 km/h (1 Bft)
09.08.2016 20:17 10,9 C 10,9 C 94 % 1019,6 hPa 0,0 mm 2,1 km/h (1 Bft) SW 227 0 min 0,000 mm 0,0 UV-I 7 W/m 10,0 C 3,2 km/h (1 Bft)
09.08.2016 20:18 10,9 C 10,9 C 95 % 1019,6 hPa 0,0 mm 2,2 km/h (1 Bft) W-SW 239 0 min 0,000 mm 0,0 UV-I 5 W/m 10,1 C 3,2 km/h (1 Bft)
09.08.2016 20:19 10,9 C 10,9 C 94 % 1019,6 hPa 0,0 mm 0,7 km/h (0 Bft) W-SW 239 0 min 0,000 mm 0,0 UV-I 5 W/m 10,0 C 1,6 km/h (1 Bft)
09.08.2016 20:20 10,9 C 10,9 C 94 % 1019,6 hPa 0,0 mm 0,6 km/h (0 Bft) W-SW 239 0 min 0,000 mm 0,0 UV-I 5 W/m 10,0 C 1,6 km/h (1 Bft)
09.08.2016 20:21 10,9 C 10,9 C 94 % 1019,6 hPa 0,0 mm 1,3 km/h (1 Bft) W-SW 239 0 min 0,000 mm 0,0 UV-I 5 W/m 10,0 C 3,2 km/h (1 Bft)
09.08.2016 20:22 10,9 C 10,9 C 95 % 1019,6 hPa 0,0 mm 0,3 km/h (0 Bft) W-SW 239 0 min 0,000 mm 0,0 UV-I 5 W/m 10,1 C 1,6 km/h (1 Bft)
09.08.2016 20:23 10,9 C 10,9 C 94 % 1019,6 hPa 0,0 mm 0,3 km/h (0 Bft) S-SW 205 0 min 0,000 mm 0,0 UV-I 5 W/m 10,0 C 3,2 km/h (1 Bft)
09.08.2016 20:24 10,9 C 10,9 C 94 % 1019,6 hPa 0,0 mm 2,7 km/h (1 Bft) S-SW 192 0 min 0,000 mm 0,0 UV-I 5 W/m 10,0 C 3,2 km/h (1 Bft)
09.08.2016 20:25 10,9 C 10,9 C 94 % 1019,6 hPa 0,0 mm 2,8 km/h (1 Bft) W 262 0 min 0,000 mm 0,0 UV-I 0 W/m 10,0 C 3,2 km/h (1 Bft)
09.08.2016 20:26 10,9 C 10,9 C 94 % 1019,6 hPa 0,0 mm 1,4 km/h (1 Bft) SW 233 0 min 0,000 mm 0,0 UV-I 0 W/m 10,0 C 3,2 km/h (1 Bft)
09.08.2016 20:27 10,9 C 10,9 C 94 % 1019,6 hPa 0,0 mm 1,9 km/h (1 Bft) SW 229 0 min 0,000 mm 0,0 UV-I 0 W/m 10,0 C 3,2 km/h (1 Bft)
09.08.2016 20:28 10,9 C 10,9 C 94 % 1019,6 hPa 0,0 mm 0,2 km/h (0 Bft) SW 229 0 min 0,000 mm 0,0 UV-I 0 W/m 10,0 C 1,6 km/h (1 Bft)
09.08.2016 20:29 10,9 C 10,9 C 95 % 1019,6 hPa 0,0 mm 0,5 km/h (0 Bft) SW 229 0 min 0,000 mm 0,0 UV-I 0 W/m 10,1 C 1,6 km/h (1 Bft)
09.08.2016 20:30 10,9 C 10,9 C 95 % 1019,6 hPa 0,0 mm 1,0 km/h (0 Bft) SW 225 0 min 0,000 mm 0,0 UV-I 0 W/m 10,1 C 1,6 km/h (1 Bft)
09.08.2016 20:31 10,9 C 10,9 C 95 % 1019,6 hPa 0,0 mm 0,1 km/h (0 Bft) SW 225 0 min 0,000 mm 0,0 UV-I 0 W/m 10,1 C 1,6 km/h (1 Bft)
09.08.2016 20:32 10,9 C 10,9 C 95 % 1019,6 hPa 0,0 mm 0,0 km/h (0 Bft) SW 225 0 min 0,000 mm 0,0 UV-I 0 W/m 10,1 C 0,0 km/h (0 Bft)
09.08.2016 20:33 10,9 C 10,9 C 95 % 1019,6 hPa 0,0 mm 0,1 km/h (0 Bft) SW 225 0 min 0,000 mm 0,0 UV-I 0 W/m 10,1 C 1,6 km/h (1 Bft)
09.08.2016 20:34 10,8 C 10,9 C 95 % 1019,6 hPa 0,0 mm 0,0 km/h (0 Bft) SW 225 0 min 0,000 mm 0,0 UV-I 0 W/m 10,0 C 0,0 km/h (0 Bft)
09.08.2016 20:35 10,8 C 10,8 C 95 % 1019,6 hPa 0,0 mm 0,0 km/h (0 Bft) SW 225 0 min 0,000 mm 0,0 UV-I 0 W/m 10,0 C 0,0 km/h (0 Bft)
09.08.2016 20:36 10,8 C 10,8 C 95 % 1019,6 hPa 0,0 mm 0,2 km/h (0 Bft) SW 225 0 min 0,000 mm 0,0 UV-I 0 W/m 10,0 C 1,6 km/h (1 Bft)
09.08.2016 20:37 10,8 C 10,8 C 95 % 1019,6 hPa 0,0 mm 0,8 km/h (0 Bft) SW 225 0 min 0,000 mm 0,0 UV-I 0 W/m 10,0 C 1,6 km/h (1 Bft)
09.08.2016 20:38 10,8 C 10,8 C 95 % 1019,6 hPa 0,0 mm 0,5 km/h (0 Bft) SW 225 0 min 0,000 mm 0,0 UV-I 0 W/m 10,0 C 1,6 km/h (1 Bft)
09.08.2016 20:39 10,8 C 10,8 C 95 % 1019,5 hPa 0,0 mm 0,0 km/h (0 Bft) SW 225 0 min 0,000 mm 0,0 UV-I 0 W/m 10,0 C 0,0 km/h (0 Bft)
09.08.2016 20:40 10,8 C 10,8 C 95 % 1019,5 hPa 0,0 mm 0,0 km/h (0 Bft) SW 225 0 min 0,000 mm 0,0 UV-I 0 W/m 10,0 C 0,0 km/h (0 Bft)
09.08.2016 20:41 10,8 C 10,8 C 95 % 1019,5 hPa 0,0 mm 0,0 km/h (0 Bft) SW 225 0 min 0,000 mm 0,0 UV-I 0 W/m 10,0 C 0,0 km/h (0 Bft)
09.08.2016 20:42 10,8 C 10,8 C 95 % 1019,5 hPa 0,2 mm 0,9 km/h (0 Bft) SW 225 0 min 0,000 mm 0,0 UV-I 0 W/m 10,0 C 1,6 km/h (1 Bft)
09.08.2016 20:43 10,7 C 10,8 C 95 % 1019,5 hPa 0,0 mm 0,6 km/h (0 Bft) SW 225 0 min 0,000 mm 0,0 UV-I 0 W/m 9,9 C 1,6 km/h (1 Bft)
09.08.2016 20:44 10,7 C 10,7 C 95 % 1019,6 hPa 0,0 mm 0,5 km/h (0 Bft) SW 225 0 min 0,000 mm 0,0 UV-I 0 W/m 9,9 C 1,6 km/h (1 Bft)
09.08.2016 20:45 10,7 C 10,7 C 95 % 1019,6 hPa 0,0 mm 1,1 km/h (1 Bft) SW 225 0 min 0,000 mm 0,0 UV-I 0 W/m 9,9 C 3,2 km/h (1 Bft)
09.08.2016 20:46 10,7 C 10,7 C 95 % 1019,5 hPa 0,0 mm 0,3 km/h (0 Bft) SW 225 0 min 0,000 mm 0,0 UV-I 0 W/m 9,9 C 1,6 km/h (1 Bft)
09.08.2016 20:47 10,7 C 10,7 C 95 % 1019,6 hPa 0,0 mm 0,2 km/h (0 Bft) SW 225 0 min 0,000 mm 0,0 UV-I 0 W/m 9,9 C 1,6 km/h (1 Bft)
09.08.2016 20:48 10,7 C 10,7 C 95 % 1019,6 hPa 0,0 mm 0,5 km/h (0 Bft) SW 225 0 min 0,000 mm 0,0 UV-I 0 W/m 9,9 C 1,6 km/h (1 Bft)
09.08.2016 20:49 10,6 C 10,7 C 95 % 1019,6 hPa 0,0 mm 1,5 km/h (1 Bft) S-SW 203 0 min 0,000 mm 0,0 UV-I 0 W/m 9,8 C 3,2 km/h (1 Bft)
09.08.2016 20:50 10,7 C 10,7 C 95 % 1019,7 hPa 0,0 mm 1,3 km/h (1 Bft) S-SW 203 0 min 0,000 mm 0,0 UV-I 0 W/m 9,9 C 1,6 km/h (1 Bft)
09.08.2016 20:51 10,6 C 10,7 C 95 % 1019,7 hPa 0,0 mm 0,6 km/h (0 Bft) S-SW 203 0 min 0,000 mm 0,0 UV-I 0 W/m 9,8 C 1,6 km/h (1 Bft)
09.08.2016 20:52 10,6 C 10,7 C 95 % 1019,7 hPa 0,0 mm 0,0 km/h (0 Bft) S-SW 203 0 min 0,000 mm 0,0 UV-I 0 W/m 9,8 C 0,0 km/h (0 Bft)
09.08.2016 20:53 10,6 C 10,6 C 95 % 1019,7 hPa 0,0 mm 0,0 km/h (0 Bft) S-SW 203 0 min 0,000 mm 0,0 UV-I 0 W/m 9,8 C 0,0 km/h (0 Bft)
09.08.2016 20:54 10,6 C 10,6 C 95 % 1019,7 hPa 0,0 mm 0,0 km/h (0 Bft) S-SW 203 0 min 0,000 mm 0,0 UV-I 0 W/m 9,8 C 0,0 km/h (0 Bft)
09.08.2016 20:55 10,6 C 10,6 C 95 % 1019,7 hPa 0,0 mm 0,0 km/h (0 Bft) S-SW 203 0 min 0,000 mm 0,0 UV-I 0 W/m 9,8 C 0,0 km/h (0 Bft)
09.08.2016 20:56 10,6 C 10,6 C 95 % 1019,7 hPa 0,0 mm 0,0 km/h (0 Bft) S-SW 203 0 min 0,000 mm 0,0 UV-I 0 W/m 9,8 C 0,0 km/h (0 Bft)
09.08.2016 20:57 10,6 C 10,6 C 95 % 1019,7 hPa 0,0 mm 0,0 km/h (0 Bft) S-SW 201 0 min 0,000 mm 0,0 UV-I 0 W/m 9,8 C 0,0 km/h (0 Bft)
09.08.2016 20:58 10,6 C 10,6 C 95 % 1019,8 hPa 0,0 mm 0,0 km/h (0 Bft) S-SW 201 0 min 0,000 mm 0,0 UV-I 0 W/m 9,8 C 0,0 km/h (0 Bft)
09.08.2016 20:59 10,6 C 10,6 C 95 % 1019,7 hPa 0,0 mm 0,0 km/h (0 Bft) S-SW 201 0 min 0,000 mm 0,0 UV-I 0 W/m 9,8 C 0,0 km/h (0 Bft)
09.08.2016 21:00 10,5 C 10,6 C 95 % 1019,7 hPa 0,0 mm 0,0 km/h (0 Bft) S-SW 201 0 min 0,000 mm 0,0 UV-I 0 W/m 9,7 C 0,0 km/h (0 Bft)
09.08.2016 21:01 10,4 C 10,5 C 95 % 1019,7 hPa 0,0 mm 0,0 km/h (0 Bft) S-SW 201 0 min 0,000 mm 0,0 UV-I 0 W/m 9,6 C 0,0 km/h (0 Bft)
09.08.2016 21:02 10,5 C 10,5 C 95 % 1019,8 hPa 0,0 mm 0,0 km/h (0 Bft) S-SW 201 0 min 0,000 mm 0,0 UV-I 0 W/m 9,7 C 0,0 km/h (0 Bft)
09.08.2016 21:03 10,4 C 10,5 C 95 % 1019,7 hPa 0,0 mm 0,0 km/h (0 Bft) S-SW 201 0 min 0,000 mm 0,0 UV-I 0 W/m 9,6 C 0,0 km/h (0 Bft)
09.08.2016 21:04 10,4 C 10,4 C 95 % 1019,8 hPa 0,0 mm 0,0 km/h (0 Bft) S-SW 201 0 min 0,000 mm 0,0 UV-I 0 W/m 9,6 C 0,0 km/h (0 Bft)
09.08.2016 21:05 10,4 C 10,4 C 95 % 1019,8 hPa 0,0 mm 0,0 km/h (0 Bft) S-SW 201 0 min 0,000 mm 0,0 UV-I 0 W/m 9,6 C 0,0 km/h (0 Bft)
09.08.2016 21:06 10,4 C 10,4 C 95 % 1019,8 hPa 0,0 mm 0,0 km/h (0 Bft) S-SW 201 0 min 0,000 mm 0,0 UV-I 0 W/m 9,6 C 0,0 km/h (0 Bft)
09.08.2016 21:07 10,4 C 10,4 C 95 % 1019,8 hPa 0,0 mm 0,0 km/h (0 Bft) S-SW 201 0 min 0,000 mm 0,0 UV-I 0 W/m 9,6 C 0,0 km/h (0 Bft)
09.08.2016 21:08 10,4 C 10,4 C 95 % 1019,8 hPa 0,0 mm 0,0 km/h (0 Bft) S-SW 201 0 min 0,000 mm 0,0 UV-I 0 W/m 9,6 C 0,0 km/h (0 Bft)
09.08.2016 21:09 10,3 C 10,4 C 95 % 1019,8 hPa 0,0 mm 0,0 km/h (0 Bft) S-SW 201 0 min 0,000 mm 0,0 UV-I 0 W/m 9,5 C 0,0 km/h (0 Bft)
09.08.2016 21:10 10,3 C 10,4 C 95 % 1019,8 hPa 0,0 mm 0,0 km/h (0 Bft) S-SW 201 0 min 0,000 mm 0,0 UV-I 0 W/m 9,5 C 0,0 km/h (0 Bft)
09.08.2016 21:11 10,3 C 10,4 C 95 % 1019,8 hPa 0,0 mm 0,3 km/h (0 Bft) S-SW 199 0 min 0,000 mm 0,0 UV-I 0 W/m 9,5 C 1,6 km/h (1 Bft)
09.08.2016 21:12 10,3 C 10,3 C 95 % 1019,8 hPa 0,0 mm 2,8 km/h (1 Bft) S 177 0 min 0,000 mm 0,0 UV-I 0 W/m 9,5 C 3,2 km/h (1 Bft)
09.08.2016 21:13 10,3 C 10,3 C 94 % 1019,9 hPa 0,0 mm 2,2 km/h (1 Bft) S 177 0 min 0,000 mm 0,0 UV-I 0 W/m 9,4 C 3,2 km/h (1 Bft)
09.08.2016 21:14 10,3 C 10,3 C 94 % 1019,9 hPa 0,0 mm 2,2 km/h (1 Bft) S 178 0 min 0,000 mm 0,0 UV-I 0 W/m 9,4 C 4,8 km/h (1 Bft)
09.08.2016 21:15 10,3 C 10,3 C 94 % 1019,9 hPa 0,0 mm 2,5 km/h (1 Bft) S 180 0 min 0,000 mm 0,0 UV-I 0 W/m 9,4 C 4,8 km/h (1 Bft)
09.08.2016 21:16 10,2 C 10,3 C 94 % 1019,9 hPa 0,0 mm 1,5 km/h (1 Bft) S 180 0 min 0,000 mm 0,0 UV-I 0 W/m 9,3 C 3,2 km/h (1 Bft)
09.08.2016 21:17 10,2 C 10,3 C 94 % 1019,9 hPa 0,0 mm 1,6 km/h (1 Bft) S 180 0 min 0,000 mm 0,0 UV-I 0 W/m 9,3 C 3,2 km/h (1 Bft)
09.08.2016 21:18 10,3 C 10,3 C 94 % 1019,8 hPa 0,0 mm 1,9 km/h (1 Bft) S 180 0 min 0,000 mm 0,0 UV-I 0 W/m 9,4 C 3,2 km/h (1 Bft)
09.08.2016 21:19 10,2 C 10,3 C 95 % 1019,8 hPa 0,0 mm 1,9 km/h (1 Bft) S 180 0 min 0,000 mm 0,0 UV-I 0 W/m 9,4 C 3,2 km/h (1 Bft)
09.08.2016 21:20 10,3 C 10,3 C 95 % 1019,8 hPa 0,0 mm 2,3 km/h (1 Bft) S 179 0 min 0,000 mm 0,0 UV-I 0 W/m 9,5 C 3,2 km/h (1 Bft)
09.08.2016 21:21 10,2 C 10,3 C 95 % 1019,8 hPa 0,0 mm 2,0 km/h (1 Bft) S 178 0 min 0,000 mm 0,0 UV-I 0 W/m 9,4 C 3,2 km/h (1 Bft)
09.08.2016 21:22 10,2 C 10,2 C 95 % 1019,8 hPa 0,0 mm 1,3 km/h (1 Bft) S 178 0 min 0,000 mm 0,0 UV-I 0 W/m 9,4 C 3,2 km/h (1 Bft)
09.08.2016 21:23 10,2 C 10,2 C 95 % 1019,8 hPa 0,0 mm 2,1 km/h (1 Bft) S 178 0 min 0,000 mm 0,0 UV-I 0 W/m 9,4 C 3,2 km/h (1 Bft)
09.08.2016 21:24 10,2 C 10,2 C 95 % 1019,8 hPa 0,0 mm 2,1 km/h (1 Bft) S 178 0 min 0,000 mm 0,0 UV-I 0 W/m 9,4 C 3,2 km/h (1 Bft)
09.08.2016 21:25 10,2 C 10,2 C 95 % 1019,8 hPa 0,0 mm 2,3 km/h (1 Bft) S 178 0 min 0,000 mm 0,0 UV-I 0 W/m 9,4 C 3,2 km/h (1 Bft)
09.08.2016 21:26 10,2 C 10,2 C 95 % 1019,8 hPa 0,0 mm 2,2 km/h (1 Bft) S 178 0 min 0,000 mm 0,0 UV-I 0 W/m 9,4 C 3,2 km/h (1 Bft)
09.08.2016 21:27 10,1 C 10,2 C 95 % 1019,8 hPa 0,0 mm 2,9 km/h (1 Bft) S 178 0 min 0,000 mm 0,0 UV-I 0 W/m 9,3 C 3,2 km/h (1 Bft)
09.08.2016 21:28 10,1 C 10,1 C 95 % 1019,8 hPa 0,0 mm 2,3 km/h (1 Bft) S 178 0 min 0,000 mm 0,0 UV-I 0 W/m 9,3 C 3,2 km/h (1 Bft)
09.08.2016 21:29 10,1 C 10,1 C 95 % 1019,9 hPa 0,0 mm 1,0 km/h (0 Bft) S 178 0 min 0,000 mm 0,0 UV-I 0 W/m 9,3 C 1,6 km/h (1 Bft)
09.08.2016 21:30 10,1 C 10,1 C 95 % 1019,9 hPa 0,0 mm 0,4 km/h (0 Bft) S 178 0 min 0,000 mm 0,0 UV-I 0 W/m 9,3 C 1,6 km/h (1 Bft)
09.08.2016 21:31 10,1 C 10,1 C 95 % 1019,8 hPa 0,0 mm 0,0 km/h (0 Bft) S 178 0 min 0,000 mm 0,0 UV-I 0 W/m 9,3 C 0,0 km/h (0 Bft)
09.08.2016 21:32 10,1 C 10,1 C 95 % 1019,9 hPa 0,0 mm 0,0 km/h (0 Bft) S 178 0 min 0,000 mm 0,0 UV-I 0 W/m 9,3 C 0,0 km/h (0 Bft)
09.08.2016 21:33 10,1 C 10,1 C 95 % 1019,9 hPa 0,0 mm 0,0 km/h (0 Bft) S 178 0 min 0,000 mm 0,0 UV-I 0 W/m 9,3 C 0,0 km/h (0 Bft)
09.08.2016 21:34 10,1 C 10,1 C 95 % 1019,9 hPa 0,0 mm 0,0 km/h (0 Bft) S 178 0 min 0,000 mm 0,0 UV-I 0 W/m 9,3 C 0,0 km/h (0 Bft)
09.08.2016 21:35 10,1 C 10,1 C 95 % 1019,8 hPa 0,0 mm 0,0 km/h (0 Bft) S 178 0 min 0,000 mm 0,0 UV-I 0 W/m 9,3 C 0,0 km/h (0 Bft)
09.08.2016 21:36 10,1 C 10,1 C 96 % 1019,9 hPa 0,0 mm 0,0 km/h (0 Bft) S 178 0 min 0,000 mm 0,0 UV-I 0 W/m 9,5 C 0,0 km/h (0 Bft)
09.08.2016 21:37 10,1 C 10,1 C 96 % 1019,8 hPa 0,0 mm 0,0 km/h (0 Bft) S 178 0 min 0,000 mm 0,0 UV-I 0 W/m 9,5 C 0,0 km/h (0 Bft)
09.08.2016 21:38 10,2 C 10,2 C 95 % 1019,8 hPa 0,0 mm 0,0 km/h (0 Bft) S 178 0 min 0,000 mm 0,0 UV-I 0 W/m 9,4 C 0,0 km/h (0 Bft)
09.08.2016 21:39 10,2 C 10,2 C 96 % 1019,8 hPa 0,0 mm 0,0 km/h (0 Bft) S 178 0 min 0,000 mm 0,0 UV-I 0 W/m 9,6 C 0,0 km/h (0 Bft)
09.08.2016 21:40 10,2 C 10,2 C 96 % 1019,8 hPa 0,0 mm 0,0 km/h (0 Bft) S 178 0 min 0,000 mm 0,0 UV-I 0 W/m 9,6 C 0,0 km/h (0 Bft)
09.08.2016 21:41 10,2 C 10,2 C 96 % 1019,8 hPa 0,0 mm 0,0 km/h (0 Bft) S 178 0 min 0,000 mm 0,0 UV-I 0 W/m 9,6 C 0,0 km/h (0 Bft)
09.08.2016 21:42 10,3 C 10,3 C 96 % 1019,8 hPa 0,0 mm 0,0 km/h (0 Bft) S 178 0 min 0,000 mm 0,0 UV-I 0 W/m 9,7 C 0,0 km/h (0 Bft)
09.08.2016 21:43 10,3 C 10,3 C 96 % 1019,8 hPa 0,0 mm 0,0 km/h (0 Bft) S 178 0 min 0,000 mm 0,0 UV-I 0 W/m 9,7 C 0,0 km/h (0 Bft)
09.08.2016 21:44 10,2 C 10,3 C 96 % 1019,8 hPa 0,0 mm 0,0 km/h (0 Bft) S 178 0 min 0,000 mm 0,0 UV-I 0 W/m 9,6 C 0,0 km/h (0 Bft)
09.08.2016 21:45 10,3 C 10,3 C 96 % 1019,8 hPa 0,0 mm 0,0 km/h (0 Bft) S 178 0 min 0,000 mm 0,0 UV-I 0 W/m 9,7 C 0,0 km/h (0 Bft)
09.08.2016 21:46 10,3 C 10,3 C 96 % 1019,8 hPa 0,0 mm 0,0 km/h (0 Bft) S 178 0 min 0,000 mm 0,0 UV-I 0 W/m 9,7 C 0,0 km/h (0 Bft)
09.08.2016 21:47 10,3 C 10,3 C 96 % 1019,8 hPa 0,0 mm 0,0 km/h (0 Bft) S 178 0 min 0,000 mm 0,0 UV-I 0 W/m 9,7 C 0,0 km/h (0 Bft)
09.08.2016 21:48 10,3 C 10,3 C 96 % 1019,7 hPa 0,0 mm 0,0 km/h (0 Bft) S 178 0 min 0,000 mm 0,0 UV-I 0 W/m 9,7 C 0,0 km/h (0 Bft)
09.08.2016 21:49 10,3 C 10,3 C 96 % 1019,7 hPa 0,0 mm 0,0 km/h (0 Bft) S 178 0 min 0,000 mm 0,0 UV-I 0 W/m 9,7 C 0,0 km/h (0 Bft)
09.08.2016 21:50 10,3 C 10,3 C 96 % 1019,7 hPa 0,0 mm 0,0 km/h (0 Bft) S 178 0 min 0,000 mm 0,0 UV-I 0 W/m 9,7 C 0,0 km/h (0 Bft)
09.08.2016 21:51 10,3 C 10,4 C 96 % 1019,8 hPa 0,0 mm 0,0 km/h (0 Bft) S 178 0 min 0,000 mm 0,0 UV-I 0 W/m 9,7 C 0,0 km/h (0 Bft)
09.08.2016 21:52 10,4 C 10,4 C 96 % 1019,7 hPa 0,0 mm 0,0 km/h (0 Bft) S 178 0 min 0,000 mm 0,0 UV-I 0 W/m 9,8 C 0,0 km/h (0 Bft)
09.08.2016 21:53 10,4 C 10,4 C 96 % 1019,8 hPa 0,0 mm 0,0 km/h (0 Bft) S 178 0 min 0,000 mm 0,0 UV-I 0 W/m 9,8 C 0,0 km/h (0 Bft)
09.08.2016 21:54 10,4 C 10,4 C 96 % 1019,7 hPa 0,0 mm 0,0 km/h (0 Bft) S 178 0 min 0,000 mm 0,0 UV-I 0 W/m 9,8 C 0,0 km/h (0 Bft)
09.08.2016 21:55 10,4 C 10,4 C 96 % 1019,7 hPa 0,0 mm 0,0 km/h (0 Bft) S 178 0 min 0,000 mm 0,0 UV-I 0 W/m 9,8 C 0,0 km/h (0 Bft)
09.08.2016 21:56 10,4 C 10,4 C 96 % 1019,7 hPa 0,0 mm 0,0 km/h (0 Bft) S 178 0 min 0,000 mm 0,0 UV-I 0 W/m 9,8 C 0,0 km/h (0 Bft)
09.08.2016 21:57 10,4 C 10,4 C 96 % 1019,6 hPa 0,0 mm 0,0 km/h (0 Bft) S 178 0 min 0,000 mm 0,0 UV-I 0 W/m 9,8 C 0,0 km/h (0 Bft)
09.08.2016 21:58 10,5 C 10,5 C 96 % 1019,7 hPa 0,0 mm 0,0 km/h (0 Bft) S 178 0 min 0,000 mm 0,0 UV-I 0 W/m 9,9 C 0,0 km/h (0 Bft)
09.08.2016 21:59 10,5 C 10,5 C 96 % 1019,7 hPa 0,0 mm 0,0 km/h (0 Bft) S 181 0 min 0,000 mm 0,0 UV-I 0 W/m 9,9 C 0,0 km/h (0 Bft)
09.08.2016 22:00 10,6 C 10,6 C 96 % 1019,7 hPa 0,0 mm 0,0 km/h (0 Bft) S 189 0 min 0,000 mm 0,0 UV-I 0 W/m 10,0 C 0,0 km/h (0 Bft)
09.08.2016 22:01 10,6 C 10,6 C 96 % 1019,8 hPa 0,0 mm 0,0 km/h (0 Bft) S-SW 198 0 min 0,000 mm 0,0 UV-I 0 W/m 10,0 C 0,0 km/h (0 Bft)
09.08.2016 22:02 10,6 C 10,6 C 96 % 1019,8 hPa 0,0 mm 0,0 km/h (0 Bft) S-SW 198 0 min 0,000 mm 0,0 UV-I 0 W/m 10,0 C 0,0 km/h (0 Bft)
09.08.2016 22:03 10,6 C 10,6 C 96 % 1019,8 hPa 0,0 mm 2,0 km/h (1 Bft) SW 217 0 min 0,000 mm 0,0 UV-I 0 W/m 10,0 C 3,2 km/h (1 Bft)
09.08.2016 22:04 10,6 C 10,6 C 96 % 1019,7 hPa 0,0 mm 2,7 km/h (1 Bft) SW 218 0 min 0,000 mm 0,0 UV-I 0 W/m 10,0 C 4,8 km/h (1 Bft)
09.08.2016 22:05 10,6 C 10,6 C 96 % 1019,7 hPa 0,0 mm 2,0 km/h (1 Bft) SW 229 0 min 0,000 mm 0,0 UV-I 0 W/m 10,0 C 3,2 km/h (1 Bft)
09.08.2016 22:06 10,6 C 10,6 C 96 % 1019,7 hPa 0,0 mm 1,7 km/h (1 Bft) W-SW 246 0 min 0,000 mm 0,0 UV-I 0 W/m 10,0 C 3,2 km/h (1 Bft)
09.08.2016 22:07 10,6 C 10,6 C 96 % 1019,7 hPa 0,0 mm 1,3 km/h (1 Bft) SW 230 0 min 0,000 mm 0,0 UV-I 0 W/m 10,0 C 3,2 km/h (1 Bft)
09.08.2016 22:08 10,6 C 10,6 C 96 % 1019,6 hPa 0,0 mm 1,3 km/h (1 Bft) SW 232 0 min 0,000 mm 0,0 UV-I 0 W/m 10,0 C 3,2 km/h (1 Bft)
09.08.2016 22:09 10,6 C 10,6 C 95 % 1019,6 hPa 0,0 mm 1,3 km/h (1 Bft) SW 232 0 min 0,000 mm 0,0 UV-I 0 W/m 9,8 C 3,2 km/h (1 Bft)
09.08.2016 22:10 10,6 C 10,6 C 95 % 1019,6 hPa 0,0 mm 1,7 km/h (1 Bft) SW 233 0 min 0,000 mm 0,0 UV-I 0 W/m 9,8 C 3,2 km/h (1 Bft)
09.08.2016 22:11 10,6 C 10,6 C 95 % 1019,6 hPa 0,0 mm 0,9 km/h (0 Bft) SW 233 0 min 0,000 mm 0,0 UV-I 0 W/m 9,8 C 1,6 km/h (1 Bft)
09.08.2016 22:12 10,6 C 10,6 C 95 % 1019,6 hPa 0,0 mm 1,9 km/h (1 Bft) SW 233 0 min 0,000 mm 0,0 UV-I 0 W/m 9,8 C 3,2 km/h (1 Bft)
09.08.2016 22:13 10,6 C 10,6 C 95 % 1019,6 hPa 0,0 mm 1,1 km/h (1 Bft) SW 233 0 min 0,000 mm 0,0 UV-I 0 W/m 9,8 C 3,2 km/h (1 Bft)
09.08.2016 22:14 10,6 C 10,6 C 95 % 1019,6 hPa 0,0 mm 1,2 km/h (1 Bft) SW 233 0 min 0,000 mm 0,0 UV-I 0 W/m 9,8 C 3,2 km/h (1 Bft)
09.08.2016 22:15 10,6 C 10,6 C 95 % 1019,6 hPa 0,0 mm 0,3 km/h (0 Bft) SW 233 0 min 0,000 mm 0,0 UV-I 0 W/m 9,8 C 1,6 km/h (1 Bft)
09.08.2016 22:16 10,5 C 10,6 C 95 % 1019,5 hPa 0,0 mm 0,0 km/h (0 Bft) SW 233 0 min 0,000 mm 0,0 UV-I 0 W/m 9,7 C 0,0 km/h (0 Bft)
09.08.2016 22:17 10,5 C 10,5 C 95 % 1019,5 hPa 0,0 mm 0,1 km/h (0 Bft) SW 233 0 min 0,000 mm 0,0 UV-I 0 W/m 9,7 C 1,6 km/h (1 Bft)
09.08.2016 22:18 10,5 C 10,5 C 95 % 1019,5 hPa 0,0 mm 0,1 km/h (0 Bft) SW 233 0 min 0,000 mm 0,0 UV-I 0 W/m 9,7 C 1,6 km/h (1 Bft)
09.08.2016 22:19 10,4 C 10,5 C 95 % 1019,6 hPa 0,0 mm 0,0 km/h (0 Bft) SW 233 0 min 0,000 mm 0,0 UV-I 0 W/m 9,6 C 0,0 km/h (0 Bft)
09.08.2016 22:20 10,4 C 10,4 C 95 % 1019,5 hPa 0,0 mm 0,0 km/h (0 Bft) SW 233 0 min 0,000 mm 0,0 UV-I 0 W/m 9,6 C 0,0 km/h (0 Bft)
09.08.2016 22:21 10,4 C 10,4 C 95 % 1019,6 hPa 0,0 mm 0,0 km/h (0 Bft) SW 233 0 min 0,000 mm 0,0 UV-I 0 W/m 9,6 C 0,0 km/h (0 Bft)
09.08.2016 22:22 10,4 C 10,4 C 95 % 1019,6 hPa 0,0 mm 0,0 km/h (0 Bft) SW 233 0 min 0,000 mm 0,0 UV-I 0 W/m 9,6 C 0,0 km/h (0 Bft)
09.08.2016 22:23 10,4 C 10,4 C 95 % 1019,6 hPa 0,0 mm 0,0 km/h (0 Bft) SW 233 0 min 0,000 mm 0,0 UV-I 0 W/m 9,6 C 0,0 km/h (0 Bft)
09.08.2016 22:24 10,4 C 10,4 C 95 % 1019,5 hPa 0,0 mm 0,0 km/h (0 Bft) SW 233 0 min 0,000 mm 0,0 UV-I 0 W/m 9,6 C 0,0 km/h (0 Bft)
09.08.2016 22:25 10,3 C 10,4 C 95 % 1019,5 hPa 0,0 mm 0,5 km/h (0 Bft) SW 233 0 min 0,000 mm 0,0 UV-I 0 W/m 9,5 C 1,6 km/h (1 Bft)
09.08.2016 22:26 10,3 C 10,3 C 95 % 1019,5 hPa 0,0 mm 0,6 km/h (0 Bft) SW 233 0 min 0,000 mm 0,0 UV-I 0 W/m 9,5 C 1,6 km/h (1 Bft)
09.08.2016 22:27 10,3 C 10,3 C 95 % 1019,5 hPa 0,0 mm 0,0 km/h (0 Bft) SW 233 0 min 0,000 mm 0,0 UV-I 0 W/m 9,5 C 0,0 km/h (0 Bft)
09.08.2016 22:28 10,3 C 10,3 C 95 % 1019,5 hPa 0,0 mm 0,1 km/h (0 Bft) SW 233 0 min 0,000 mm 0,0 UV-I 0 W/m 9,5 C 1,6 km/h (1 Bft)
09.08.2016 22:29 10,3 C 10,3 C 95 % 1019,4 hPa 0,0 mm 0,0 km/h (0 Bft) SW 233 0 min 0,000 mm 0,0 UV-I 0 W/m 9,5 C 0,0 km/h (0 Bft)
09.08.2016 22:30 10,3 C 10,3 C 95 % 1019,4 hPa 0,0 mm 0,1 km/h (0 Bft) SW 231 0 min 0,000 mm 0,0 UV-I 0 W/m 9,5 C 1,6 km/h (1 Bft)
09.08.2016 22:31 10,3 C 10,3 C 95 % 1019,4 hPa 0,0 mm 0,1 km/h (0 Bft) SW 231 0 min 0,000 mm 0,0 UV-I 0 W/m 9,5 C 1,6 km/h (1 Bft)
09.08.2016 22:32 10,3 C 10,3 C 95 % 1019,4 hPa 0,0 mm 0,0 km/h (0 Bft) SW 231 0 min 0,000 mm 0,0 UV-I 0 W/m 9,5 C 0,0 km/h (0 Bft)
09.08.2016 22:33 10,2 C 10,3 C 95 % 1019,4 hPa 0,0 mm 0,0 km/h (0 Bft) SW 231 0 min 0,000 mm 0,0 UV-I 0 W/m 9,4 C 0,0 km/h (0 Bft)
09.08.2016 22:34 10,2 C 10,2 C 95 % 1019,4 hPa 0,0 mm 0,0 km/h (0 Bft) SW 231 0 min 0,000 mm 0,0 UV-I 0 W/m 9,4 C 0,0 km/h (0 Bft)
09.08.2016 22:35 10,2 C 10,2 C 95 % 1019,4 hPa 0,0 mm 0,1 km/h (0 Bft) SW 231 0 min 0,000 mm 0,0 UV-I 0 W/m 9,4 C 1,6 km/h (1 Bft)
09.08.2016 22:36 10,2 C 10,2 C 95 % 1019,4 hPa 0,0 mm 0,0 km/h (0 Bft) SW 231 0 min 0,000 mm 0,0 UV-I 0 W/m 9,4 C 0,0 km/h (0 Bft)
09.08.2016 22:37 10,2 C 10,2 C 95 % 1019,4 hPa 0,0 mm 0,0 km/h (0 Bft) SW 231 0 min 0,000 mm 0,0 UV-I 0 W/m 9,4 C 0,0 km/h (0 Bft)
09.08.2016 22:38 10,2 C 10,2 C 95 % 1019,4 hPa 0,0 mm 0,1 km/h (0 Bft) SW 231 0 min 0,000 mm 0,0 UV-I 0 W/m 9,4 C 1,6 km/h (1 Bft)
09.08.2016 22:39 10,1 C 10,2 C 95 % 1019,4 hPa 0,0 mm 0,0 km/h (0 Bft) SW 231 0 min 0,000 mm 0,0 UV-I 0 W/m 9,3 C 0,0 km/h (0 Bft)
09.08.2016 22:40 10,1 C 10,1 C 95 % 1019,4 hPa 0,0 mm 0,0 km/h (0 Bft) SW 231 0 min 0,000 mm 0,0 UV-I 0 W/m 9,3 C 0,0 km/h (0 Bft)
09.08.2016 22:41 10,1 C 10,1 C 95 % 1019,3 hPa 0,0 mm 1,1 km/h (1 Bft) SW 231 0 min 0,000 mm 0,0 UV-I 0 W/m 9,3 C 1,6 km/h (1 Bft)
09.08.2016 22:42 10,1 C 10,1 C 95 % 1019,3 hPa 0,0 mm 0,1 km/h (0 Bft) SW 231 0 min 0,000 mm 0,0 UV-I 0 W/m 9,3 C 1,6 km/h (1 Bft)
09.08.2016 22:43 10,1 C 10,1 C 95 % 1019,3 hPa 0,0 mm 1,3 km/h (1 Bft) SW 231 0 min 0,000 mm 0,0 UV-I 0 W/m 9,3 C 1,6 km/h (1 Bft)
09.08.2016 22:44 10,1 C 10,1 C 95 % 1019,4 hPa 0,0 mm 1,4 km/h (1 Bft) W-SW 237 0 min 0,000 mm 0,0 UV-I 0 W/m 9,3 C 4,8 km/h (1 Bft)
09.08.2016 22:45 10,1 C 10,1 C 95 % 1019,3 hPa 0,0 mm 1,3 km/h (1 Bft) W-SW 237 0 min 0,000 mm 0,0 UV-I 0 W/m 9,3 C 3,2 km/h (1 Bft)
09.08.2016 22:46 10,1 C 10,1 C 95 % 1019,4 hPa 0,0 mm 0,8 km/h (0 Bft) W-SW 237 0 min 0,000 mm 0,0 UV-I 0 W/m 9,3 C 1,6 km/h (1 Bft)
09.08.2016 22:47 10,1 C 10,1 C 95 % 1019,4 hPa 0,0 mm 1,4 km/h (1 Bft) W-SW 237 0 min 0,000 mm 0,0 UV-I 0 W/m 9,3 C 3,2 km/h (1 Bft)
09.08.2016 22:48 10,1 C 10,1 C 95 % 1019,4 hPa 0,0 mm 0,0 km/h (0 Bft) W-SW 237 0 min 0,000 mm 0,0 UV-I 0 W/m 9,3 C 0,0 km/h (0 Bft)
09.08.2016 22:49 10,1 C 10,1 C 95 % 1019,4 hPa 0,0 mm 0,0 km/h (0 Bft) W-SW 237 0 min 0,000 mm 0,0 UV-I 0 W/m 9,3 C 0,0 km/h (0 Bft)
09.08.2016 22:50 10,1 C 10,1 C 95 % 1019,4 hPa 0,0 mm 0,0 km/h (0 Bft) W-SW 237 0 min 0,000 mm 0,0 UV-I 0 W/m 9,3 C 0,0 km/h (0 Bft)
09.08.2016 22:51 10,1 C 10,1 C 95 % 1019,4 hPa 0,0 mm 0,0 km/h (0 Bft) W-SW 237 0 min 0,000 mm 0,0 UV-I 0 W/m 9,3 C 0,0 km/h (0 Bft)
09.08.2016 22:52 10,0 C 10,1 C 95 % 1019,3 hPa 0,0 mm 0,0 km/h (0 Bft) W-SW 237 0 min 0,000 mm 0,0 UV-I 0 W/m 9,2 C 0,0 km/h (0 Bft)
09.08.2016 22:53 10,0 C 10,0 C 95 % 1019,3 hPa 0,0 mm 0,0 km/h (0 Bft) W-SW 237 0 min 0,000 mm 0,0 UV-I 0 W/m 9,2 C 0,0 km/h (0 Bft)
09.08.2016 22:54 10,0 C 10,0 C 95 % 1019,3 hPa 0,0 mm 0,2 km/h (0 Bft) W-SW 237 0 min 0,000 mm 0,0 UV-I 0 W/m 9,2 C 1,6 km/h (1 Bft)
09.08.2016 22:55 10,0 C 10,0 C 95 % 1019,4 hPa 0,0 mm 0,1 km/h (0 Bft) W-SW 237 0 min 0,000 mm 0,0 UV-I 0 W/m 9,2 C 1,6 km/h (1 Bft)
09.08.2016 22:56 10,0 C 10,0 C 95 % 1019,3 hPa 0,0 mm 0,2 km/h (0 Bft) W-SW 237 0 min 0,000 mm 0,0 UV-I 0 W/m 9,2 C 1,6 km/h (1 Bft)
09.08.2016 22:57 10,0 C 10,0 C 95 % 1019,3 hPa 0,0 mm 0,0 km/h (0 Bft) W-SW 238 0 min 0,000 mm 0,0 UV-I 0 W/m 9,2 C 0,0 km/h (0 Bft)
09.08.2016 22:58 9,9 C 10,0 C 95 % 1019,3 hPa 0,0 mm 0,0 km/h (0 Bft) W-SW 238 0 min 0,000 mm 0,0 UV-I 0 W/m 9,1 C 0,0 km/h (0 Bft)
09.08.2016 22:59 10,0 C 10,0 C 95 % 1019,3 hPa 0,0 mm 0,0 km/h (0 Bft) W-SW 241 0 min 0,000 mm 0,0 UV-I 0 W/m 9,2 C 0,0 km/h (0 Bft)
09.08.2016 23:00 10,0 C 10,0 C 95 % 1019,4 hPa 0,0 mm 0,0 km/h (0 Bft) W-SW 241 0 min 0,000 mm 0,0 UV-I 0 W/m 9,2 C 0,0 km/h (0 Bft)
09.08.2016 23:01 10,0 C 10,0 C 95 % 1019,3 hPa 0,0 mm 0,0 km/h (0 Bft) W-SW 244 0 min 0,000 mm 0,0 UV-I 0 W/m 9,2 C 0,0 km/h (0 Bft)
09.08.2016 23:02 10,0 C 10,0 C 95 % 1019,3 hPa 0,0 mm 0,0 km/h (0 Bft) W-SW 240 0 min 0,000 mm 0,0 UV-I 0 W/m 9,2 C 0,0 km/h (0 Bft)
09.08.2016 23:03 10,0 C 10,0 C 95 % 1019,4 hPa 0,0 mm 0,9 km/h (0 Bft) W 262 0 min 0,000 mm 0,0 UV-I 0 W/m 9,2 C 3,2 km/h (1 Bft)
09.08.2016 23:04 10,0 C 10,0 C 95 % 1019,4 hPa 0,0 mm 1,2 km/h (1 Bft) W 263 0 min 0,000 mm 0,0 UV-I 0 W/m 9,2 C 1,6 km/h (1 Bft)
09.08.2016 23:05 10,0 C 10,0 C 95 % 1019,4 hPa 0,0 mm 2,1 km/h (1 Bft) W-SW 248 0 min 0,000 mm 0,0 UV-I 0 W/m 9,2 C 3,2 km/h (1 Bft)
09.08.2016 23:06 10,0 C 10,0 C 95 % 1019,4 hPa 0,0 mm 1,5 km/h (1 Bft) W-SW 248 0 min 0,000 mm 0,0 UV-I 0 W/m 9,2 C 3,2 km/h (1 Bft)
09.08.2016 23:07 10,0 C 10,0 C 95 % 1019,5 hPa 0,0 mm 0,1 km/h (0 Bft) W-SW 248 0 min 0,000 mm 0,0 UV-I 0 W/m 9,2 C 1,6 km/h (1 Bft)
09.08.2016 23:08 10,0 C 10,0 C 95 % 1019,4 hPa 0,0 mm 0,0 km/h (0 Bft) W-SW 248 0 min 0,000 mm 0,0 UV-I 0 W/m 9,2 C 0,0 km/h (0 Bft)
09.08.2016 23:09 9,9 C 10,0 C 95 % 1019,4 hPa 0,0 mm 0,0 km/h (0 Bft) W-SW 248 0 min 0,000 mm 0,0 UV-I 0 W/m 9,1 C 0,0 km/h (0 Bft)
09.08.2016 23:10 9,9 C 9,9 C 95 % 1019,4 hPa 0,0 mm 0,0 km/h (0 Bft) W-SW 248 0 min 0,000 mm 0,0 UV-I 0 W/m 9,1 C 0,0 km/h (0 Bft)
09.08.2016 23:11 9,9 C 9,9 C 95 % 1019,4 hPa 0,0 mm 0,0 km/h (0 Bft) W-SW 248 0 min 0,000 mm 0,0 UV-I 0 W/m 9,1 C 0,0 km/h (0 Bft)
09.08.2016 23:12 9,9 C 9,9 C 95 % 1019,4 hPa 0,0 mm 0,0 km/h (0 Bft) W-SW 248 0 min 0,000 mm 0,0 UV-I 0 W/m 9,1 C 0,0 km/h (0 Bft)
09.08.2016 23:13 9,9 C 9,9 C 95 % 1019,4 hPa 0,0 mm 0,0 km/h (0 Bft) W-SW 248 0 min 0,000 mm 0,0 UV-I 0 W/m 9,1 C 0,0 km/h (0 Bft)
09.08.2016 23:14 9,9 C 9,9 C 95 % 1019,3 hPa 0,0 mm 0,1 km/h (0 Bft) W-SW 248 0 min 0,000 mm 0,0 UV-I 0 W/m 9,1 C 1,6 km/h (1 Bft)
09.08.2016 23:15 9,9 C 9,9 C 95 % 1019,3 hPa 0,0 mm 0,0 km/h (0 Bft) W-SW 248 0 min 0,000 mm 0,0 UV-I 0 W/m 9,1 C 0,0 km/h (0 Bft)
09.08.2016 23:16 9,9 C 9,9 C 95 % 1019,3 hPa 0,0 mm 0,0 km/h (0 Bft) W-SW 248 0 min 0,000 mm 0,0 UV-I 0 W/m 9,1 C 0,0 km/h (0 Bft)
09.08.2016 23:17 9,9 C 9,9 C 95 % 1019,3 hPa 0,0 mm 0,1 km/h (0 Bft) W-SW 248 0 min 0,000 mm 0,0 UV-I 0 W/m 9,1 C 1,6 km/h (1 Bft)
09.08.2016 23:18 9,8 C 9,9 C 95 % 1019,3 hPa 0,0 mm 0,3 km/h (0 Bft) W-SW 248 0 min 0,000 mm 0,0 UV-I 0 W/m 9,0 C 1,6 km/h (1 Bft)
09.08.2016 23:19 9,8 C 9,8 C 95 % 1019,2 hPa 0,0 mm 0,3 km/h (0 Bft) W-SW 248 0 min 0,000 mm 0,0 UV-I 0 W/m 9,0 C 1,6 km/h (1 Bft)
09.08.2016 23:20 9,8 C 9,8 C 95 % 1019,2 hPa 0,0 mm 0,0 km/h (0 Bft) W-SW 248 0 min 0,000 mm 0,0 UV-I 0 W/m 9,0 C 0,0 km/h (0 Bft)
09.08.2016 23:21 9,8 C 9,8 C 95 % 1019,2 hPa 0,0 mm 0,0 km/h (0 Bft) W-SW 248 0 min 0,000 mm 0,0 UV-I 0 W/m 9,0 C 0,0 km/h (0 Bft)
09.08.2016 23:22 9,8 C 9,8 C 95 % 1019,2 hPa 0,0 mm 0,0 km/h (0 Bft) W-SW 248 0 min 0,000 mm 0,0 UV-I 0 W/m 9,0 C 0,0 km/h (0 Bft)
09.08.2016 23:23 9,8 C 9,8 C 95 % 1019,3 hPa 0,0 mm 0,0 km/h (0 Bft) W-SW 248 0 min 0,000 mm 0,0 UV-I 0 W/m 9,0 C 0,0 km/h (0 Bft)
09.08.2016 23:24 9,8 C 9,8 C 96 % 1019,2 hPa 0,0 mm 0,1 km/h (0 Bft) W-SW 248 0 min 0,000 mm 0,0 UV-I 0 W/m 9,2 C 1,6 km/h (1 Bft)
09.08.2016 23:25 9,8 C 9,9 C 96 % 1019,2 hPa 0,0 mm 0,0 km/h (0 Bft) W-SW 248 0 min 0,000 mm 0,0 UV-I 0 W/m 9,2 C 0,0 km/h (0 Bft)
09.08.2016 23:26 9,8 C 9,9 C 96 % 1019,1 hPa 0,0 mm 0,0 km/h (0 Bft) W-SW 248 0 min 0,000 mm 0,0 UV-I 0 W/m 9,2 C 0,0 km/h (0 Bft)
09.08.2016 23:27 9,8 C 9,9 C 95 % 1019,2 hPa 0,0 mm 0,0 km/h (0 Bft) W-SW 248 0 min 0,000 mm 0,0 UV-I 0 W/m 9,0 C 0,0 km/h (0 Bft)
09.08.2016 23:28 9,8 C 9,9 C 96 % 1019,2 hPa 0,0 mm 0,0 km/h (0 Bft) W-SW 248 0 min 0,000 mm 0,0 UV-I 0 W/m 9,2 C 0,0 km/h (0 Bft)
09.08.2016 23:29 9,8 C 9,9 C 96 % 1019,2 hPa 0,0 mm 0,0 km/h (0 Bft) W-SW 248 0 min 0,000 mm 0,0 UV-I 0 W/m 9,2 C 0,0 km/h (0 Bft)
09.08.2016 23:30 9,9 C 9,9 C 96 % 1019,1 hPa 0,0 mm 0,0 km/h (0 Bft) W-SW 248 0 min 0,000 mm 0,0 UV-I 0 W/m 9,3 C 0,0 km/h (0 Bft)
09.08.2016 23:31 9,8 C 9,9 C 96 % 1019,2 hPa 0,0 mm 0,0 km/h (0 Bft) W-SW 248 0 min 0,000 mm 0,0 UV-I 0 W/m 9,2 C 0,0 km/h (0 Bft)
09.08.2016 23:32 9,8 C 9,8 C 96 % 1019,2 hPa 0,0 mm 0,0 km/h (0 Bft) W-SW 248 0 min 0,000 mm 0,0 UV-I 0 W/m 9,2 C 0,0 km/h (0 Bft)
09.08.2016 23:33 9,8 C 9,9 C 96 % 1019,2 hPa 0,0 mm 0,0 km/h (0 Bft) W-SW 248 0 min 0,000 mm 0,0 UV-I 0 W/m 9,2 C 0,0 km/h (0 Bft)
09.08.2016 23:34 9,9 C 9,9 C 96 % 1019,2 hPa 0,0 mm 0,0 km/h (0 Bft) W-SW 248 0 min 0,000 mm 0,0 UV-I 0 W/m 9,3 C 0,0 km/h (0 Bft)
09.08.2016 23:35 9,9 C 9,9 C 96 % 1019,1 hPa 0,0 mm 0,0 km/h (0 Bft) W-SW 248 0 min 0,000 mm 0,0 UV-I 0 W/m 9,3 C 0,0 km/h (0 Bft)
09.08.2016 23:36 9,9 C 9,9 C 95 % 1019,1 hPa 0,0 mm 0,0 km/h (0 Bft) W-SW 248 0 min 0,000 mm 0,0 UV-I 0 W/m 9,1 C 0,0 km/h (0 Bft)
09.08.2016 23:37 9,9 C 9,9 C 95 % 1019,1 hPa 0,0 mm 0,0 km/h (0 Bft) W-SW 248 0 min 0,000 mm 0,0 UV-I 0 W/m 9,1 C 0,0 km/h (0 Bft)
09.08.2016 23:38 9,9 C 9,9 C 95 % 1019,0 hPa 0,0 mm 0,0 km/h (0 Bft) W-SW 246 0 min 0,000 mm 0,0 UV-I 0 W/m 9,1 C 0,0 km/h (0 Bft)
09.08.2016 23:39 9,8 C 9,9 C 95 % 1019,0 hPa 0,0 mm 0,0 km/h (0 Bft) S 172 0 min 0,000 mm 0,0 UV-I 0 W/m 9,0 C 0,0 km/h (0 Bft)
09.08.2016 23:40 9,9 C 9,9 C 95 % 1019,0 hPa 0,0 mm 0,0 km/h (0 Bft) S 172 0 min 0,000 mm 0,0 UV-I 0 W/m 9,1 C 0,0 km/h (0 Bft)
09.08.2016 23:41 9,8 C 9,9 C 95 % 1019,0 hPa 0,0 mm 0,0 km/h (0 Bft) S 172 0 min 0,000 mm 0,0 UV-I 0 W/m 9,0 C 0,0 km/h (0 Bft)
09.08.2016 23:42 9,8 C 9,8 C 95 % 1019,0 hPa 0,0 mm 0,0 km/h (0 Bft) S 172 0 min 0,000 mm 0,0 UV-I 0 W/m 9,0 C 0,0 km/h (0 Bft)
09.08.2016 23:43 9,8 C 9,8 C 95 % 1019,0 hPa 0,0 mm 0,0 km/h (0 Bft) S 172 0 min 0,000 mm 0,0 UV-I 0 W/m 9,0 C 0,0 km/h (0 Bft)
09.08.2016 23:44 9,8 C 9,8 C 95 % 1019,0 hPa 0,0 mm 0,0 km/h (0 Bft) S 174 0 min 0,000 mm 0,0 UV-I 0 W/m 9,0 C 0,0 km/h (0 Bft)
09.08.2016 23:45 9,9 C 9,9 C 96 % 1019,0 hPa 0,0 mm 0,0 km/h (0 Bft) W-SW 249 0 min 0,000 mm 0,0 UV-I 0 W/m 9,3 C 0,0 km/h (0 Bft)
09.08.2016 23:46 9,9 C 9,9 C 96 % 1019,1 hPa 0,0 mm 0,0 km/h (0 Bft) W-SW 249 0 min 0,000 mm 0,0 UV-I 0 W/m 9,3 C 0,0 km/h (0 Bft)
09.08.2016 23:47 9,9 C 9,9 C 96 % 1019,1 hPa 0,0 mm 0,0 km/h (0 Bft) W-SW 249 0 min 0,000 mm 0,0 UV-I 0 W/m 9,3 C 0,0 km/h (0 Bft)
09.08.2016 23:48 9,9 C 9,9 C 95 % 1019,1 hPa 0,0 mm 0,0 km/h (0 Bft) W-SW 249 0 min 0,000 mm 0,0 UV-I 0 W/m 9,1 C 0,0 km/h (0 Bft)
09.08.2016 23:49 9,9 C 9,9 C 95 % 1019,0 hPa 0,0 mm 0,0 km/h (0 Bft) W 273 0 min 0,000 mm 0,0 UV-I 0 W/m 9,1 C 0,0 km/h (0 Bft)
09.08.2016 23:50 9,9 C 9,9 C 95 % 1019,0 hPa 0,0 mm 1,3 km/h (1 Bft) W-NW 284 0 min 0,000 mm 0,0 UV-I 0 W/m 9,1 C 3,2 km/h (1 Bft)
09.08.2016 23:51 9,9 C 9,9 C 95 % 1019,0 hPa 0,0 mm 2,5 km/h (1 Bft) W 261 0 min 0,000 mm 0,0 UV-I 0 W/m 9,1 C 3,2 km/h (1 Bft)
09.08.2016 23:52 9,9 C 9,9 C 95 % 1019,1 hPa 0,0 mm 2,9 km/h (1 Bft) W-NW 284 0 min 0,000 mm 0,0 UV-I 0 W/m 9,1 C 4,8 km/h (1 Bft)
09.08.2016 23:53 9,9 C 9,9 C 95 % 1019,1 hPa 0,0 mm 1,1 km/h (1 Bft) W-NW 284 0 min 0,000 mm 0,0 UV-I 0 W/m 9,1 C 3,2 km/h (1 Bft)
09.08.2016 23:54 9,9 C 9,9 C 95 % 1019,0 hPa 0,0 mm 0,9 km/h (0 Bft) W-NW 284 0 min 0,000 mm 0,0 UV-I 0 W/m 9,1 C 1,6 km/h (1 Bft)
09.08.2016 23:55 9,9 C 9,9 C 95 % 1019,0 hPa 0,0 mm 0,1 km/h (0 Bft) W-NW 284 0 min 0,000 mm 0,0 UV-I 0 W/m 9,1 C 1,6 km/h (1 Bft)
09.08.2016 23:56 9,8 C 9,9 C 95 % 1019,0 hPa 0,0 mm 0,0 km/h (0 Bft) W-NW 284 0 min 0,000 mm 0,0 UV-I 0 W/m 9,0 C 0,0 km/h (0 Bft)
09.08.2016 23:57 9,8 C 9,9 C 95 % 1018,9 hPa 0,0 mm 0,0 km/h (0 Bft) W-NW 284 0 min 0,000 mm 0,0 UV-I 0 W/m 9,0 C 0,0 km/h (0 Bft)
09.08.2016 23:58 9,8 C 9,8 C 95 % 1018,9 hPa 0,0 mm 0,0 km/h (0 Bft) W-NW 284 0 min 0,000 mm 0,0 UV-I 0 W/m 9,0 C 0,0 km/h (0 Bft)
09.08.2016 23:59 9,8 C 9,8 C 95 % 1019,0 hPa 0,0 mm 0,2 km/h (0 Bft) W-NW 284 0 min 0,000 mm 0,0 UV-I 0 W/m 9,0 C 1,6 km/h (1 Bft)
_ Min-Zeit 23:59 23:59 00:10 05:07 - 23:58 - - - - - - 23:59 23:58
Minimum _ 9,8 C 9,8 C 80 % 1016,9 hPa - 0,0 km/h (0 Bft) - - - - - - 9,0 C 0,0 km/h (0 Bft)
_ Max-Zeit 02:37 02:38 23:47 21:36 05:35 16:13 - - 23:59 13:01 12:28 12:29 10:50 05:31
Maximum _ 16,6 C 16,6 C 96 % 1019,9 hPa 1,8 mm 16,1 km/h
W-NW (3 Bft)
- - 0 min 0,076 mm 2,3 UV-I 232 W/m 14,2 C 22,5 km/h
W (4 Bft)
Durchschnitt _ 13,2 C 13,3 C 93 % 1018,3 hPa #28,6 mm 1,4 km/h (1 Bft) W - #0 min. #0,356 mm 0,9 UV-I 27 W/m 12,1 C 2,6 km/h (1 Bft)